GFSGBSN_2pvu_pres_000.txt.gz
Presure
192 193 193 172 165 187 244 252 244 231 258 253 286 307 373 385 408 452 445 358 302 258 258 248 250 240 220 198 135 126 187 126 184 188 188 185 188 191 207 147 115 138 139 180 154 207 141
189 207 153 211 193 194 241 245 236 225 244 242 254 287 311 370 403 403 426 452 458 264 254 228 292 301 144 161 195 193 82 185 181 167 188 178 179 185 124 189 194 91 92 124 136 197 167
220 152 182 207 177 219 255 245 227 220 243 255 262 285 293 314 364 399 425 436 460 454 238 256 227 190 274 148 157 187 194 195 175 180 174 168 185 185 186 183 198 212 145 106 186 126 207
222 198 217 199 178 219 254 242 230 228 232 244 252 276 280 301 320 376 400 435 449 369 262 217 258 227 85 205 200 174 201 189 186 108 174 174 171 172 195 184 184 177 110 146 121 101 142
215 198 215 195 197 220 257 240 224 222 247 242 252 247 267 287 310 354 383 394 424 470 396 243 247 220 201 72 176 174 176 178 182 186 185 168 191 161 88 124 194 186 145 90 177 198 159
208 195 215 189 211 215 272 239 217 232 234 241 241 248 267 277 288 322 372 401 376 412 456 258 93 258 132 119 228 204 151 164 178 183 189 150 173 105 175 169 137 169 207 192 184 129 138
206 195 215 186 209 216 287 241 234 228 232 229 235 229 254 266 272 296 379 391 394 386 439 259 211 246 272 224 214 205 203 177 186 187 180 152 169 172 184 156 93 171 173 177 146 199 110
204 205 213 187 203 222 285 222 214 236 223 218 240 236 241 243 269 288 317 395 415 388 396 237 213 246 264 215 303 215 213 194 201 184 182 170 188 167 110 80 188 166 168 175 114 194 188
200 209 205 189 203 222 256 239 215 230 227 228 226 239 232 242 251 281 300 323 375 429 463 227 215 242 257 239 274 232 205 207 199 191 169 108 160 169 180 116 185 103 187 166 145 188 196
196 211 199 198 202 219 232 240 225 233 227 223 230 227 224 232 242 249 280 311 345 416 468 214 209 222 248 258 211 284 212 202 202 196 174 166 91 181 171 192 177 179 193 173 193 184 182
194 211 192 202 203 218 224 246 226 237 167 227 231 221 238 229 242 245 262 277 324 355 357 213 206 198 236 261 214 252 219 204 197 200 201 177 68 173 170 188 174 194 187 202 180 179 189
197 211 186 202 200 217 220 249 225 238 223 224 233 216 221 216 229 232 242 264 305 348 224 211 195 208 218 258 221 252 270 216 180 199 206 194 144 105 180 180 169 156 101 202 170 190 173
203 211 187 200 201 216 216 239 230 236 206 228 230 223 229 220 220 222 234 84 286 336 206 212 198 199 199 216 258 262 243 227 213 207 201 202 185 126 182 129 165 178 166 149 160 192 183
206 207 185 200 200 215 223 227 243 214 219 224 157 218 225 224 223 216 232 95 257 293 226 216 203 192 188 196 236 258 208 192 197 202 200 178 190 182 188 189 100 90 158 193 90 194 160
211 205 183 198 197 210 225 226 259 224 227 208 231 218 221 220 218 221 223 224 141 252 281 210 202 202 189 189 201 238 255 187 195 192 193 194 183 184 184 183 175 172 176 178 171 187 133
215 201 183 198 201 207 221 227 267 231 232 211 233 213 220 173 216 220 228 234 236 243 250 197 197 200 197 185 194 208 193 195 189 191 183 189 158 184 189 178 187 175 182 169 174 170 154
215 200 183 197 205 208 217 231 261 249 219 229 217 207 174 217 216 214 219 236 236 234 234 246 197 195 197 189 193 187 188 188 188 189 186 169 174 179 188 192 192 159 158 165 194 183 194
214 200 200 194 209 210 221 186 246 261 217 242 222 221 204 216 205 225 216 220 229 228 234 230 231 198 198 197 195 190 187 186 187 195 199 200 182 202 154 146 187 195 195 153 189 176 194
213 161 201 196 205 209 222 180 156 284 227 211 219 228 212 222 206 218 153 87 228 229 222 221 246 248 199 198 196 195 189 191 191 188 186 185 185 182 186 184 172 171 180 181 239 164 169
208 178 205 199 193 190 189 224 174 291 212 221 227 222 213 221 223 213 226 203 207 232 223 231 225 226 230 239 223 197 195 195 195 199 199 196 181 198 150 204 194 195 190 196 177 158 190
203 152 200 199 194 208 219 229 254 193 252 192 223 224 204 229 225 214 208 218 226 207 217 225 223 219 216 225 233 235 230 239 248 235 196 197 196 190 197 191 197 211 193 175 172 156 179
149 200 151 195 201 195 218 221 253 167 224 218 161 231 200 239 230 207 214 207 125 225 229 225 212 224 211 226 218 229 221 230 226 232 229 222 188 141 237 154 195 148 219 157 155 195 149
159 199 205 177 194 200 203 224 238 209 178 249 174 239 235 219 228 223 217 205 214 217 214 226 217 207 224 222 226 216 222 220 210 218 222 229 233 235 227 204 204 218 192 129 157 199 200
173 188 196 189 201 198 201 204 226 268 316 231 182 183 216 192 219 220 215 219 209 208 165 211 225 225 210 211 220 222 232 137 219 215 175 222 190 177 221 208 184 219 216 174 175 159 156
180 181 197 165 193 195 187 206 197 231 342 302 180 173 234 240 221 233 226 231 238 214 211 209 208 215 224 212 145 172 213 223 213 140 132 223 204 139 160 157 141 149 158 193 197 195 198
190 186 166 140 151 195 191 192 194 206 230 376 218 186 245 192 236 241 200 214 223 238 230 234 202 212 224 219 222 232 217 194 139 140 210 207 214 203 151 150 150 208 203 196 200 170 171
191 199 190 171 144 193 199 189 192 197 205 226 367 285 170 231 248 199 224 239 231 181 208 219 236 212 158 192 222 193 200 229 227 189 215 204 211 179 166 140 189 167 170 198 196 203 209
201 188 206 151 144 148 201 201 196 189 170 201 210 323 274 219 265 185 167 253 248 238 222 215 210 142 211 220 214 222 206 225 214 206 195 228 204 176 158 216 206 208 188 183 206 182 209
202 195 177 202 140 146 148 184 192 192 198 169 186 206 229 345 222 279 256 226 230 254 251 241 161 149 232 255 204 215 236 238 234 147 208 201 168 154 150 197 197 201 204 192 159 200 204

GFSGBSN_2pvu_pres_003.txt.gz
Presure
203 183 144 211 205 179 218 202 191 267 258 229 242 249 245 258 283 303 350 397 453 411 396 249 276 251 272 218 188 159 180 192 181 188 100 122 188 182 189 164 88 83 186 203 152 167 148
198 195 191 196 204 195 214 201 215 273 233 216 252 243 246 266 270 288 348 370 442 424 387 376 253 264 236 237 179 198 180 180 130 197 182 98 174 189 191 171 189 88 158 133 115 152 85
183 194 207 205 208 200 207 194 233 258 232 243 240 240 256 255 282 289 342 369 444 435 420 375 261 286 265 112 208 190 199 178 180 176 188 172 100 191 200 197 184 188 96 194 185 89 195
183 201 199 206 212 214 201 203 280 235 216 237 230 242 239 255 276 283 312 376 391 460 423 385 338 259 230 88 138 203 202 186 168 175 169 182 185 122 198 198 191 190 199 119 157 126 160
181 197 174 200 203 214 191 206 280 229 241 237 238 242 236 253 265 288 308 382 390 433 469 437 340 242 129 118 234 205 205 198 194 183 173 187 187 181 191 182 188 172 137 210 181 107 193
181 143 207 196 207 207 194 211 264 228 214 243 239 237 253 253 258 276 292 333 392 383 419 412 390 240 286 318 233 154 207 195 191 197 194 172 189 110 176 176 181 128 218 188 182 203 180
184 197 205 194 208 194 200 212 249 228 229 232 231 228 241 242 254 268 285 315 379 371 395 434 206 204 70 90 159 224 143 202 196 203 204 181 176 176 171 98 119 207 179 195 176 96 163
181 198 205 194 212 192 197 216 236 230 229 231 225 241 234 238 255 263 280 306 361 372 388 453 112 85 277 222 318 218 197 154 203 200 204 193 177 169 170 163 166 90 190 131 169 128 162
188 197 204 193 213 192 196 218 223 235 219 235 228 218 230 239 249 255 273 300 336 377 391 406 444 236 256 222 206 271 221 209 166 186 206 180 169 168 167 115 84 183 162 192 161 179 161
192 190 205 196 213 194 197 216 223 241 222 231 227 242 231 221 238 253 264 293 329 408 414 403 454 220 252 280 207 311 242 215 146 161 199 172 176 176 174 185 153 183 180 97 172 202 203
194 192 206 202 212 196 196 216 219 250 224 232 235 226 215 230 237 242 263 287 323 382 461 454 259 218 237 272 227 208 295 215 211 148 162 178 174 70 178 178 175 175 185 183 192 172 183
194 194 207 205 203 198 195 215 218 251 229 218 226 219 218 228 230 239 258 269 309 356 397 388 249 224 223 268 219 231 212 226 213 203 173 175 167 179 186 199 171 179 194 164 85 155 94
194 207 209 207 190 199 195 210 218 247 217 220 226 228 222 227 224 232 241 273 305 355 403 229 234 210 237 244 269 258 211 295 225 216 196 179 182 133 131 136 174 174 187 186 175 183 169
196 210 208 210 189 197 195 209 222 255 233 217 149 223 217 227 218 231 229 266 305 352 218 222 208 207 240 250 268 272 214 292 264 203 200 184 184 173 170 81 123 172 180 173 177 92 191
197 211 208 211 190 197 198 209 228 243 234 220 227 220 220 225 219 227 235 90 305 208 207 206 191 207 225 250 266 280 214 216 254 209 197 197 195 190 182 184 139 90 178 176 162 171 178
201 211 207 201 191 198 209 210 225 248 240 221 227 223 197 218 230 224 234 150 190 153 204 195 123 202 192 189 266 272 238 209 277 228 199 195 194 191 190 186 163 175 168 168 115 176 172
204 211 208 207 194 195 214 213 224 239 247 226 222 217 217 219 228 221 228 235 243 199 200 202 195 191 201 186 227 256 262 234 211 227 203 195 190 189 185 179 194 190 184 140 190 141 152
204 207 210 198 207 193 215 215 215 201 253 220 215 205 225 213 216 221 227 230 239 200 196 197 201 198 187 181 191 211 226 254 254 199 183 201 195 195 197 187 190 196 185 173 185 160 185
207 204 207 195 223 195 214 216 207 223 237 238 219 215 224 227 211 216 237 241 230 239 198 194 198 199 200 185 186 189 225 243 250 249 216 181 195 191 194 197 194 187 181 161 189 194 155
208 204 179 196 203 198 211 217 219 197 286 233 233 214 214 214 232 220 230 227 228 239 242 199 164 202 200 200 194 184 189 223 229 222 203 194 186 190 188 193 166 197 186 173 181 196 173
189 169 201 193 203 193 175 220 218 219 253 168 168 220 216 219 138 230 225 222 228 232 246 222 195 198 198 197 202 191 185 190 191 190 206 191 198 195 177 190 182 182 178 162 196 195 156
194 153 152 165 199 199 202 217 220 231 163 191 167 229 212 220 218 216 210 220 225 223 226 226 247 199 198 195 198 197 199 194 189 189 191 188 186 185 199 188 179 187 184 181 192 188 188
193 142 152 182 157 182 198 208 221 192 232 171 248 207 231 203 219 172 208 182 215 218 232 220 226 230 242 208 198 197 197 198 202 200 196 193 192 191 193 192 180 189 189 177 195 183 198
188 180 143 153 206 171 196 205 208 230 225 185 260 174 228 218 232 220 221 203 200 215 227 224 228 158 226 227 171 213 215 195 194 196 194 195 195 195 195 195 190 199 199 190 194 187 143
194 188 203 172 185 201 202 201 203 213 254 307 186 205 186 230 228 236 103 171 195 105 220 219 213 220 224 223 235 227 233 238 228 234 235 234 235 241 238 230 236 237 233 225 226 229 231
199 193 193 161 199 202 200 200 207 203 220 285 280 192 226 241 207 230 237 221 164 208 210 210 224 220 209 220 218 220 228 226 228 218 221 225 137 217 226 232 228 231 140 177 236 140 128
202 190 193 185 184 144 169 198 196 199 205 229 300 243 234 214 243 238 231 241 225 219 220 219 217 212 215 218 213 215 208 195 227 220 212 216 221 216 224 222 177 216 215 196 147 157 190
201 201 195 199 178 174 148 186 196 193 192 205 237 345 265 258 212 182 244 231 206 185 223 233 228 121 220 218 219 226 216 213 214 144 223 223 162 168 149 221 122 211 147 173 130 170 208
204 201 189 197 198 190 151 150 200 194 184 202 204 218 347 297 271 225 200 183 244 241 237 169 222 233 237 135 217 205 233 208 207 190 224 201 142 221 222 150 209 206 217 152 204 214 213

GFSGBSN_2pvu_pres_006.txt.gz
Presure
187 170 192 199 207 190 192 209 205 213 217 210 254 241 238 241 241 245 248 255 270 296 389 374 426 427 357 232 309 210 202 186 188 185 194 166 199 161 178 99 141 90 117 83 91 84 85
169 199 189 192 197 184 206 178 205 215 203 202 252 241 219 235 249 245 244 251 281 300 384 382 417 419 387 346 293 220 205 194 176 185 189 181 125 190 194 184 84 81 156 84 94 95 83
182 193 197 185 189 187 151 199 206 211 198 218 252 233 247 242 229 223 261 266 280 306 388 419 393 427 397 113 266 250 212 202 180 173 185 195 188 88 187 196 199 202 200 197 83 100 107
187 195 195 189 183 187 207 195 206 200 203 224 248 235 241 234 238 248 259 269 277 308 379 448 396 397 182 130 288 295 218 205 191 183 171 196 191 130 90 150 180 189 205 193 89 110 195
202 190 193 188 182 188 207 196 207 192 202 223 246 238 233 259 241 253 260 266 280 306 372 447 394 388 441 97 129 277 217 213 195 189 178 181 194 184 196 98 188 187 184 192 183 91 188
186 189 193 190 181 198 207 201 206 194 204 217 244 238 233 212 244 253 256 268 280 308 369 393 406 404 418 359 103 263 234 197 197 193 190 175 194 157 190 183 122 187 182 163 174 183 163
184 185 192 188 184 193 206 204 196 196 207 228 239 240 230 245 241 255 260 264 284 311 375 360 416 408 387 338 272 144 251 220 198 201 193 180 179 183 185 193 187 191 116 192 180 185 181
192 190 191 189 187 194 206 204 191 199 211 230 219 246 232 244 238 247 255 258 278 310 367 368 408 413 383 321 94 174 264 222 207 199 194 185 197 154 177 182 193 191 197 191 194 203 177
173 184 188 189 190 201 206 202 189 198 214 238 238 233 232 235 244 243 249 264 284 318 357 389 400 439 376 263 269 223 275 222 210 205 201 142 166 162 174 148 130 145 182 191 206 170 173
168 194 189 187 154 202 207 195 192 196 213 254 230 248 237 231 231 233 251 269 284 324 362 369 394 144 99 139 98 228 310 225 210 198 199 124 87 180 109 184 187 184 179 197 135 172 183
185 185 190 183 158 204 206 191 192 197 213 248 229 237 230 231 227 236 239 257 290 334 344 363 443 422 404 256 241 232 304 226 206 206 198 184 144 186 172 177 187 181 170 95 178 168 203
184 212 197 185 190 207 206 206 191 199 213 240 190 230 227 222 227 238 243 256 290 356 342 363 461 459 235 253 247 224 300 136 213 207 139 184 189 195 181 175 179 178 130 174 104 185 116
191 184 200 190 194 208 206 193 193 203 216 242 198 235 227 221 225 230 241 261 289 356 360 391 503 456 229 242 262 220 304 247 218 213 148 192 188 195 190 110 184 181 143 190 174 180 170
224 203 199 192 198 209 208 189 195 206 218 252 230 233 229 218 226 233 241 254 290 366 386 459 526 319 230 257 258 213 305 281 227 214 196 155 184 200 90 178 93 165 182 178 168 92 164
226 213 200 193 198 208 206 190 196 210 217 254 228 233 228 218 225 237 245 255 301 379 387 458 401 239 246 251 226 215 246 308 227 218 150 180 147 173 194 192 185 169 179 173 189 192 177
175 217 200 193 200 209 203 188 195 211 222 257 224 223 207 226 224 233 241 257 294 292 241 252 238 207 221 247 283 215 205 208 313 226 208 193 156 159 183 178 174 177 183 114 83 178 166
184 207 201 195 205 208 203 191 195 212 214 261 225 217 200 224 223 233 243 255 236 203 223 232 217 238 197 217 232 241 205 219 197 343 226 200 188 177 166 172 160 168 177 180 172 183 137
211 193 200 196 209 209 202 192 200 212 221 259 233 227 228 220 217 231 240 216 206 203 204 202 197 195 236 235 243 255 261 259 199 197 289 203 201 192 185 177 180 172 176 171 163 174 184
216 196 196 197 203 210 203 193 202 213 223 240 240 219 231 217 215 222 236 210 204 197 196 195 187 192 217 232 245 259 267 327 225 198 273 270 199 194 193 191 186 186 192 194 169 194 184
224 200 193 200 198 210 205 194 204 175 220 206 247 210 191 224 220 218 235 238 206 201 195 192 190 188 194 186 230 247 255 258 248 205 211 264 246 196 191 185 159 194 178 184 181 189 177
217 204 204 203 196 209 205 194 205 212 220 231 181 229 214 221 224 219 219 230 231 204 200 198 197 151 191 191 188 214 237 255 259 246 207 236 246 217 200 192 195 195 184 184 189 188 181
216 219 210 194 207 196 205 190 204 211 224 225 173 240 218 218 212 84 232 219 222 214 213 203 195 201 199 195 189 185 196 226 246 249 253 257 200 217 215 203 199 194 197 194 193 199 171
220 205 191 191 153 164 201 198 205 211 175 214 216 249 224 213 220 218 222 219 218 223 230 199 205 198 186 198 200 201 191 180 211 239 238 246 250 247 189 187 193 192 194 190 179 154 185
211 205 204 193 154 151 160 201 203 209 212 236 330 178 228 229 217 219 169 235 226 224 225 222 224 193 206 205 195 196 199 200 192 184 207 227 224 209 207 201 196 199 180 188 175 187 182
199 208 197 193 155 152 202 211 204 207 217 213 192 265 207 234 224 223 218 218 222 212 226 227 229 223 224 223 201 205 203 199 195 196 194 190 182 183 183 182 178 179 187 182 186 184 190
215 210 203 196 220 162 202 217 195 213 210 217 354 190 253 230 232 226 223 159 205 218 201 225 223 222 212 220 229 233 226 195 195 196 196 196 201 195 191 189 185 200 197 194 190 194 199
202 215 203 195 197 195 208 206 204 201 207 219 234 294 192 205 248 230 228 227 226 221 223 219 220 220 226 230 213 218 230 233 230 230 233 217 215 153 141 200 198 199 202 198 199 184 189
177 179 207 204 195 201 184 148 178 206 206 213 221 279 285 193 188 243 231 246 232 226 206 215 169 122 223 218 211 223 227 228 231 218 235 229 225 228 201 198 238 198 132 128 239 131 243
205 191 220 208 217 191 200 201 148 204 204 213 213 217 304 281 253 213 232 237 233 237 229 225 224 160 121 137 216 209 217 215 220 220 227 225 218 140 151 214 217 128 132 222 127 216 150

GFSGBSN_2pvu_pres_009.txt.gz
Presure
208 212 207 218 214 201 183 197 194 198 180 149 204 222 212 208 233 250 225 242 246 231 227 232 249 260 282 320 351 393 231 280 205 193 189 80 189 182 125 159 216 142 205 71 175 85 84
208 198 222 226 215 206 189 197 202 189 168 211 206 207 200 215 245 237 252 238 229 242 253 231 233 290 318 409 404 404 346 264 258 201 195 180 179 184 195 182 159 173 143 136 156 97 186
208 218 212 222 206 208 191 193 197 173 205 207 211 200 205 208 244 227 242 219 214 251 253 257 285 303 383 386 401 417 415 246 290 214 198 189 179 183 188 194 184 92 226 85 89 225 92
221 206 208 220 209 205 198 193 198 194 205 210 213 202 206 216 243 235 233 231 240 249 250 250 298 386 374 421 407 411 424 229 286 223 200 191 191 179 192 199 203 202 105 191 93 132 141
220 216 205 222 211 199 190 192 189 193 206 209 212 209 211 216 243 243 236 231 252 257 278 291 324 393 396 426 392 379 399 240 280 225 206 197 195 185 131 166 199 208 208 153 121 89 101
199 232 221 217 202 203 180 191 199 193 208 206 195 206 216 242 229 231 240 230 251 266 280 291 344 387 414 393 390 387 380 246 280 227 214 202 194 186 167 141 108 192 196 193 197 168 194
121 149 185 213 202 203 183 188 146 195 209 205 196 204 211 244 221 240 241 245 247 263 282 287 339 367 379 396 396 392 84 249 284 227 216 202 191 190 78 193 189 98 192 199 189 189 187
220 228 181 193 202 194 182 189 146 195 209 197 197 204 214 238 242 230 239 237 252 266 278 298 334 342 386 398 393 389 346 252 286 168 217 207 193 179 169 170 191 199 123 110 186 153 191
228 161 219 214 200 198 199 189 193 197 209 199 206 206 231 244 229 235 234 238 254 266 271 296 337 335 400 402 390 377 323 242 284 231 218 91 185 180 171 168 187 193 191 186 186 137 179
234 229 152 214 162 204 186 189 192 201 209 198 216 209 244 234 231 230 235 240 255 267 284 307 346 324 420 382 385 367 315 229 283 189 216 202 190 183 179 181 182 184 194 188 80 178 123
168 229 210 216 205 196 178 197 197 205 211 196 217 212 246 231 228 228 236 242 255 259 278 348 350 341 431 376 373 275 323 229 279 226 217 199 137 180 184 178 170 185 194 189 188 89 179
240 234 176 198 208 202 193 201 199 206 211 197 206 214 249 231 227 228 242 244 253 259 296 347 355 357 74 105 304 319 298 229 277 227 172 169 194 140 155 187 179 186 198 195 191 185 164
145 244 172 220 217 189 195 195 199 209 202 204 204 217 241 231 223 228 236 250 257 268 351 358 367 438 420 370 247 302 269 257 280 229 215 178 76 188 181 186 118 183 170 171 176 196 105
145 225 157 200 217 199 198 195 199 209 195 219 212 233 239 217 225 230 240 259 264 321 372 388 443 473 384 374 118 102 101 262 186 226 213 201 193 183 163 81 178 170 168 190 177 166 179
241 219 173 179 225 192 199 198 202 211 193 208 217 257 232 216 230 231 245 264 281 348 391 423 513 408 403 354 249 276 238 270 279 225 216 100 194 178 181 180 177 177 173 88 177 166 185
217 148 226 232 237 219 201 200 205 184 192 204 216 257 234 224 232 230 248 264 294 352 391 471 381 373 393 241 263 282 226 247 281 223 208 192 198 186 186 183 180 182 181 173 167 171 184
255 188 235 214 227 195 199 201 209 211 189 202 216 255 237 226 233 230 247 272 233 240 325 357 360 202 207 220 224 218 215 279 321 223 208 196 198 178 186 171 144 186 185 145 178 150 135
269 221 207 216 205 197 199 200 209 211 196 210 218 253 237 225 221 226 246 209 223 227 225 224 205 225 227 237 255 261 199 226 307 233 208 199 197 191 158 182 188 188 190 177 175 177 177
266 226 224 201 223 202 200 202 211 211 201 211 214 253 239 231 226 227 224 202 215 217 214 201 154 203 226 251 258 255 206 206 296 301 213 201 201 199 189 178 151 193 193 193 192 168 179
210 232 225 196 204 205 199 203 212 206 204 212 198 235 240 223 230 229 236 198 203 208 212 208 209 198 195 214 233 250 205 199 224 337 302 219 207 200 194 179 149 161 176 183 176 165 176
257 235 234 196 203 207 202 205 213 204 204 172 192 240 243 224 229 229 231 206 201 201 200 201 196 194 219 234 240 249 253 206 212 226 231 342 218 211 202 191 187 179 168 160 167 177 158
261 252 225 214 220 208 203 207 212 195 205 168 212 228 247 235 228 226 220 235 198 196 197 193 190 144 198 220 247 259 261 309 301 207 204 198 251 236 217 204 197 192 187 188 184 169 171
250 242 167 233 206 201 207 201 215 198 208 215 219 228 256 229 233 229 229 222 234 206 195 196 190 190 199 196 186 220 252 256 305 288 270 204 198 204 270 268 202 196 195 192 192 192 187
257 251 161 233 209 211 173 162 211 198 215 176 218 192 274 236 228 237 221 221 226 231 217 218 196 194 187 184 191 185 181 224 247 253 258 237 202 204 263 265 259 231 200 190 186 185 187
264 240 237 221 209 206 178 170 161 202 214 217 195 204 206 242 223 227 214 218 230 225 205 234 202 202 198 203 196 185 181 178 181 227 240 244 250 204 261 263 259 238 228 206 199 195 189
294 247 237 199 208 205 208 156 168 203 214 211 209 230 279 204 228 230 227 229 119 209 213 228 227 232 200 205 203 200 198 186 189 179 185 200 242 250 247 243 210 191 192 184 190 185 204
294 230 231 212 205 209 176 152 212 202 211 205 209 226 190 194 204 236 224 229 211 219 209 220 229 228 230 229 222 204 203 204 194 193 198 188 186 187 203 209 219 220 194 198 196 187 188
286 237 231 192 185 213 200 179 207 203 209 222 213 224 312 282 243 235 234 223 216 201 212 210 207 157 222 221 222 221 232 238 225 196 197 197 202 196 188 184 168 137 188 187 184 164 155
176 257 232 216 185 199 219 206 210 216 209 219 212 216 229 287 258 238 242 225 225 222 220 231 221 221 219 195 226 227 227 217 219 232 244 237 239 218 209 194 128 198 149 169 132 138 133

GFSGBSN_2pvu_pres_012.txt.gz
Presure
171 184 155 200 210 217 211 192 214 224 208 202 195 198 198 182 215 213 211 229 228 246 250 238 230 232 237 240 239 255 260 271 275 227 248 208 200 191 194 188 103 114 113 215 195 163 208
230 138 223 213 205 219 209 214 212 223 208 202 201 196 203 200 222 212 208 213 250 233 233 229 237 238 233 245 246 246 256 265 278 261 241 244 199 191 183 195 112 123 166 197 102 83 88
231 226 225 220 214 216 218 214 213 205 208 201 198 197 198 205 217 212 225 208 234 228 231 236 230 227 224 262 275 253 290 316 261 290 216 243 206 90 190 188 187 75 194 78 87 81 113
249 235 232 221 215 224 222 219 207 214 211 183 192 197 198 203 209 208 231 238 245 228 224 228 226 238 263 259 301 306 419 409 285 307 330 239 268 200 177 194 187 189 181 162 216 89 104
153 161 238 222 177 208 197 218 210 212 209 167 193 190 199 211 190 206 211 240 239 226 225 233 245 260 268 278 305 355 380 388 382 233 313 234 269 209 193 190 178 191 180 162 193 86 140
238 246 118 175 223 150 205 218 213 214 204 178 170 202 195 213 203 220 209 246 233 224 236 239 250 268 268 287 323 378 369 433 430 410 390 242 272 209 195 187 181 156 179 198 204 202 202
254 250 240 158 236 218 181 207 218 204 204 183 189 200 202 216 208 231 211 238 231 236 234 247 257 268 280 298 349 365 388 389 403 405 383 239 275 217 75 179 186 184 186 197 211 217 90
321 249 243 237 236 178 196 219 214 196 201 199 192 200 204 196 210 218 231 233 233 231 244 253 258 280 290 308 346 345 395 381 262 392 370 237 279 215 195 182 188 179 179 194 195 197 199
325 147 225 248 236 229 224 205 212 210 201 185 194 195 207 197 210 213 236 234 230 236 252 259 275 277 291 349 345 408 393 108 367 379 339 241 270 212 195 189 187 176 173 116 206 203 196
302 144 171 240 232 202 197 217 212 197 200 195 201 198 207 209 227 224 235 234 233 241 251 267 275 289 335 343 348 421 401 361 362 379 280 103 274 124 194 192 186 187 176 196 162 116 190
296 297 285 183 242 226 171 224 217 202 196 202 200 207 192 207 212 240 235 230 238 246 265 271 285 334 350 347 391 408 395 359 350 332 247 230 240 211 201 189 182 182 191 185 191 192 195
297 293 300 279 251 230 217 224 222 203 196 184 198 208 201 215 153 238 231 235 244 257 262 286 315 346 346 350 396 396 194 344 335 339 143 273 209 207 196 191 185 188 166 176 190 189 186
303 309 288 300 286 248 232 215 218 200 196 200 201 189 202 216 227 237 230 236 245 272 280 305 340 352 359 414 379 383 344 332 333 248 271 257 212 192 152 194 190 115 167 172 188 184 189
314 301 293 296 287 245 196 209 215 193 201 198 207 204 201 209 240 236 235 239 253 272 286 358 358 413 427 337 323 82 330 326 289 235 266 223 216 204 197 107 186 83 102 186 182 175 184
307 288 295 293 250 242 167 167 222 202 185 200 211 204 208 213 243 233 235 246 256 259 301 370 440 471 382 352 359 339 321 307 240 249 261 219 211 95 198 191 144 166 182 83 173 180 184
252 303 295 283 247 236 224 173 202 204 196 202 211 199 212 217 243 233 238 246 233 260 337 362 372 395 368 353 348 324 307 292 238 269 263 215 188 201 190 196 189 170 88 151 173 179 170
315 252 286 187 222 242 224 188 201 204 197 205 207 204 213 240 240 232 236 217 226 237 311 357 375 358 368 365 337 326 326 238 232 272 261 205 212 194 197 193 183 178 175 181 184 174 174
315 296 284 260 242 229 218 220 205 203 200 208 204 208 216 243 236 231 208 217 212 223 211 217 220 229 230 346 345 354 241 221 237 275 252 206 202 197 199 190 187 191 192 189 171 181 176
297 268 279 260 265 239 229 235 204 202 204 171 201 210 217 247 236 229 208 215 214 213 213 199 202 222 230 255 234 257 269 225 260 269 256 201 199 195 155 196 194 190 180 185 180 177 177
304 292 282 259 237 242 233 210 206 201 207 206 185 209 217 247 234 232 205 213 208 212 202 197 199 197 221 242 250 254 213 221 256 264 250 212 203 201 195 192 154 179 150 175 176 176 184
311 173 279 259 239 245 224 212 205 203 210 205 177 192 215 247 234 232 210 97 207 163 207 220 224 232 239 254 259 232 211 210 265 292 278 216 203 197 196 195 186 185 185 179 177 181 183
301 290 279 278 164 232 214 212 205 203 213 210 172 213 219 244 239 239 233 199 205 207 203 199 195 215 217 232 255 266 205 201 255 303 314 224 205 201 199 196 195 186 161 176 177 177 182
133 140 290 277 243 210 198 214 203 209 214 204 176 202 219 245 241 233 236 224 200 202 203 201 203 197 196 236 238 248 200 205 201 250 329 292 215 205 200 196 195 194 182 168 171 165 172
296 261 239 271 239 236 218 215 212 202 213 203 209 212 220 226 242 237 235 235 212 200 199 200 200 197 214 220 235 251 255 255 212 199 195 323 332 224 211 201 193 144 193 189 182 182 169
159 269 282 277 231 216 205 216 214 162 214 204 205 172 218 226 249 233 235 237 232 199 199 194 193 191 192 203 207 215 247 268 297 293 239 197 212 304 288 217 209 209 207 201 194 191 189
295 127 208 269 233 231 212 216 215 219 162 204 182 191 178 222 248 235 235 232 231 230 202 197 198 192 191 197 185 185 206 214 245 248 287 281 259 207 199 191 191 235 212 212 209 206 199
301 292 272 268 241 229 223 212 152 158 199 204 209 185 217 213 218 241 236 226 208 230 101 211 198 195 195 187 187 191 198 188 193 214 232 248 247 272 201 193 195 195 263 265 260 259 260
296 288 258 269 240 232 212 216 215 158 157 209 205 209 212 196 199 245 224 229 231 232 225 225 90 206 197 203 204 189 190 185 181 182 188 210 221 225 231 233 229 240 243 192 244 181 187
293 288 275 265 242 176 209 210 215 147 158 204 205 205 220 228 190 258 226 227 230 228 224 223 223 224 219 92 217 194 101 203 200 191 194 179 179 184 198 212 217 226 231 228 188 141 218

GFSGBSN_2pvu_pres_015.txt.gz
Presure
242 239 238 233 167 205 221 207 214 221 202 206 184 212 215 187 209 198 196 203 153 198 225 228 209 263 253 246 239 243 248 238 226 253 263 263 207 243 201 194 194 133 81 197 194 219 104
264 242 243 236 232 229 222 219 211 207 214 218 215 216 215 198 203 196 195 191 198 218 207 240 214 251 241 236 237 241 231 238 242 195 256 261 263 226 250 124 198 136 152 118 195 219 195
299 242 238 237 236 223 227 223 226 219 194 185 213 216 212 203 204 193 189 199 194 191 209 235 227 251 236 230 228 227 229 232 231 240 249 256 261 231 232 235 196 187 187 109 93 190 206
288 298 267 240 242 208 219 217 218 227 204 207 211 219 209 222 170 195 187 200 211 208 210 214 236 247 225 227 225 229 231 229 230 237 254 265 235 271 223 250 200 196 206 98 112 106 107
196 254 278 276 232 193 157 177 209 225 207 207 206 205 211 221 198 194 188 195 213 204 232 215 242 235 226 226 233 233 239 250 262 262 258 274 272 307 260 234 223 204 197 180 128 172 97
199 153 156 273 297 243 193 161 236 236 212 213 220 216 223 200 186 195 186 198 205 206 219 224 238 229 227 224 239 246 264 283 286 295 307 377 370 353 314 224 255 200 194 187 188 191 157
215 222 222 209 271 300 254 238 152 233 230 207 199 230 217 198 188 196 191 206 206 221 214 240 233 224 230 243 250 261 291 293 296 361 354 359 390 422 321 226 247 202 199 190 183 190 187
217 229 232 221 267 311 279 248 242 219 222 210 216 207 198 196 204 202 197 207 208 214 235 237 225 232 238 246 266 290 285 295 354 339 371 394 394 408 332 107 246 189 197 188 184 187 178
225 231 195 213 278 292 302 269 240 245 230 216 221 218 195 194 193 201 207 202 230 220 248 228 232 242 243 271 283 285 311 346 339 371 398 389 449 464 335 233 251 196 192 190 155 175 180
229 237 240 256 295 233 143 260 240 251 156 208 207 201 194 209 200 198 204 206 216 242 245 234 239 242 262 276 288 316 68 345 352 397 374 379 401 385 131 230 255 205 190 190 189 174 180
256 259 346 311 297 299 319 178 244 242 160 150 209 204 195 189 200 205 202 214 228 245 239 244 244 253 279 286 312 346 341 345 421 344 372 401 357 392 334 227 257 204 191 185 81 177 179
366 407 387 361 317 300 296 286 259 253 233 178 218 202 193 202 201 205 200 215 248 239 235 246 254 281 290 305 335 344 354 456 364 366 374 129 87 368 323 238 234 206 188 193 177 178 175
381 372 384 381 338 303 284 293 272 251 228 219 227 193 197 195 207 202 210 237 244 233 242 241 260 287 311 333 362 361 396 363 363 312 313 339 367 363 227 251 212 155 190 191 175 175 180
389 350 331 361 369 305 279 282 271 241 229 227 217 189 200 201 207 201 217 251 242 226 235 256 283 319 334 397 371 369 424 363 310 306 316 244 346 260 223 238 215 112 190 183 180 164 183
377 346 351 336 357 301 283 286 275 241 188 226 197 197 198 201 202 213 243 246 227 233 243 266 319 341 374 420 321 288 352 323 306 308 323 324 265 224 210 218 210 202 188 163 164 167 170
364 329 337 347 312 295 281 283 280 216 214 218 181 196 202 205 197 219 252 217 224 225 236 272 337 336 372 356 369 331 339 309 309 331 342 298 224 261 236 210 207 138 150 185 164 174 173
366 336 333 344 209 291 293 287 274 246 226 191 199 199 203 202 213 232 250 217 210 221 218 220 346 343 345 371 327 312 320 317 322 294 252 214 226 191 124 86 197 190 173 137 113 168 170
355 329 324 331 305 304 283 290 253 245 198 205 191 206 202 205 217 250 242 210 212 209 210 218 236 352 357 352 318 319 341 324 296 251 232 116 225 232 209 204 195 189 191 190 179 172 174
333 346 334 304 306 294 297 278 253 245 173 208 198 183 201 207 218 250 215 209 210 200 216 224 227 333 351 359 334 323 317 294 265 238 228 213 239 218 112 193 201 186 183 153 188 177 178
347 346 298 311 297 292 291 247 243 233 204 207 208 192 208 210 221 242 228 209 205 204 203 221 234 221 322 302 303 300 275 259 240 236 233 242 168 179 213 200 158 179 187 190 190 178 175
333 350 321 305 300 290 261 252 244 215 216 206 209 208 204 215 227 241 228 210 209 205 198 211 222 237 216 280 308 278 265 210 212 193 263 257 228 204 204 184 192 195 192 175 179 189 183
332 201 320 200 295 275 259 239 251 235 214 206 205 205 204 217 227 240 231 210 205 211 201 197 179 218 238 252 220 224 216 214 215 234 240 246 209 201 192 193 192 193 191 175 177 177 176
327 324 314 301 288 258 244 246 228 225 211 206 203 205 209 210 230 239 226 205 204 207 214 217 222 232 242 248 254 252 223 216 224 264 257 246 210 201 198 199 195 181 182 181 181 182 172
345 321 309 254 203 258 259 252 230 216 211 210 207 206 184 220 231 243 235 203 206 207 205 198 152 220 226 237 246 224 211 205 223 259 269 270 236 204 199 195 192 185 188 185 183 181 179
350 320 309 294 143 256 270 245 230 213 204 214 209 208 188 219 226 248 229 199 201 202 205 198 191 205 228 235 235 242 246 197 196 265 290 265 278 210 207 197 188 195 195 186 186 186 183
306 331 299 279 137 186 267 234 230 214 209 216 209 215 212 221 223 245 235 233 198 203 202 201 199 208 215 197 236 241 293 249 251 194 195 322 332 262 212 201 199 198 190 187 186 191 188
306 331 296 285 132 257 248 218 226 210 208 161 207 217 198 199 223 244 234 231 234 199 205 201 199 202 201 198 181 224 239 243 280 230 194 207 262 301 317 224 207 203 198 192 194 189 189
310 330 298 285 226 254 243 222 228 209 209 215 163 210 206 186 196 248 238 230 233 229 200 209 198 200 193 192 161 111 214 226 244 244 246 293 199 195 215 249 295 225 209 202 196 197 195
318 327 296 291 277 265 242 180 226 216 211 205 204 220 190 212 214 243 248 229 230 229 221 222 204 192 193 193 190 195 192 186 190 217 240 241 242 247 227 204 215 292 282 266 254 151 255

GFSGBSN_2pvu_pres_018.txt.gz
Presure
198 249 307 273 270 248 200 180 227 218 221 219 209 209 217 198 185 203 212 229 217 224 214 206 197 196 203 215 178 244 215 267 262 263 262 262 266 258 253 225 248 210 198 78 113 153 119
209 212 265 272 282 268 236 199 226 230 218 213 209 211 224 201 208 212 217 230 217 214 209 199 192 190 197 186 215 229 217 256 250 250 251 251 259 260 267 243 231 251 144 163 194 191 110
229 203 212 223 314 279 243 216 239 214 217 225 225 228 228 208 203 220 217 221 209 223 209 196 186 171 207 211 224 212 256 254 248 246 245 244 245 256 265 275 216 239 210 104 97 87 110
225 215 200 184 210 237 272 261 235 230 217 216 219 226 222 225 211 207 199 215 213 211 202 200 189 197 212 212 228 218 254 246 231 235 234 240 246 249 255 261 270 217 248 207 132 188 165
225 217 210 219 213 209 203 238 252 230 166 214 191 220 223 221 222 206 201 212 214 206 201 199 190 199 208 206 215 236 239 233 229 232 225 230 241 248 253 255 266 241 235 236 203 148 156
236 206 211 217 201 215 198 152 199 262 248 230 229 230 228 229 195 211 205 220 227 208 195 200 195 206 202 212 226 237 232 227 225 229 232 235 242 249 256 244 182 273 214 240 205 74 155
209 229 232 218 218 189 212 219 222 208 218 288 241 229 229 230 226 215 205 208 221 209 198 203 201 202 211 222 241 231 229 231 235 235 230 240 252 261 258 272 283 281 304 236 228 205 190
219 223 234 224 195 221 237 224 217 217 226 247 286 181 195 237 160 219 209 169 197 205 203 195 203 207 218 245 235 231 236 238 239 234 244 265 285 288 298 309 316 292 306 222 247 212 198
237 226 229 228 235 234 216 228 228 221 230 239 293 276 250 238 242 220 213 155 205 211 199 199 203 211 237 241 232 235 242 241 243 268 291 291 248 332 347 356 347 316 315 248 242 221 198
231 231 226 227 229 236 180 232 236 236 163 243 280 274 262 243 222 217 227 197 207 201 210 191 206 226 244 236 232 237 247 258 283 299 299 331 344 340 348 356 362 387 391 300 236 240 204
238 232 231 236 241 248 251 251 247 252 248 255 275 274 197 232 226 229 220 205 206 202 201 211 226 249 239 234 243 257 279 296 306 312 326 338 338 363 415 423 421 460 377 332 231 242 202
261 265 269 349 401 382 358 322 283 277 296 279 152 280 262 154 216 218 214 208 202 206 206 227 255 237 235 252 266 279 294 310 318 331 347 351 382 392 387 387 284 320 286 289 229 246 204
493 495 500 519 399 382 375 408 320 305 295 277 289 280 256 246 223 208 209 201 204 205 221 253 234 237 255 265 285 312 325 345 374 369 266 378 387 357 352 413 381 278 221 236 237 236 193
572 469 483 450 414 361 358 361 364 312 293 276 297 277 241 220 221 222 201 204 203 214 239 234 229 223 249 280 320 340 399 385 386 463 333 345 322 110 367 394 298 274 276 220 240 221 194
583 489 469 461 340 349 348 348 380 318 282 278 288 274 248 228 226 203 202 202 209 226 236 224 215 227 270 318 345 389 381 329 333 315 319 319 344 361 93 315 275 264 232 225 236 203 189
499 518 440 367 353 347 331 332 326 325 279 291 275 265 163 233 215 200 207 208 217 249 219 221 219 243 307 349 369 392 320 323 319 307 315 336 366 336 270 267 259 260 168 219 100 198 184
534 504 445 365 342 330 320 329 349 299 286 287 271 232 212 227 200 207 202 210 238 221 216 214 220 251 308 396 394 261 305 304 237 256 346 309 275 288 269 260 251 225 181 225 206 194 185
472 412 348 336 326 314 341 331 151 283 228 279 270 228 178 210 204 204 211 219 242 215 211 220 228 279 365 340 322 235 309 309 336 342 304 281 269 282 268 241 231 218 117 232 210 185 186
444 375 342 323 326 335 320 339 293 283 283 275 238 238 216 208 167 197 211 241 218 215 210 218 233 291 360 333 305 318 327 319 284 243 262 251 268 259 254 211 227 180 235 213 177 180 180
484 367 337 325 322 338 325 302 286 285 280 256 240 226 208 214 206 210 216 250 215 215 209 217 237 244 361 337 322 284 287 309 269 241 264 257 253 257 241 171 212 212 216 207 102 186 184
433 354 335 333 328 333 315 294 289 285 286 241 230 208 209 205 199 210 228 238 217 213 207 217 235 235 288 347 293 254 273 273 271 274 264 208 209 204 231 201 241 228 208 141 196 195 187
423 350 337 334 324 335 302 150 282 293 266 243 227 189 216 207 209 215 243 218 216 210 202 212 225 234 271 348 303 258 272 266 141 270 153 197 201 189 220 262 233 214 198 195 167 103 186
481 379 341 314 327 308 192 299 300 274 247 231 221 190 212 201 212 217 246 210 216 213 202 207 220 234 98 257 268 254 280 253 206 181 238 237 203 194 255 228 214 203 203 187 187 188 184
532 349 337 313 326 305 295 285 281 252 241 226 217 217 210 201 216 220 247 209 217 210 206 199 221 228 238 207 235 249 201 219 225 223 210 223 219 277 278 221 211 203 195 194 172 175 173
401 350 346 328 316 298 158 303 258 246 233 215 224 215 208 217 190 222 244 209 216 207 206 203 213 224 235 245 240 212 199 202 206 206 215 248 266 270 225 203 194 199 187 190 189 186 186
377 356 336 335 306 293 216 237 252 235 230 204 218 189 205 218 220 226 245 234 211 209 201 203 205 216 218 236 248 257 241 211 212 233 234 242 253 247 226 194 193 202 192 189 185 185 185
378 364 338 306 309 298 281 153 247 236 221 205 203 190 216 220 217 229 240 230 210 211 203 204 186 210 228 234 232 243 228 203 208 211 247 253 257 248 233 207 194 200 194 185 190 188 187
362 354 323 311 306 285 133 138 246 238 225 206 217 210 210 217 221 237 236 233 230 232 208 201 204 196 207 222 232 236 265 282 262 196 200 223 289 259 272 231 203 197 194 190 187 186 183
359 347 337 298 305 279 252 130 227 235 229 197 221 200 210 220 221 223 236 238 228 233 208 206 198 202 203 198 220 226 133 238 241 217 203 202 204 282 304 315 328 205 200 196 190 189 186

GFSGBSN_2pvu_pres_021.txt.gz
Presure
268 237 223 217 216 240 307 282 256 240 248 198 230 220 212 216 203 203 202 202 208 203 223 206 206 221 218 231 217 205 202 203 214 199 228 259 235 229 279 278 291 241 238 243 89 210 127
268 242 226 223 205 215 245 273 237 250 236 243 202 226 219 217 211 206 211 208 199 197 204 210 205 210 217 224 212 204 199 199 210 218 144 169 229 275 267 270 278 281 242 230 122 203 176
259 244 245 219 225 205 210 241 294 265 246 232 244 233 223 218 218 222 216 215 216 210 186 211 221 223 210 223 205 205 195 195 196 224 217 226 260 267 263 260 270 274 279 239 223 99 226
267 255 246 237 229 216 209 210 220 294 285 252 232 231 223 222 221 223 223 219 216 220 229 221 221 192 218 213 224 201 194 196 197 216 213 234 266 260 253 258 259 259 268 271 218 226 249
273 260 241 244 240 225 216 213 211 209 216 278 269 244 227 127 220 213 215 227 214 215 207 213 212 203 215 206 227 200 195 197 212 213 223 257 256 251 241 244 246 252 258 268 263 218 251
267 265 249 254 230 245 229 210 223 208 223 168 207 252 271 252 226 233 233 231 223 224 219 195 207 215 219 212 210 191 191 205 211 213 223 250 243 232 229 231 233 242 252 256 259 260 229
283 267 253 207 212 206 194 230 232 187 215 210 204 227 212 217 270 251 238 227 223 207 215 215 213 214 217 204 208 201 201 208 208 218 244 244 233 232 236 238 241 248 253 257 262 266 222
237 245 230 216 224 216 212 201 234 218 236 230 238 211 213 213 219 198 270 268 231 197 222 204 209 207 224 221 214 198 207 203 216 225 243 239 233 237 241 245 249 206 250 255 261 267 213
238 243 233 232 237 237 230 234 233 230 224 218 236 221 197 210 232 233 247 159 264 234 230 205 213 215 207 223 201 204 202 215 225 248 240 237 239 240 241 246 247 245 251 250 261 277 287
251 249 241 237 232 229 233 237 240 229 219 216 225 229 231 208 235 232 249 287 270 244 244 221 199 215 214 201 206 205 219 230 252 239 238 232 240 244 249 259 260 272 283 286 286 289 260
228 235 232 238 238 238 238 238 241 241 238 237 221 229 233 236 236 239 253 281 193 242 234 208 212 214 191 207 201 221 228 252 234 240 250 251 260 283 314 311 306 310 304 305 297 290 296
253 260 272 347 351 337 256 246 246 250 242 241 239 241 193 224 241 241 259 279 190 250 220 219 216 193 204 205 221 231 252 236 233 249 282 297 324 315 308 307 313 317 325 334 358 337 302
495 484 475 473 469 462 478 427 403 266 255 250 246 251 259 261 262 248 265 276 256 241 229 223 205 208 212 226 236 238 225 222 271 285 323 325 323 325 326 329 335 348 367 374 366 198 335
464 553 542 533 518 444 459 426 364 378 385 351 338 302 290 280 277 272 288 267 245 226 227 207 212 216 228 240 233 222 262 295 350 368 392 377 379 365 357 373 384 399 413 404 372 418 297
572 537 515 493 533 436 431 396 359 362 351 349 324 322 305 278 272 269 285 248 231 232 206 212 216 228 240 218 216 277 377 385 400 382 380 373 381 389 367 370 387 387 431 449 413 288 285
575 524 523 470 459 453 378 354 340 338 339 348 361 321 296 282 272 290 283 230 228 211 211 209 226 238 210 221 269 392 417 397 331 330 328 331 347 356 309 308 364 335 367 347 274 265 208
563 540 477 481 434 451 370 337 337 333 324 344 332 337 299 198 287 217 227 225 223 205 207 226 235 214 219 249 337 371 334 332 324 324 327 343 336 291 157 88 284 298 309 266 259 261 224
561 528 459 433 405 354 338 333 317 334 324 306 340 314 277 271 271 195 230 224 206 208 221 236 216 219 233 274 348 315 317 310 320 341 342 330 270 267 266 263 261 99 251 239 172 252 234
557 507 508 421 365 341 333 324 333 318 205 306 315 277 297 285 223 198 222 205 210 216 232 210 207 222 248 339 318 317 323 324 296 315 125 269 261 257 261 256 261 244 247 257 255 252 216
563 517 436 354 351 335 322 316 321 315 306 248 285 287 288 234 232 217 165 206 208 226 247 207 214 226 259 333 316 319 87 280 282 268 257 239 216 254 240 241 256 255 242 243 233 217 217
603 399 425 343 345 324 326 322 319 322 326 290 283 281 234 232 224 208 206 216 218 243 213 207 226 226 257 350 242 286 278 276 278 163 247 171 248 124 247 245 238 249 206 230 222 216 234
650 413 372 353 341 326 335 316 331 311 290 285 279 253 235 226 214 212 211 213 231 239 208 208 221 229 251 329 244 272 294 294 206 249 248 243 243 238 232 250 242 253 239 185 239 229 232
616 385 353 342 333 334 319 317 302 188 293 283 265 236 230 221 213 212 212 217 241 222 209 213 218 234 245 263 289 259 234 166 249 248 221 222 193 261 225 202 247 236 264 216 259 143 217
606 381 355 344 323 327 315 307 297 293 281 273 249 234 221 213 215 215 218 230 239 214 207 209 224 231 237 226 270 257 263 193 197 158 181 192 190 250 149 238 242 212 225 253 251 228 205
462 364 355 342 330 304 310 307 297 216 273 250 237 229 221 215 197 214 216 241 225 213 211 205 220 230 234 231 255 211 270 257 254 215 201 182 219 251 199 259 216 211 235 286 234 206 178
429 355 356 337 315 320 306 303 297 284 264 249 232 219 215 195 216 199 219 241 219 213 209 210 211 228 233 237 210 234 198 205 236 268 171 213 210 206 258 199 224 233 267 230 192 189 178
410 585 353 346 319 317 309 312 289 276 257 240 225 219 204 189 212 222 226 235 220 212 208 208 210 217 232 236 239 210 205 207 210 211 218 225 256 220 221 242 221 284 228 201 195 184 188
538 433 366 318 321 311 309 299 281 141 256 237 220 218 211 219 213 212 195 234 228 216 203 209 189 208 222 225 234 259 247 220 212 205 215 228 239 246 253 249 269 244 199 200 194 187 186
589 402 392 313 325 304 312 300 277 133 245 234 221 205 223 220 215 212 246 235 234 222 209 207 205 198 204 229 227 232 287 206 203 208 212 222 247 245 252 250 262 237 199 195 196 196 187

GFSGBSN_2pvu_pres_024.txt.gz
Presure
301 326 302 293 278 267 249 230 220 217 261 300 278 256 251 245 230 224 217 211 215 204 204 204 197 201 211 209 219 219 219 220 224 213 222 208 195 184 206 218 217 230 244 231 232 243 235
311 310 300 285 268 269 250 228 223 220 256 253 280 262 249 243 233 228 222 217 213 211 195 198 198 206 216 198 198 214 211 222 225 236 221 215 213 208 207 212 221 246 238 276 288 281 243
306 306 291 284 266 257 246 240 225 214 227 260 262 243 243 240 231 228 220 218 208 204 209 209 197 197 199 211 196 205 235 215 226 225 223 215 203 204 204 200 230 239 239 282 276 268 295
308 283 283 281 267 257 248 239 235 225 214 231 287 260 243 233 239 234 229 224 223 214 212 207 205 203 214 216 218 222 214 223 230 222 233 214 216 198 199 202 218 231 277 277 274 276 280
303 311 288 277 269 264 255 246 223 217 221 217 232 281 265 222 241 235 236 127 225 213 211 216 211 212 211 205 215 222 217 230 201 224 219 227 212 207 196 206 216 245 269 261 255 258 268
303 292 292 301 274 247 265 254 243 248 225 211 204 217 256 269 257 239 227 201 146 200 225 219 216 215 207 221 227 220 220 223 212 226 226 228 213 201 195 219 218 258 265 260 233 208 264
289 230 229 269 270 289 275 241 260 259 242 217 221 209 200 216 297 279 245 234 227 222 222 219 210 212 217 222 230 215 222 216 209 224 219 233 206 200 212 217 228 260 252 246 239 239 250
236 242 234 233 267 262 218 219 242 250 210 232 226 226 216 205 161 211 227 288 255 250 248 244 231 228 225 217 221 232 222 217 227 216 236 225 210 207 211 220 227 255 248 239 237 239 242
254 249 253 231 229 232 223 256 232 214 235 209 222 233 226 207 209 200 201 209 206 216 215 182 260 258 230 225 221 226 232 217 219 226 219 224 215 209 215 226 240 248 241 237 238 242 248
233 234 228 243 219 235 250 237 236 229 226 231 225 207 229 218 193 238 231 207 211 215 231 211 222 252 263 252 231 230 236 235 221 221 221 218 208 216 226 240 254 248 237 238 243 245 250
242 251 260 256 313 272 263 248 252 243 240 226 223 225 233 228 211 197 220 215 212 196 225 218 237 278 271 261 244 237 247 223 225 222 209 213 222 194 242 248 239 234 239 240 243 247 249
236 251 506 492 485 485 487 495 367 260 253 251 241 228 238 229 220 215 221 222 226 215 224 227 233 280 267 254 238 242 238 227 216 212 223 232 239 240 239 227 221 232 231 245 253 258 274
242 490 477 568 540 540 564 471 491 452 267 250 250 241 238 233 224 235 230 231 206 220 238 236 269 282 261 240 240 234 230 220 214 228 241 226 232 229 233 236 244 247 246 260 281 285 197
483 468 567 554 520 515 519 472 463 484 452 295 266 249 237 229 233 236 237 235 189 233 245 254 287 259 244 239 230 232 209 219 237 245 225 240 250 337 341 340 330 327 330 337 261 289 337
460 636 564 499 468 459 498 443 458 482 387 390 398 350 275 257 241 243 239 241 233 249 270 292 264 243 235 230 218 213 233 243 221 241 286 401 387 366 364 331 335 332 332 311 317 322 318
457 635 505 478 460 452 505 438 439 427 362 343 365 370 312 340 280 261 250 242 255 270 305 266 245 233 231 218 225 239 221 233 300 375 367 374 376 372 372 373 364 373 379 351 348 337 354
553 625 485 469 444 448 466 411 381 357 357 340 313 309 325 327 339 294 296 289 265 282 270 240 233 229 207 236 223 223 237 352 344 354 353 346 347 343 347 347 349 364 391 411 416 429 447
615 630 484 464 481 437 442 420 377 356 335 346 342 311 300 323 357 338 303 266 284 285 238 232 224 212 237 212 225 241 342 352 363 304 291 296 308 308 290 294 294 306 292 283 297 301 288
602 652 505 446 423 452 350 348 337 341 341 337 313 299 292 330 336 308 267 286 247 237 232 222 219 237 211 222 271 337 332 301 289 274 272 271 273 273 263 263 262 265 260 270 265 231 271
609 616 533 428 439 442 358 337 338 331 330 329 340 258 324 326 295 276 274 246 235 212 217 222 235 216 212 244 353 324 281 278 269 235 259 260 168 195 250 249 240 258 245 247 197 168 255
620 606 473 379 361 355 349 339 319 326 310 337 321 320 318 272 270 267 243 237 227 216 221 232 249 213 236 342 305 294 261 256 243 247 242 258 247 247 248 164 240 233 256 243 254 267 250
631 573 408 398 363 341 335 313 308 323 317 347 315 306 278 269 256 242 236 225 212 220 229 246 208 221 294 293 317 181 254 241 237 250 237 242 237 232 240 236 231 233 245 255 242 267 284
630 389 385 373 349 321 324 322 303 307 313 301 291 284 270 252 242 237 227 207 224 228 240 218 217 238 309 318 259 266 255 256 231 241 235 232 232 233 233 225 235 232 232 231 255 237 189
632 478 378 371 339 331 323 313 314 315 326 277 290 269 251 242 238 228 215 206 222 238 223 213 220 237 270 274 215 216 251 237 226 144 159 241 252 203 235 234 227 236 201 248 206 237 259
633 578 371 357 334 328 331 325 318 324 291 271 268 250 242 235 230 219 212 222 231 241 208 214 228 238 283 296 104 196 257 238 187 236 189 153 198 252 161 249 209 234 229 185 241 257 234
626 583 357 355 333 327 321 356 321 297 291 277 253 243 234 228 226 199 226 221 239 235 214 202 218 260 222 263 280 226 193 204 191 192 255 248 256 238 181 219 213 253 247 232 265 250 215
625 437 376 357 338 325 323 326 320 297 288 207 248 237 233 225 222 211 215 228 241 211 210 217 142 272 238 252 195 218 225 265 188 226 204 248 260 233 228 258 224 207 218 241 208 240 238
622 451 386 340 338 324 325 309 285 303 245 259 245 236 225 230 202 221 181 234 237 211 208 216 207 222 276 231 215 214 193 213 249 231 199 244 240 264 225 223 241 251 247 208 243 261 249
633 596 394 343 345 320 334 302 299 285 184 140 246 235 227 223 219 222 192 235 235 212 207 213 213 209 221 276 245 233 239 203 206 215 221 212 227 247 255 252 223 233 208 210 249 242 182

GFSGBSN_2pvu_pres_030.txt.gz
Presure
350 337 324 334 328 344 322 323 317 325 316 289 276 269 276 261 260 247 252 248 243 214 206 212 199 210 216 221 226 218 212 213 203 209 212 196 201 195 210 177 177 233 203 219 176 231 210
348 324 318 304 297 323 319 306 306 315 309 282 284 276 265 263 258 255 251 251 242 226 229 205 239 278 264 250 241 238 219 216 207 203 205 209 202 201 214 218 213 220 179 228 223 132 93
327 311 311 307 294 292 325 311 299 286 310 293 281 281 275 263 255 249 244 237 236 214 292 292 276 264 248 241 237 232 219 217 211 202 208 201 207 190 182 186 230 201 226 189 229 222 223
294 319 290 289 287 262 253 252 301 291 289 256 274 271 261 261 249 234 236 230 222 297 284 268 260 251 239 237 235 229 220 217 205 204 203 201 202 206 205 204 189 208 218 230 229 238 232
310 307 303 307 264 281 261 255 241 250 286 282 272 264 252 246 234 232 229 230 226 285 270 258 251 239 234 235 231 222 217 215 205 199 200 200 195 201 210 213 219 219 207 233 224 233 239
328 310 299 292 294 276 265 261 234 251 228 254 272 264 258 244 234 231 239 225 216 278 266 253 242 240 235 232 224 222 219 219 208 206 203 197 203 199 206 209 211 213 241 231 244 237 232
322 303 294 297 258 262 247 239 243 231 246 228 244 268 258 243 239 232 232 220 221 269 258 254 243 240 231 128 164 214 217 217 213 207 211 208 205 204 210 216 215 226 232 231 219 236 236
325 313 297 296 257 261 257 245 258 241 228 229 236 246 264 245 243 234 231 230 223 260 258 234 245 241 235 231 228 135 225 218 213 215 211 212 204 208 210 217 220 226 229 231 247 238 249
324 321 312 283 268 263 263 249 391 241 240 239 226 242 247 272 254 240 229 232 225 216 266 250 235 237 236 234 222 214 224 221 225 221 207 210 210 213 215 218 221 233 234 235 240 240 234
316 326 309 284 273 473 494 487 488 491 379 274 254 231 237 245 269 248 238 237 233 222 215 261 246 235 241 228 233 231 233 230 226 225 229 227 227 230 229 231 226 228 238 239 243 242 248
327 324 308 281 305 489 530 551 537 535 477 514 272 259 237 231 252 265 245 238 236 222 213 215 269 253 248 246 239 237 239 243 236 236 238 232 233 237 250 245 250 264 254 240 243 258 249
333 320 305 281 474 608 562 529 516 513 537 480 514 285 258 240 229 248 259 246 241 229 216 214 210 159 250 268 264 259 253 247 246 235 225 221 230 231 229 232 248 278 266 269 263 259 263
331 312 302 286 469 547 480 472 455 464 524 475 486 456 282 255 237 238 249 214 245 236 223 209 218 215 211 199 207 216 218 212 207 207 208 217 210 230 245 300 290 286 284 277 276 274 84
329 306 295 302 458 481 462 458 443 468 486 458 461 475 340 274 253 230 241 250 215 225 239 210 215 215 207 206 222 219 209 207 209 207 216 211 248 284 279 274 275 272 267 267 271 274 248
320 309 292 412 512 462 463 453 466 456 460 446 495 412 378 280 262 237 229 231 225 222 215 237 211 215 214 218 184 216 215 208 210 225 169 275 283 263 247 241 245 247 247 244 243 252 251
316 309 289 416 508 456 453 447 460 451 465 443 396 363 342 293 265 262 235 238 232 226 233 210 221 215 214 208 203 207 200 224 210 241 286 269 233 234 243 254 358 357 374 406 426 339 333
309 306 291 460 538 474 454 438 433 414 443 465 388 347 344 364 272 270 233 231 230 234 226 226 224 218 213 208 208 214 208 216 245 275 251 228 237 283 263 297 320 348 359 365 360 356 377
308 305 287 463 628 485 470 464 411 413 456 365 345 333 323 320 319 306 261 231 233 227 216 227 219 210 214 212 214 223 238 251 267 229 242 285 261 258 248 294 276 288 295 306 377 356 353
303 300 286 495 625 487 488 410 401 443 468 350 340 335 323 321 326 320 269 250 225 184 228 221 219 225 215 212 209 237 255 256 227 288 277 264 259 279 265 269 264 278 280 288 295 374 381
300 299 283 573 472 507 488 410 424 435 363 347 328 323 326 313 310 307 316 143 175 244 235 222 221 222 219 226 232 261 239 219 263 270 259 257 251 247 258 251 249 265 269 279 285 326 389
298 299 283 613 479 485 424 415 414 367 342 316 309 310 296 305 303 310 315 332 324 256 240 236 229 220 226 244 281 226 216 241 260 258 252 244 237 249 245 251 249 241 252 264 272 311 418
294 298 285 624 419 469 452 408 387 357 325 327 317 305 308 314 319 322 309 331 334 333 253 250 248 250 259 283 225 206 271 179 166 151 242 234 238 239 232 145 252 253 259 251 271 281 285
292 292 389 526 466 440 374 428 343 326 315 297 291 296 290 294 301 317 323 331 315 303 299 293 290 270 264 229 213 280 262 260 192 188 184 243 231 225 240 220 233 229 247 239 261 269 269
289 288 384 433 427 383 363 358 327 324 317 325 323 319 314 312 318 320 312 294 292 285 277 275 272 217 234 251 313 246 172 247 242 240 249 236 218 225 224 242 232 234 241 231 241 244 257
290 282 622 407 391 369 354 348 329 333 330 314 307 298 311 313 309 289 278 271 265 262 254 231 238 233 239 347 267 229 258 177 214 244 237 230 178 231 247 220 230 184 229 233 235 253 237
288 279 641 434 371 374 349 326 339 314 317 314 328 310 296 296 270 267 256 259 248 206 229 214 231 235 328 250 190 200 249 222 256 158 216 207 226 225 223 223 225 232 232 229 238 240 243
286 277 648 458 397 355 355 330 314 318 317 288 305 297 283 266 259 261 248 245 235 229 234 231 224 241 322 251 260 225 253 229 231 172 234 231 197 215 247 236 233 211 181 231 228 242 234
287 275 648 443 388 355 344 327 330 322 316 302 292 286 260 266 255 247 244 237 224 242 231 220 260 240 188 224 229 251 260 250 223 201 205 215 233 212 232 183 217 234 214 236 238 239 237
284 274 646 640 389 364 327 329 322 355 333 300 293 186 264 256 249 240 238 233 247 229 231 228 252 260 285 237 223 188 256 260 211 212 177 219 211 226 219 222 213 219 232 247 235 222 231

GFSGBSN_2pvu_pres_033.txt.gz
Presure
348 340 338 322 306 298 294 290 292 323 314 316 311 307 307 309 314 296 283 268 242 242 246 238 231 226 215 206 210 209 207 206 206 206 190 197 229 215 206 215 212 198 185 184 188 214 213
296 227 330 317 304 304 283 283 283 273 316 306 302 319 300 305 284 281 293 264 261 253 245 241 239 237 208 209 211 200 203 197 206 207 207 201 224 212 210 213 217 175 204 201 198 185 215
289 130 332 326 310 299 297 269 271 273 255 295 255 294 315 304 288 280 284 266 252 235 246 241 247 237 234 216 213 208 206 209 207 202 204 203 181 222 208 208 213 212 173 195 185 210 213
294 162 320 311 317 293 302 293 293 267 253 266 265 276 289 312 282 284 271 256 269 255 260 244 242 245 242 238 216 205 206 210 206 204 214 221 224 238 211 201 208 206 214 195 207 213 229
290 327 308 319 317 299 287 281 271 273 266 243 259 242 268 241 296 276 280 259 267 262 258 251 245 247 243 230 226 226 206 205 211 218 231 235 238 241 212 201 206 211 206 213 204 187 189
291 307 337 327 317 300 295 280 267 258 264 260 239 252 237 276 285 256 287 274 264 256 244 242 225 230 220 210 211 214 221 224 241 244 241 238 237 234 212 200 202 206 205 207 204 213 195
287 177 335 329 299 313 288 261 263 258 247 260 243 242 246 237 242 280 277 258 252 242 238 223 228 211 285 280 275 273 267 257 201 242 238 238 230 219 216 209 205 205 205 207 202 208 220
288 339 343 329 310 306 288 258 338 509 500 325 257 256 241 252 238 272 268 257 244 238 230 221 227 222 282 273 264 258 166 244 239 234 231 230 219 212 216 209 199 205 208 203 209 209 219
209 351 347 321 312 308 272 493 568 592 589 490 495 273 257 244 241 248 263 255 242 233 232 237 226 203 274 266 255 248 246 239 231 231 231 220 217 220 218 219 213 208 213 213 217 213 216
285 310 332 319 319 306 299 620 576 542 529 566 477 525 256 253 237 275 265 257 241 234 232 234 226 218 263 260 251 249 243 240 232 154 228 219 214 215 217 218 221 214 226 228 220 224 226
286 343 325 313 324 296 413 511 505 486 480 483 541 502 314 255 239 241 267 247 247 235 224 234 228 220 265 257 245 239 246 235 218 224 224 216 222 225 222 220 228 233 231 230 236 237 246
193 335 324 319 320 294 491 500 465 445 454 464 488 475 501 268 247 235 249 237 262 239 236 226 232 221 212 254 241 242 237 237 236 231 229 228 226 226 231 236 240 245 248 254 257 259 271
283 340 324 318 317 293 483 468 456 450 436 469 476 468 493 298 256 246 231 271 259 249 224 232 223 223 213 234 253 247 242 240 238 238 236 235 231 232 239 245 232 214 220 219 231 246 265
287 340 325 317 309 347 501 453 447 470 437 434 433 509 480 315 263 257 239 239 267 250 236 227 228 222 215 213 208 207 252 253 213 257 259 260 224 221 218 177 212 228 231 238 289 321 323
146 340 327 316 306 483 502 461 435 446 441 452 452 519 489 389 273 264 243 226 256 248 244 235 226 226 225 212 216 214 213 204 198 207 218 214 216 196 216 220 222 238 282 276 269 281 282
285 346 327 316 302 595 505 452 415 409 409 446 523 454 489 382 289 264 259 234 232 251 251 245 232 235 222 215 216 216 212 207 211 218 210 209 209 223 221 242 264 251 279 302 323 314 347
289 338 327 318 299 629 509 456 417 407 405 435 446 449 418 386 347 283 270 239 227 240 249 256 232 229 234 218 209 216 209 218 216 209 215 208 219 259 264 239 277 274 264 310 276 309 331
329 338 325 319 301 487 477 458 432 419 431 419 389 398 382 353 366 309 276 260 231 232 242 266 232 215 209 231 215 213 216 211 198 208 219 219 264 240 285 272 259 290 294 290 293 316 338
331 341 327 317 301 486 448 449 417 435 433 385 363 347 341 351 347 329 280 271 233 224 231 231 222 245 221 215 215 214 222 207 212 214 216 258 235 273 258 261 243 276 252 258 283 308 307
351 338 325 316 399 547 439 438 447 384 360 366 349 344 343 324 319 330 323 280 197 230 230 228 228 219 226 220 219 202 206 219 213 209 254 218 267 268 259 251 254 252 254 260 313 314 313
335 334 320 313 485 526 426 437 435 367 348 342 334 327 317 198 313 311 319 288 254 143 213 229 229 229 216 222 197 216 222 220 230 251 220 266 267 245 258 241 247 250 248 249 258 305 319
347 329 317 310 474 493 439 436 388 359 341 331 330 317 316 306 308 322 327 321 283 240 236 226 227 224 228 219 218 223 218 229 250 207 161 250 252 231 236 91 91 246 244 237 259 273 301
334 327 316 307 469 493 460 441 317 341 336 336 323 314 308 314 310 302 308 312 320 337 243 232 221 221 222 226 226 225 234 258 188 261 198 181 226 262 235 221 234 229 234 257 256 259 268
327 338 311 304 440 442 438 385 368 347 331 327 307 311 314 307 306 301 306 314 320 317 275 239 236 232 215 229 226 243 273 197 264 157 229 235 210 231 231 225 238 175 246 237 238 249 244
330 337 305 298 436 423 391 369 339 327 307 330 316 314 313 321 316 297 306 343 317 309 312 308 270 248 247 249 255 223 228 185 235 242 248 234 232 223 222 226 233 250 243 229 234 235 230
329 333 299 293 426 402 382 340 340 339 302 306 320 303 210 302 311 323 315 293 288 287 286 287 292 285 283 281 226 246 282 253 254 248 232 241 205 221 209 221 218 216 228 226 230 221 228
328 332 299 290 342 396 368 355 347 319 321 321 310 315 321 310 313 283 278 274 276 275 276 273 268 256 224 250 250 281 217 192 249 229 209 245 211 228 232 227 224 200 224 230 223 223 222
328 337 304 287 338 394 362 340 330 328 324 295 300 308 308 290 281 272 267 266 267 264 251 237 237 219 249 306 263 267 249 190 246 241 166 240 198 234 218 225 222 230 238 235 206 226 222
329 336 302 285 348 405 372 355 350 336 301 330 306 307 287 274 266 269 262 259 245 238 239 238 246 245 325 292 273 255 243 204 215 227 184 228 221 236 195 218 233 241 232 240 231 239 227

GFSGBSN_2pvu_pres_036.txt.gz
Presure
172 301 289 341 349 323 324 314 297 294 283 282 289 276 323 333 339 279 265 262 276 259 266 266 241 221 237 202 219 217 209 216 212 215 211 211 224 206 232 226 220 195 199 199 219 227 217
238 273 151 295 340 334 321 321 303 297 285 272 272 284 292 312 320 326 286 274 264 261 235 261 264 243 229 218 232 223 228 197 205 211 216 207 215 211 215 228 204 205 220 215 216 218 219
183 171 222 295 356 299 315 316 309 296 290 284 275 270 262 286 301 311 324 326 282 275 266 260 249 256 233 224 217 221 213 224 208 205 213 203 199 199 202 216 219 196 201 219 218 212 215
243 306 274 288 346 337 328 314 301 298 291 286 284 275 271 254 290 294 302 307 311 300 312 288 263 262 237 228 225 220 225 216 222 209 202 205 213 209 204 203 198 188 199 214 205 213 211
246 298 316 284 339 338 327 302 300 306 292 291 281 282 277 270 269 259 280 293 303 287 292 283 267 260 241 233 232 228 228 223 216 214 202 209 207 204 197 206 209 204 194 189 197 210 210
251 273 324 283 352 335 321 319 313 278 267 252 258 264 274 271 263 276 284 283 297 286 269 262 274 256 246 239 228 226 224 229 231 215 214 205 205 204 208 207 204 207 185 178 233 204 209
244 294 270 290 315 337 330 321 310 282 268 541 319 266 260 261 264 250 279 288 298 282 269 264 251 250 262 233 239 235 235 239 229 230 216 209 209 203 208 204 208 214 222 229 238 210 208
102 305 301 290 346 336 330 321 297 506 604 577 552 590 303 265 260 263 251 284 273 278 274 270 257 249 260 247 247 248 242 244 242 239 231 223 214 214 210 207 217 222 227 237 241 233 213
111 256 278 295 341 335 325 317 316 531 521 519 534 558 490 289 262 256 265 215 268 274 280 269 258 264 264 259 252 238 233 184 225 222 218 216 216 212 217 220 224 230 240 239 234 232 211
114 256 279 297 341 337 331 303 470 477 483 457 483 502 533 449 289 261 257 272 266 275 272 266 260 255 243 237 223 228 214 219 227 228 228 227 227 228 257 241 244 242 239 236 228 227 223
245 281 286 302 345 339 328 288 497 462 447 447 431 471 508 474 295 262 252 248 257 271 268 260 253 235 237 217 222 209 237 273 266 264 263 260 257 253 249 248 245 237 235 228 228 229 229
250 265 292 364 340 326 318 449 473 412 443 431 454 471 496 479 305 274 250 250 268 257 264 257 243 232 230 223 219 223 270 265 258 254 250 250 247 244 240 238 238 235 224 225 225 230 240
247 259 297 353 341 332 307 464 434 474 450 449 426 445 460 471 312 283 252 248 267 245 264 253 238 229 226 227 215 281 266 257 255 249 245 247 240 235 229 229 230 228 226 229 234 237 245
237 258 301 355 339 332 302 533 417 415 422 429 429 447 460 473 352 291 254 244 235 272 260 246 226 234 228 222 220 255 269 249 247 241 235 233 240 239 241 239 241 238 239 239 166 172 245
249 244 311 351 340 329 409 467 420 425 400 414 444 450 509 506 354 294 257 249 220 258 260 235 235 229 230 227 219 215 266 254 246 243 242 240 240 243 245 244 245 225 218 220 225 233 238
253 248 335 353 342 322 561 443 416 416 411 418 452 508 487 429 352 297 262 255 230 228 261 255 233 237 232 227 220 214 208 205 211 237 228 218 209 206 222 220 221 206 220 226 234 321 318
257 325 334 352 343 318 635 437 435 409 410 434 446 488 506 380 351 289 264 244 239 235 259 260 246 230 231 225 218 215 212 216 218 214 210 207 209 223 202 210 220 221 238 293 264 267 260
255 295 333 352 342 314 467 462 422 432 439 451 432 462 471 379 342 291 257 250 240 245 233 257 241 238 227 221 221 221 213 211 218 214 209 217 216 208 206 218 228 283 267 254 244 288 299
256 298 345 348 341 314 459 435 438 429 455 476 409 489 370 356 361 299 266 251 241 242 230 258 248 247 226 226 224 220 218 210 211 211 218 209 209 211 215 290 256 259 269 260 260 259 293
267 281 309 336 339 316 452 449 450 449 415 388 401 429 354 340 338 308 271 243 244 237 224 239 227 241 236 211 221 229 220 219 216 217 218 220 207 216 280 261 249 256 245 249 242 260 290
286 312 309 337 340 315 455 456 438 407 366 385 369 448 343 332 335 312 288 260 221 154 224 222 239 258 232 228 220 217 237 217 220 207 214 222 243 270 245 228 252 235 254 239 249 258 283
272 295 325 328 333 312 473 379 390 381 364 343 367 343 327 363 325 321 310 283 259 234 217 218 233 235 247 233 233 227 229 220 212 220 220 238 197 238 248 239 225 243 228 236 243 250 266
279 290 332 335 330 310 481 378 379 364 355 343 334 327 326 337 333 323 319 318 289 254 232 222 224 235 230 228 222 212 211 205 219 224 226 181 198 153 240 246 241 230 230 222 235 238 256
281 289 321 326 325 308 461 386 367 340 340 332 335 336 315 307 318 326 328 330 338 302 239 229 217 220 231 223 208 223 220 220 220 197 249 201 241 219 240 217 236 224 224 227 230 239 243
281 281 327 331 321 306 346 381 358 313 310 332 323 339 312 311 305 310 314 324 315 335 252 237 222 224 225 224 221 223 221 224 201 243 238 242 235 242 239 227 216 225 217 218 222 235 239
271 278 320 287 320 300 346 374 356 342 349 310 313 323 306 307 306 303 304 304 315 320 273 244 238 219 215 219 217 224 229 222 238 224 242 239 218 210 220 213 215 224 211 220 235 224 231
300 273 304 331 318 293 339 384 351 337 339 321 321 315 311 314 302 303 294 318 304 300 321 277 242 243 237 233 228 229 236 243 237 263 252 233 232 244 236 228 223 219 217 224 215 226 168
289 274 307 333 320 291 338 379 356 342 321 324 327 329 292 301 299 311 306 307 294 289 285 294 301 245 244 243 242 249 259 247 261 253 226 184 165 250 221 219 216 219 209 217 172 217 174
283 275 317 296 322 290 353 391 367 336 324 317 331 314 312 306 299 293 295 290 287 287 291 288 288 282 286 283 277 262 247 204 223 213 221 214 237 211 215 224 220 229 222 231 219 217 217

GFSGBSN_2pvu_pres_039.txt.gz
Presure
167 171 196 263 176 285 296 356 342 343 327 315 294 290 283 281 289 332 351 282 280 263 256 256 250 248 245 240 238 223 208 212 197 196 203 193 201 199 190 207 192 207 197 202 197 206 206
137 214 237 252 259 188 322 308 334 322 330 310 319 293 287 282 278 289 327 343 281 265 268 269 262 259 235 247 231 235 227 207 193 199 200 202 196 199 194 194 190 180 183 189 191 190 196
201 159 219 241 251 296 317 342 333 310 314 302 294 320 294 281 278 281 293 319 321 277 259 268 238 260 249 256 250 231 227 226 216 209 204 201 201 197 194 196 195 195 196 198 191 202 186
198 211 235 249 262 267 303 317 331 328 307 299 289 286 303 300 284 276 278 299 315 305 275 258 254 240 256 260 251 244 227 228 226 218 221 215 212 206 207 201 211 220 205 215 216 234 224
209 225 226 144 283 328 343 327 346 344 333 297 275 282 287 258 304 283 268 244 300 304 321 272 263 257 258 251 258 247 230 222 215 221 215 214 212 212 207 209 209 207 215 206 214 222 229
224 225 235 243 288 352 330 330 345 338 302 281 294 287 272 272 264 285 278 264 281 293 312 313 295 267 252 250 250 257 253 223 223 228 217 220 213 214 222 198 202 208 212 212 200 206 212
207 202 240 269 300 291 329 351 348 319 300 622 584 565 561 563 272 259 266 275 259 293 301 290 297 306 279 259 239 241 260 246 215 223 217 219 218 209 214 216 208 203 204 211 205 212 207
149 142 237 266 343 341 325 351 346 307 540 472 509 504 533 569 474 276 259 265 273 273 273 280 284 286 291 290 286 269 243 249 228 225 222 212 206 214 210 214 215 207 204 211 211 200 214
218 210 232 248 295 324 355 353 309 562 501 479 452 446 471 536 492 290 267 261 261 248 281 289 283 272 277 272 269 274 265 254 240 220 222 220 218 221 219 216 217 215 208 202 210 209 212
201 221 232 294 295 325 351 349 306 486 490 424 440 448 437 489 498 395 270 255 248 249 271 282 272 272 263 262 258 267 252 255 239 229 222 222 224 224 224 225 224 218 217 213 211 206 212
216 225 239 248 291 339 358 335 487 544 446 446 449 431 436 457 478 462 288 254 250 254 270 283 278 278 262 255 252 256 247 254 231 243 230 233 237 238 242 237 231 231 227 216 214 214 220
216 221 243 289 371 363 358 316 515 452 425 455 443 427 443 473 493 495 292 256 251 254 281 272 280 263 262 266 254 248 243 263 264 246 252 241 239 235 236 236 233 228 222 218 220 225 229
197 122 249 290 368 364 358 308 496 422 437 431 414 413 430 465 501 435 290 258 247 264 270 270 273 270 272 263 257 257 252 250 245 234 230 226 220 218 217 220 222 222 223 248 249 260 262
170 127 272 279 281 365 352 312 443 423 423 426 413 452 439 472 463 322 292 263 252 263 263 270 271 264 265 255 249 237 236 224 226 214 221 231 273 264 262 263 260 257 256 252 256 248 242
203 217 309 292 278 344 346 428 438 431 419 409 429 466 447 482 505 312 284 264 255 257 246 230 262 252 254 244 231 232 215 223 207 235 275 270 263 256 251 247 247 247 248 245 247 164 168
216 257 334 297 367 344 341 424 437 432 432 441 458 470 471 471 339 307 288 266 246 232 253 269 258 253 248 234 227 232 229 214 283 278 264 250 248 244 243 246 250 243 230 232 225 220 217
217 265 325 309 367 362 337 412 446 438 444 451 465 429 474 500 323 305 294 262 249 243 251 268 258 250 239 230 227 232 220 219 282 271 179 167 244 243 227 211 201 220 219 209 213 220 229
223 310 294 309 348 359 331 412 449 482 438 474 426 446 487 330 310 308 286 256 251 246 231 266 253 247 234 235 229 222 215 213 210 201 214 220 213 215 206 216 215 214 208 214 224 276 264
255 282 299 300 336 348 331 396 448 450 406 422 447 480 374 140 311 306 287 251 245 243 227 266 254 244 232 228 220 225 220 213 211 213 217 218 218 216 216 210 195 217 229 263 264 263 251
210 303 291 300 313 322 332 291 443 399 413 424 456 376 341 339 323 321 273 253 249 252 224 264 251 249 229 229 227 222 219 216 213 212 212 211 216 211 210 208 216 247 251 249 249 243 245
291 318 280 292 310 300 332 290 403 390 441 490 379 376 331 316 330 306 278 256 221 233 224 261 252 246 242 228 226 222 223 221 218 216 215 216 209 214 212 217 243 259 239 234 228 246 240
298 281 287 301 305 308 330 291 405 385 449 415 371 362 361 330 323 300 293 255 250 229 148 227 253 253 239 236 233 224 225 227 227 220 218 216 216 216 215 257 228 239 228 229 246 247 251
292 272 292 298 311 292 323 295 396 372 402 358 381 354 337 349 312 304 290 240 243 243 233 230 240 247 233 242 238 232 225 216 212 234 228 216 219 215 195 157 243 228 227 228 230 229 247
269 294 289 299 334 306 326 301 332 368 379 356 345 325 347 327 332 315 300 253 239 235 231 228 218 228 237 240 244 222 225 219 222 221 214 211 216 249 198 235 229 220 220 223 219 236 251
259 296 284 286 337 338 324 302 271 347 353 348 335 339 346 308 320 331 317 277 251 244 237 232 229 224 228 240 244 226 209 225 219 213 218 220 259 243 188 217 226 218 217 225 229 224 236
288 294 289 270 298 305 323 303 274 366 353 338 322 326 318 336 338 336 347 347 343 254 241 237 232 222 224 230 235 222 223 223 222 219 220 234 246 240 247 226 219 216 209 222 227 221 238
278 285 278 292 308 319 320 302 279 354 341 338 350 328 321 309 304 309 311 314 317 337 252 244 230 223 222 219 221 226 225 223 220 219 169 254 242 160 213 216 215 219 218 212 221 211 224
286 269 296 293 326 329 320 300 278 368 350 340 334 320 308 303 304 299 298 304 315 311 332 249 247 232 215 219 228 220 216 225 225 184 237 237 247 212 239 241 223 215 221 229 214 219 212
278 272 296 299 325 336 322 301 275 383 333 311 320 316 315 312 294 300 311 307 312 306 315 309 252 240 232 229 228 226 224 223 229 227 245 251 203 239 158 222 230 221 214 226 214 221 217

GFSGBSN_2pvu_pres_045.txt.gz
Presure
111 156 146 140 143 163 207 223 243 288 311 289 330 145 346 342 340 313 310 323 313 302 301 316 289 287 272 272 253 275 230 236 201 192 221 214 196 194 214 183 182 175 172 163 165 164 175
91 113 122 181 231 232 212 225 248 308 309 308 268 371 328 329 344 331 315 304 309 305 286 300 316 305 278 259 253 263 269 236 226 223 213 215 219 202 194 201 193 172 175 176 183 186 175
128 108 178 222 140 219 215 239 250 306 317 343 370 334 179 283 143 284 323 313 297 306 295 285 312 292 292 271 243 248 268 265 244 214 220 219 211 216 212 202 189 193 190 184 185 176 177
124 122 133 130 238 237 234 249 261 332 325 379 352 323 579 585 440 316 290 320 300 292 295 286 294 267 295 280 257 253 262 260 257 242 211 222 218 211 211 219 210 204 193 190 184 188 182
165 129 192 142 239 168 230 254 311 337 354 372 325 516 490 470 454 584 334 299 312 295 294 288 288 284 345 288 271 260 255 249 254 256 237 225 217 215 214 211 208 213 211 212 204 207 196
122 176 139 184 229 223 229 257 337 342 390 339 552 538 489 474 462 433 565 336 292 285 274 294 283 283 337 312 284 266 257 251 243 253 249 241 231 207 212 205 211 205 214 205 201 194 205
106 134 135 240 246 230 241 256 300 375 359 468 472 457 438 455 454 464 518 570 305 290 286 298 281 274 308 319 290 280 255 255 245 246 250 250 241 209 210 209 201 200 208 207 167 209 204
201 160 186 242 158 234 255 306 330 391 342 494 561 455 447 435 436 434 483 558 337 277 284 288 283 276 288 321 307 278 260 269 250 240 252 244 240 237 216 236 209 205 210 209 200 212 207
163 188 184 242 219 239 259 341 331 378 387 467 507 466 438 428 424 419 447 559 545 276 284 288 283 266 270 315 311 270 270 274 276 245 242 247 244 246 235 230 226 224 203 207 208 205 202
134 195 205 207 223 240 260 302 393 366 457 440 434 429 437 448 418 420 523 558 477 275 271 289 282 265 265 307 315 274 257 265 274 261 250 241 243 233 236 238 247 224 226 219 212 211 205
133 130 238 187 225 243 266 342 382 345 449 433 429 422 409 419 443 441 506 470 368 280 273 284 274 264 266 297 304 310 257 255 259 258 253 249 250 241 231 238 239 235 239 236 225 223 218
135 159 223 218 227 250 267 331 313 339 435 453 440 438 427 449 458 455 507 361 340 276 267 289 274 265 259 289 301 313 264 254 254 251 258 250 244 245 249 248 240 237 239 236 234 234 226
183 212 225 221 229 254 301 335 392 337 429 483 482 475 459 441 460 477 388 350 316 282 265 273 270 264 251 284 299 301 288 258 250 250 243 253 255 250 244 250 254 238 237 239 244 231 233
146 155 227 223 236 256 289 320 389 336 415 449 445 450 437 449 468 337 346 344 310 281 259 271 251 259 257 293 300 291 294 282 262 255 246 249 244 236 245 247 246 255 238 240 239 229 229
130 166 207 225 241 289 297 330 391 337 427 426 429 460 453 464 479 335 349 324 299 259 251 270 262 239 277 287 283 276 281 288 291 294 287 268 257 248 253 254 255 249 256 257 250 235 235
121 140 196 199 249 276 304 308 395 339 454 437 439 487 483 487 350 127 335 325 287 254 254 252 252 237 272 276 269 272 265 265 264 267 265 266 272 276 270 271 267 234 240 242 245 241 240
246 215 211 232 254 284 280 307 396 335 461 448 473 505 506 346 335 343 327 325 255 253 259 243 238 265 281 268 259 256 255 257 260 257 252 249 249 247 255 251 249 248 250 251 245 244 247
211 103 213 237 292 291 287 296 343 362 504 499 497 480 355 352 338 325 328 321 255 245 246 241 245 230 275 264 264 263 254 251 245 244 245 249 252 260 265 257 247 243 242 235 223 220 257
208 183 181 258 294 268 281 302 312 377 543 504 513 373 358 357 325 333 328 262 257 247 246 239 264 272 275 266 265 255 261 257 250 244 242 242 243 237 230 227 219 226 267 256 247 241 236
212 205 219 267 295 161 271 287 302 369 534 481 443 359 359 343 341 344 302 262 253 249 237 239 265 272 272 272 261 248 240 235 234 233 233 225 221 217 234 261 257 249 239 228 223 221 227
205 197 259 286 294 260 263 293 293 332 441 352 369 355 354 350 337 325 267 257 239 200 237 235 220 253 252 241 239 235 231 227 229 228 220 272 259 255 246 239 229 216 220 210 219 245 239
206 228 269 281 287 272 256 289 291 303 364 300 359 369 346 362 360 273 269 260 244 239 153 257 260 247 247 239 235 226 222 225 223 220 215 214 211 207 205 221 216 216 218 238 245 228 232
193 181 268 294 290 267 264 264 306 299 343 300 362 356 354 344 338 302 252 242 240 237 231 244 259 243 241 238 232 224 220 224 219 216 212 214 208 205 210 215 218 230 245 235 241 166 226
266 276 274 279 292 280 270 258 291 302 340 320 292 341 352 335 328 302 257 252 236 237 232 232 256 247 237 235 232 227 223 225 224 221 218 212 216 221 239 225 233 237 242 240 188 223 223
274 282 287 271 286 258 268 267 281 292 344 325 293 342 337 347 338 339 272 256 241 236 231 221 253 247 244 236 231 225 222 220 222 221 221 222 220 235 216 221 243 244 232 227 215 223 229
300 264 293 276 283 266 254 268 274 282 312 319 303 289 349 340 319 334 301 254 242 236 231 222 229 241 244 244 240 223 223 223 221 220 218 218 225 209 224 228 248 236 231 221 227 226 220
281 281 276 282 285 267 268 256 291 286 306 330 304 283 369 342 324 325 320 277 253 237 235 239 238 239 236 236 238 238 237 224 233 238 226 221 213 217 213 238 246 239 223 227 214 228 229
292 280 279 285 286 271 262 254 282 283 319 332 305 288 357 352 349 339 337 320 268 251 239 233 233 234 226 244 242 238 234 236 239 215 217 229 218 219 220 242 245 238 219 216 225 217 228
284 178 279 288 259 275 257 261 275 295 354 328 292 360 344 330 345 351 318 325 301 257 248 246 233 234 232 236 243 233 238 231 240 230 229 217 220 209 224 236 229 227 205 226 222 212 226

GFSGBSN_2pvu_pres_048.txt.gz
Presure
152 157 132 119 215 228 186 214 228 255 257 310 307 302 398 358 175 285 342 197 340 314 315 317 332 318 286 264 265 270 277 240 215 209 218 192 205 215 196 185 186 183 165 170 185 167 164
133 143 120 177 214 228 207 218 232 264 283 351 355 387 349 428 496 369 310 308 184 328 324 310 301 331 304 276 274 260 270 263 241 196 221 218 194 209 212 200 194 175 182 198 168 177 170
122 147 138 147 149 233 225 220 236 265 309 334 348 351 481 571 530 562 512 118 116 315 307 311 305 300 300 289 272 256 280 268 243 232 209 225 203 219 175 211 193 198 187 180 184 173 176
134 128 131 203 222 237 226 224 246 276 305 349 377 336 497 540 534 541 500 432 310 288 302 316 304 301 302 278 285 267 258 267 268 251 211 220 210 217 216 192 201 203 199 193 184 194 188
144 157 156 156 137 237 254 229 260 280 322 386 356 507 509 499 510 502 529 455 345 297 282 307 309 300 283 337 283 264 256 262 259 259 260 234 219 210 218 209 203 184 201 184 196 193 193
143 153 179 204 105 209 240 240 266 301 323 380 351 578 505 472 465 460 463 449 559 310 293 298 307 300 294 279 318 277 270 274 265 252 267 249 210 216 217 215 212 191 212 214 196 189 190
136 153 154 236 248 182 216 242 269 310 311 375 482 472 484 453 440 431 461 441 462 320 300 293 312 299 287 278 333 296 269 262 262 262 258 270 248 212 222 212 213 211 217 212 215 218 206
122 142 217 224 258 217 223 243 270 299 335 371 462 451 441 454 442 433 447 451 571 324 302 289 300 291 286 274 280 318 266 279 263 254 249 252 267 245 239 223 220 214 211 204 215 213 214
117 142 239 238 267 182 228 244 293 306 332 369 474 446 430 424 444 426 437 465 571 347 297 294 294 283 286 278 281 287 288 281 271 241 244 242 267 263 249 238 234 212 206 212 214 213 210
130 126 193 253 165 209 232 249 302 310 327 436 445 476 443 434 407 449 432 511 578 353 294 291 293 276 286 281 271 307 319 273 286 259 248 242 251 267 264 254 241 233 201 207 204 211 200
127 108 248 189 145 197 233 255 304 294 339 447 438 444 471 439 440 452 470 549 540 332 295 280 281 256 283 274 268 320 317 283 268 281 250 245 244 243 245 262 253 239 229 218 205 196 201
146 146 232 192 218 194 232 302 307 289 393 447 438 440 465 448 452 460 501 545 426 330 296 273 271 284 281 275 264 314 300 293 268 269 259 253 252 243 241 245 255 252 239 239 219 231 207
144 146 211 209 210 199 230 306 308 297 414 456 443 456 455 461 463 489 416 419 376 332 281 272 281 281 270 256 259 310 307 285 274 270 266 253 252 254 239 243 242 253 251 242 238 240 232
144 172 174 212 215 193 239 296 305 314 491 473 455 478 470 469 502 365 372 358 355 320 277 264 284 275 263 262 265 292 301 283 268 263 266 268 268 268 256 237 239 241 243 232 239 243 245
145 250 171 162 223 200 257 298 298 343 457 479 492 495 450 454 368 354 341 362 355 265 257 271 283 259 266 253 281 289 306 283 261 261 255 256 262 260 260 260 254 249 250 246 243 240 235
143 193 154 198 225 237 293 293 304 330 472 509 523 441 385 376 352 349 347 300 262 262 265 271 252 258 246 278 293 286 295 285 277 259 253 252 258 259 256 252 249 248 248 251 256 252 255
253 202 137 126 221 257 287 296 299 337 497 546 411 377 378 350 339 345 374 268 263 265 264 248 255 246 271 284 289 285 288 284 281 281 258 257 253 254 251 247 250 252 253 249 256 249 247
141 147 172 213 238 278 291 299 296 333 386 423 369 387 347 353 342 351 280 271 263 274 249 258 248 248 281 276 280 273 277 278 284 286 288 264 257 255 254 250 256 249 244 252 277 264 252
206 132 203 211 275 292 278 295 294 319 343 348 388 367 330 354 352 319 280 257 256 259 250 243 258 259 273 267 268 269 265 261 257 259 266 269 266 261 259 258 259 262 258 250 247 252 257
191 140 202 187 308 290 233 289 292 297 319 409 388 365 365 300 358 296 274 259 260 252 247 250 251 270 275 259 248 250 250 253 256 257 252 250 251 250 250 251 253 251 247 239 234 225 240
136 186 195 155 303 282 269 288 281 280 300 323 338 376 367 351 278 269 270 250 256 243 250 265 263 280 265 259 257 256 252 248 249 250 247 244 242 238 236 235 231 223 226 254 248 239 235
136 133 198 135 96 279 297 284 276 271 287 308 359 369 403 340 289 265 244 244 249 240 258 265 271 281 259 265 261 248 242 236 235 234 235 230 225 224 227 277 262 250 234 225 218 212 232
155 185 114 318 132 189 281 277 268 259 273 295 310 319 365 336 284 276 251 238 250 239 256 266 263 264 262 248 240 237 232 229 229 230 244 289 275 254 246 229 217 211 211 215 241 247 226
190 196 225 278 127 279 288 278 279 260 273 280 300 346 313 383 292 274 261 250 244 243 256 266 252 253 245 240 235 227 221 224 223 224 222 215 215 207 208 209 208 212 218 241 245 236 229
192 216 276 279 270 163 290 276 277 259 267 282 285 298 349 376 353 287 265 254 250 243 244 264 250 252 242 238 229 224 222 222 220 218 215 209 209 211 210 208 228 239 216 246 238 234 227
212 285 281 283 273 283 286 286 277 260 268 271 279 292 348 294 366 306 281 262 253 248 231 258 254 243 241 238 231 228 223 221 224 222 218 218 216 215 234 222 222 222 248 237 233 225 231
281 289 308 278 303 292 280 283 268 259 268 278 285 290 335 310 349 354 293 278 268 242 244 235 263 249 239 235 233 229 228 223 220 222 223 223 223 218 229 225 249 247 243 239 228 224 221
281 289 265 278 305 277 282 283 269 268 266 277 288 326 329 308 311 354 346 287 272 258 241 241 229 260 248 243 237 228 226 226 228 223 220 226 218 217 219 220 237 244 242 235 228 227 218
290 286 306 304 305 294 289 283 286 271 268 287 300 345 324 372 354 358 347 329 288 277 263 253 244 237 235 242 246 244 238 231 228 228 235 236 220 229 222 222 243 236 241 239 224 225 232

GFSGBSN_2pvu_pres_051.txt.gz
Presure
131 136 126 121 153 236 215 204 213 234 251 270 299 304 294 383 480 514 545 471 384 326 295 346 328 312 331 327 313 297 282 274 249 237 227 203 216 208 197 186 175 169 160 162 183 181 180
126 125 123 139 199 232 212 201 202 235 256 271 313 311 307 518 521 529 506 580 479 271 284 336 331 331 335 323 309 285 284 283 255 244 232 216 184 193 194 207 175 175 168 175 163 163 160
133 136 128 127 236 225 168 211 211 233 255 308 315 303 369 509 530 504 480 538 518 483 324 335 334 324 312 302 310 296 312 277 278 246 233 228 225 201 233 231 202 179 172 172 175 165 166
141 148 100 130 232 200 173 211 214 232 263 290 329 335 467 560 530 490 508 512 528 609 335 321 335 318 313 316 304 294 302 269 274 260 236 232 213 231 222 223 231 218 183 177 176 177 160
138 120 128 194 231 203 140 220 217 239 278 319 316 422 474 504 481 462 457 462 518 521 341 315 329 321 310 294 322 295 298 269 264 273 250 236 219 231 223 212 177 220 209 203 187 194 198
147 143 137 176 230 203 193 225 240 254 282 315 325 448 452 462 453 439 431 458 490 488 336 313 318 321 304 292 309 299 288 286 266 268 270 250 227 218 229 185 194 184 215 217 208 226 71
102 142 149 135 229 204 200 194 239 264 303 330 345 445 439 454 440 450 441 444 452 570 349 311 301 317 304 297 294 306 285 289 267 265 260 267 241 229 222 226 205 215 215 212 175 207 207
144 146 121 136 230 202 192 205 233 280 321 330 376 442 433 463 433 436 433 433 447 585 338 314 297 307 298 296 288 321 283 275 276 266 256 264 269 268 231 222 224 203 213 208 192 201 207
138 147 137 168 229 202 201 213 234 283 322 331 458 446 438 468 436 428 447 443 423 517 334 311 288 292 289 291 282 278 296 274 275 258 266 266 265 261 260 235 224 197 201 220 213 208 210
152 140 139 137 237 203 206 222 244 310 327 356 463 440 446 450 441 442 384 450 417 424 324 305 284 286 284 290 288 294 294 278 268 281 262 246 265 262 261 254 249 224 207 214 218 216 214
117 155 163 129 249 157 208 177 257 321 328 504 465 446 452 441 437 457 213 504 540 397 192 309 285 272 286 295 280 288 273 348 272 273 271 253 255 268 259 258 265 244 229 214 200 216 218
157 138 187 165 229 199 208 173 310 315 324 499 470 477 463 456 461 463 512 582 406 356 303 296 283 265 286 285 282 279 271 296 290 273 266 264 256 260 274 255 251 263 253 243 222 224 205
151 137 182 188 275 185 173 217 306 312 323 507 503 486 478 466 491 532 515 411 365 330 186 292 278 208 286 277 278 275 274 264 312 287 265 257 259 253 257 259 258 249 265 263 246 244 226
115 156 129 153 252 148 184 226 303 315 350 540 518 504 470 459 496 508 402 371 357 314 297 292 285 286 270 274 274 270 259 310 319 282 280 264 258 252 253 249 254 246 269 273 260 250 240
125 145 124 164 239 206 147 227 306 315 312 387 418 394 376 366 390 380 371 356 337 297 277 286 282 277 270 271 265 260 300 303 305 294 274 256 268 256 247 240 243 244 250 249 255 259 258
128 151 122 151 220 214 185 231 308 313 312 383 397 386 381 364 372 376 349 370 281 261 270 278 267 215 266 260 256 277 299 300 291 290 273 260 255 265 246 246 251 245 241 239 248 254 247
151 145 127 211 134 204 211 285 302 317 304 373 399 373 347 277 330 301 274 260 263 265 278 262 260 262 261 260 269 288 300 293 286 276 273 269 271 257 261 256 257 254 257 245 239 238 254
141 152 154 206 197 142 162 297 303 303 299 319 392 402 311 279 299 283 272 264 281 275 270 253 258 256 269 273 291 291 293 285 279 271 266 263 258 256 259 264 267 262 261 264 261 251 246
229 133 204 208 198 233 176 284 296 275 296 313 403 371 299 301 281 278 253 281 280 256 259 251 248 265 279 297 291 281 281 278 273 265 263 253 249 249 241 253 254 249 248 250 250 250 252
209 134 167 205 190 267 167 282 274 291 294 282 315 390 300 293 284 266 264 279 259 263 255 249 255 268 271 272 269 277 279 279 280 276 269 259 252 247 249 253 255 256 254 249 247 253 254
155 134 166 126 295 285 114 283 301 292 293 273 307 379 332 278 276 259 227 262 259 255 253 259 263 271 266 265 261 256 257 260 263 268 268 274 277 279 274 266 267 272 270 268 265 256 258
199 136 160 134 287 287 227 282 295 295 291 286 285 309 395 268 292 275 245 256 251 253 258 248 266 279 267 258 253 255 252 250 257 254 252 252 252 253 255 254 248 246 246 248 241 230 226
129 137 239 263 282 263 279 173 287 284 289 286 272 294 295 308 280 279 266 241 249 249 260 264 272 281 268 258 253 248 245 246 244 245 247 248 248 246 248 245 232 230 225 239 266 249 234
192 210 298 126 285 205 281 296 285 283 285 292 275 282 304 317 337 268 278 257 233 251 264 264 278 277 260 264 262 260 256 250 244 240 238 236 232 227 221 259 274 274 246 231 219 215 213
296 192 231 242 289 141 283 285 293 290 283 291 278 287 277 295 336 336 269 256 263 245 229 270 271 272 270 272 257 241 236 235 235 231 228 268 279 283 248 229 221 215 211 206 215 216 240
300 168 133 285 286 242 282 302 285 299 288 289 275 280 293 276 302 291 329 274 271 255 253 268 263 266 257 246 240 234 230 227 230 227 226 219 219 216 213 211 209 203 224 218 242 236 230
296 135 234 295 286 304 288 305 285 299 280 294 272 282 286 285 294 325 285 371 273 271 255 252 261 260 244 244 240 232 226 228 225 223 221 217 213 212 213 213 221 222 212 228 243 229 233
299 248 260 293 296 287 284 303 301 300 281 290 274 282 285 284 296 322 360 278 331 271 247 255 240 256 248 246 240 233 225 226 225 224 221 219 218 217 219 223 225 217 243 249 187 235 232
136 142 296 238 295 300 283 294 309 286 295 282 279 287 290 282 295 364 361 361 352 295 257 257 252 226 244 246 244 235 231 226 225 223 225 220 225 219 224 217 219 217 249 245 243 235 234

GFSGBSN_2pvu_pres_054.txt.gz
Presure
127 140 135 124 131 160 239 237 199 195 224 240 283 293 304 321 324 361 511 530 551 514 441 385 333 334 334 350 343 305 310 301 293 259 236 233 208 236 202 197 179 167 169 182 184 173 178
131 140 97 130 138 140 237 244 194 211 226 246 329 313 324 316 351 495 544 507 505 521 495 90 349 304 338 336 328 263 328 302 273 286 249 238 227 194 229 203 197 182 144 167 184 190 174
142 148 116 134 135 234 171 239 201 180 229 252 325 317 319 339 466 496 494 473 483 485 527 482 372 321 339 334 317 336 318 310 287 287 273 243 236 232 189 225 234 190 178 181 176 183 183
112 112 137 122 133 181 167 230 203 198 207 306 314 326 330 451 458 472 468 455 454 458 550 551 390 322 341 329 307 319 315 293 296 273 287 254 239 231 227 204 230 222 196 177 173 164 178
143 112 152 118 167 200 219 263 206 190 235 326 320 331 368 449 442 453 448 435 449 466 554 529 406 324 337 322 301 320 327 289 286 274 276 285 245 235 228 198 203 204 191 186 178 178 173
131 137 142 127 186 180 241 236 204 210 240 333 331 323 457 442 432 450 433 444 435 464 552 507 389 320 291 316 306 304 317 293 283 267 270 272 277 244 234 225 195 216 221 193 186 180 181
145 122 151 144 159 206 193 209 205 216 219 334 339 381 457 431 434 457 429 439 439 455 530 458 367 306 323 312 304 304 319 298 284 283 283 273 278 259 235 225 223 214 214 224 218 202 190
151 140 118 144 158 171 225 208 204 221 250 323 340 473 445 439 442 463 426 128 431 472 554 441 341 290 318 303 303 294 309 289 285 294 290 279 271 285 251 236 229 227 224 187 193 216 220
140 148 149 122 156 139 168 170 204 239 279 345 437 468 449 450 405 425 450 446 440 550 459 392 316 296 306 289 318 283 305 293 273 277 269 287 275 268 250 252 231 226 225 216 217 171 182
143 153 151 102 164 127 206 197 197 259 324 349 503 475 465 446 421 418 454 446 478 525 405 326 301 287 302 292 293 296 288 280 271 281 270 276 267 262 283 249 252 232 226 229 209 223 217
146 133 138 135 152 160 201 203 221 195 319 470 511 491 475 470 469 461 469 420 529 414 348 308 277 284 301 299 297 299 276 309 272 275 274 287 266 258 260 273 247 245 231 229 221 218 223
119 143 126 160 146 161 168 202 263 295 319 444 542 550 513 492 491 415 422 491 398 384 322 289 257 239 298 297 293 282 281 321 274 269 276 268 282 261 264 276 271 271 238 229 223 220 222
122 146 137 151 134 210 121 150 294 132 259 438 424 527 509 543 473 515 416 385 358 329 303 295 282 267 298 287 295 291 292 283 274 267 276 280 279 271 257 259 263 270 272 234 228 223 217
156 142 139 134 149 150 170 199 296 294 303 388 410 473 432 438 398 379 373 363 336 314 302 284 274 274 289 289 290 282 266 279 279 264 265 263 266 271 269 262 262 253 275 266 265 231 224
150 142 141 155 131 192 199 153 293 285 301 410 394 319 431 399 385 382 383 337 317 310 288 275 277 263 281 290 280 270 283 286 267 286 283 266 265 270 270 263 256 253 259 263 258 263 239
152 145 122 135 131 193 194 292 291 240 289 293 342 302 398 372 349 290 302 296 282 279 280 286 257 245 273 277 276 274 273 267 277 266 313 289 260 262 262 265 255 254 251 265 264 254 252
152 152 123 223 133 192 215 168 283 256 286 300 345 319 320 290 286 286 284 271 271 268 277 267 269 274 274 272 272 270 269 267 265 300 306 286 279 261 257 260 265 258 257 253 257 259 254
153 149 133 132 188 129 218 291 279 207 284 302 370 325 281 295 280 300 297 292 287 278 282 277 269 269 262 262 257 265 294 299 296 297 294 276 270 271 273 242 259 240 247 246 252 247 253
158 152 173 133 117 127 278 285 281 283 279 294 286 325 315 291 278 297 300 254 263 262 260 256 262 264 265 261 270 284 300 289 283 286 284 285 263 259 258 253 251 259 254 247 245 249 255
189 174 169 133 199 126 260 284 281 292 279 298 293 327 311 288 277 279 257 261 267 267 266 256 267 277 284 291 293 297 293 284 287 273 272 274 268 260 262 263 238 264 264 261 262 270 257
194 155 188 168 127 297 292 284 282 299 281 299 288 302 316 305 263 283 272 270 263 261 261 255 274 281 288 294 286 280 283 276 274 275 271 261 259 262 258 256 253 254 250 249 251 250 252
158 179 188 269 305 165 291 286 289 240 293 294 298 281 310 302 306 264 270 271 241 262 235 252 273 279 272 270 269 274 279 281 273 265 263 261 262 255 252 249 246 238 239 248 254 253 258
178 186 323 279 303 114 290 284 287 289 299 292 282 290 266 286 314 313 272 260 254 251 262 263 263 282 271 270 265 263 262 264 268 272 272 269 265 259 257 255 253 249 252 251 263 271 263
177 314 314 307 297 114 292 284 287 287 301 296 296 284 282 285 290 301 325 280 261 252 252 237 258 280 274 262 256 249 254 259 256 253 255 258 262 265 270 271 271 266 260 251 247 240 232
318 307 305 304 137 114 293 286 287 293 293 302 296 273 292 282 277 278 294 316 288 260 251 255 255 263 279 264 254 255 251 247 245 247 246 243 245 245 245 248 247 245 235 227 224 257 250
317 309 309 299 284 125 214 289 278 310 311 300 281 290 289 281 288 283 274 293 323 294 260 251 234 242 279 270 263 258 260 258 253 249 247 242 242 233 227 225 228 282 281 258 225 210 211
301 304 306 301 136 160 301 298 301 303 313 294 287 290 294 283 293 288 281 280 288 381 297 255 251 241 232 271 274 268 250 239 236 235 233 231 227 272 286 269 228 218 215 208 216 215 230
305 311 127 306 288 298 308 302 307 287 311 305 290 287 290 294 284 289 295 282 280 335 379 296 251 250 255 271 269 246 239 237 238 292 293 293 243 219 217 214 212 211 224 227 216 238 231
288 263 152 133 285 319 307 302 296 308 302 298 301 301 296 292 293 295 291 289 287 340 363 350 275 243 238 262 251 244 236 232 227 226 226 221 218 214 215 216 219 226 226 222 211 239 241

GFSGBSN_2pvu_pres_060.txt.gz
Presure
139 119 126 123 139 151 148 156 151 142 189 206 126 240 333 339 367 469 352 391 451 449 445 436 436 437 255 427 419 304 364 330 360 358 393 246 235 232 228 205 183 190 179 156 162 175 174
110 138 107 107 125 139 152 140 130 149 200 284 192 156 354 487 358 499 471 449 449 431 437 441 495 517 468 448 412 377 363 333 329 354 389 301 238 240 224 202 206 174 189 177 158 170 173
142 141 128 134 151 125 105 140 137 175 217 337 314 229 446 356 498 466 459 431 419 417 445 431 438 453 477 535 429 369 324 354 345 324 377 331 253 237 211 226 198 200 179 190 177 173 62
139 136 136 115 150 152 116 136 160 129 288 286 311 391 367 352 476 440 426 415 437 432 430 404 409 436 470 499 422 356 326 330 323 342 356 327 316 259 235 214 223 202 190 196 177 177 165
116 122 126 105 142 153 126 172 182 189 333 302 334 378 355 342 446 441 420 409 444 433 441 412 308 448 477 438 375 324 310 312 310 332 344 332 312 266 245 230 215 190 202 192 173 193 183
121 102 115 106 151 152 157 149 191 191 329 264 386 366 354 453 413 409 423 409 418 443 431 441 426 462 455 408 345 323 305 309 319 321 335 320 306 311 264 247 231 204 185 200 194 177 166
116 130 128 107 101 104 155 144 187 218 318 313 378 361 357 469 399 407 412 412 424 445 434 471 460 487 399 354 332 314 313 292 316 303 326 311 303 301 299 255 233 225 204 211 206 193 185
124 112 142 147 110 145 172 173 188 239 314 309 373 356 482 496 443 422 427 418 458 446 501 457 431 406 366 336 313 305 287 278 295 292 318 303 301 304 310 297 249 241 225 213 224 202 190
122 117 134 150 153 126 133 207 127 316 273 308 369 352 484 521 471 447 437 468 534 533 482 413 394 372 341 321 304 300 292 272 271 284 310 295 293 299 311 294 264 265 242 229 222 223 201
105 112 120 149 156 162 136 210 174 310 301 304 352 345 434 597 545 536 557 550 400 381 392 382 365 340 323 309 293 283 333 283 281 310 294 314 292 299 292 303 286 250 257 228 232 229 228
133 134 137 124 90 173 154 241 184 306 239 299 308 339 364 467 490 469 450 409 389 380 376 369 341 320 309 300 300 292 282 302 287 280 306 314 317 289 304 292 295 274 238 265 227 233 221
135 148 144 120 146 162 223 219 183 141 294 301 301 337 319 348 337 431 416 397 342 398 351 275 312 301 299 291 307 292 279 285 296 282 281 270 294 311 314 298 295 281 264 244 267 229 233
132 140 140 149 143 166 157 220 182 231 293 298 296 327 313 327 316 320 308 357 338 340 326 295 294 306 308 335 299 289 274 279 279 285 270 275 271 285 302 283 313 295 270 266 248 270 227
136 143 156 148 140 134 162 139 104 309 294 289 291 336 295 312 301 306 298 307 308 288 320 310 307 317 305 295 328 275 281 273 284 277 270 269 262 268 288 300 287 300 285 268 262 269 232
138 147 136 152 157 146 154 122 113 321 288 285 290 279 321 274 284 321 316 296 315 315 306 328 312 285 321 305 293 291 274 277 278 276 286 277 280 278 273 289 289 289 289 281 270 244 258
146 150 152 184 185 145 174 182 116 301 241 284 269 280 321 309 295 280 293 295 285 309 297 307 306 296 286 320 302 280 280 275 278 274 272 287 276 278 275 273 293 287 275 273 283 281 281
148 152 154 127 150 163 137 163 177 238 182 250 277 293 274 323 297 287 282 277 298 284 301 298 296 306 295 296 292 286 269 262 273 286 278 274 276 268 274 276 279 298 285 263 304 282 270
145 150 154 127 148 171 125 190 264 208 294 117 278 300 204 296 312 289 281 275 258 269 290 292 294 300 293 289 286 280 280 278 271 270 282 284 281 270 273 274 264 269 270 271 282 264 261
115 154 151 126 147 228 186 126 286 277 295 236 284 278 279 286 315 301 286 276 264 257 273 285 277 284 288 288 281 282 285 283 274 262 260 281 273 267 271 268 285 277 270 293 266 265 268
164 194 151 150 137 208 281 170 180 273 295 195 289 274 292 274 305 317 301 282 276 264 271 270 282 271 274 268 267 272 276 282 285 265 293 266 279 282 283 272 271 271 272 257 258 266 254
147 146 167 216 141 191 285 210 122 276 209 279 277 280 275 271 304 294 329 306 284 277 265 255 271 285 299 294 288 279 276 272 265 270 270 282 269 259 273 284 259 259 258 260 266 260 258
142 142 192 144 141 270 280 346 124 343 326 138 282 289 274 301 308 296 290 306 314 285 277 268 257 270 278 308 296 302 303 307 300 297 306 295 258 264 291 284 283 251 255 249 253 256 254
170 229 144 173 202 299 230 261 121 345 338 321 302 284 278 293 299 302 284 286 296 330 288 272 264 255 261 261 283 293 297 293 293 287 288 288 290 294 277 272 270 270 267 242 248 254 254
140 155 156 261 269 272 267 294 291 349 344 327 216 301 280 299 310 293 295 288 285 290 310 289 270 260 252 249 274 278 289 283 284 278 272 274 277 279 272 266 267 264 260 257 258 264 268
249 252 222 263 284 240 282 291 285 353 350 332 137 331 281 305 311 300 291 285 284 281 276 292 310 268 261 245 275 267 261 274 279 275 277 268 264 262 269 267 252 247 248 244 240 248 256
149 254 271 271 149 268 324 295 367 329 356 338 113 339 285 309 287 304 290 282 283 283 285 275 283 301 269 256 249 272 257 256 258 264 276 272 274 264 259 254 259 259 260 254 251 252 246
264 262 274 176 272 263 331 290 372 366 362 344 336 339 312 307 332 302 296 291 284 280 285 289 274 275 286 282 250 265 265 252 257 260 254 256 262 273 272 265 258 255 253 251 245 242 248
261 259 267 276 278 183 225 295 358 370 369 363 342 347 324 302 321 308 297 295 280 289 274 284 278 273 275 281 293 252 277 261 256 253 254 251 249 249 251 255 260 267 265 264 260 251 247
250 231 277 259 158 299 153 365 280 370 303 350 135 325 311 313 323 309 294 291 296 286 282 284 286 258 266 275 298 267 252 272 261 250 246 246 247 247 244 242 243 242 244 245 240 224 223

GFSGBSN_2pvu_pres_063.txt.gz
Presure
117 130 124 123 128 136 124 126 146 217 98 196 327 346 386 369 449 520 501 494 490 475 471 463 319 347 325 321 85 97 253 268 299 298 300 330 263 254 235 201 205 191 187 173 148 174 149
100 111 110 113 108 106 139 114 163 215 113 188 315 342 379 472 513 490 468 463 461 451 439 451 452 446 365 340 221 317 297 261 279 311 300 294 287 253 220 239 208 180 183 180 174 142 178
107 133 119 119 110 103 123 102 161 231 157 202 337 359 385 504 478 436 471 438 434 421 421 416 423 437 470 473 399 326 310 302 271 316 322 307 330 270 245 224 206 205 176 187 170 173 163
114 106 109 121 127 160 124 103 158 226 207 202 336 380 527 479 449 425 412 417 415 435 437 438 418 409 431 411 510 406 342 268 155 233 300 297 304 337 254 243 203 211 194 176 188 175 172
142 136 110 114 132 162 150 153 105 228 196 201 225 373 543 477 451 424 418 402 414 422 452 442 401 415 433 464 495 425 397 360 319 278 296 329 313 291 378 247 213 225 214 191 171 185 179
146 137 120 101 138 134 138 166 108 239 109 172 150 259 535 513 460 432 415 415 409 444 430 456 404 427 452 464 500 445 347 383 368 278 318 307 318 325 295 293 234 222 226 187 193 168 185
143 134 128 125 105 124 150 168 146 246 167 199 290 366 364 510 489 451 425 424 422 431 437 432 426 446 467 440 431 412 347 330 334 288 321 296 325 337 357 329 249 216 229 210 190 194 189
144 137 144 134 163 152 146 161 149 251 215 196 281 235 371 492 517 489 475 486 479 478 458 456 464 415 387 366 384 360 326 310 302 327 273 340 308 330 337 331 294 233 230 221 221 188 190
120 144 146 139 163 152 148 152 134 242 215 157 282 320 314 333 412 493 506 501 450 432 465 433 406 359 321 304 295 296 304 291 315 320 304 324 306 298 338 323 326 254 221 219 228 203 202
134 141 143 139 110 158 150 151 154 234 296 194 292 287 349 329 411 350 395 407 418 414 393 385 371 344 321 306 300 300 310 284 290 321 330 298 300 287 326 316 317 266 240 214 211 221 213
133 140 142 156 162 158 150 146 154 198 290 266 290 295 319 326 316 335 333 312 408 385 370 373 354 326 305 288 278 293 287 278 283 296 284 301 294 299 305 330 317 327 237 230 214 216 218
121 140 146 200 163 160 136 138 106 261 270 185 149 289 296 323 313 323 323 379 326 389 321 323 319 311 305 286 284 278 275 270 277 274 293 289 288 295 314 304 337 309 309 238 225 218 220
135 139 132 171 157 139 129 137 126 194 267 191 265 287 319 288 303 299 324 310 343 349 349 319 303 303 306 306 287 279 271 277 266 295 299 280 311 288 289 306 308 319 305 297 274 226 219
135 133 136 128 155 153 145 141 138 251 184 185 270 292 283 291 308 297 329 311 324 310 306 324 317 308 296 283 296 300 271 273 263 263 280 296 288 312 328 291 307 296 314 299 292 281 240
128 134 141 153 158 149 150 139 157 116 240 279 139 320 278 276 307 296 285 279 309 332 322 314 303 307 295 290 291 289 295 288 281 272 271 288 286 293 296 305 304 297 300 314 287 295 263
128 136 148 173 191 148 131 155 181 182 192 290 317 320 285 278 318 299 288 287 290 298 309 300 319 304 319 292 290 291 289 286 285 274 280 272 280 281 283 296 234 323 322 306 302 287 288
128 139 145 172 220 147 117 147 229 203 167 290 307 335 292 281 282 313 291 293 283 278 309 314 307 329 304 297 292 287 276 284 277 283 283 278 273 283 283 283 284 297 299 287 311 298 270
136 131 148 147 146 148 193 235 130 208 257 118 325 331 302 294 309 298 306 296 287 276 269 290 309 304 321 299 288 284 278 274 273 271 271 271 275 273 277 282 284 290 297 290 279 299 283
145 140 128 151 142 248 138 230 249 181 268 163 325 343 141 311 275 309 320 306 278 279 275 269 279 283 297 308 292 285 279 267 277 263 282 274 268 263 267 276 273 271 280 285 290 275 290
157 190 148 191 143 180 133 158 239 167 237 260 274 321 316 328 284 295 308 311 302 287 275 268 269 287 280 272 277 282 277 276 270 270 266 266 277 282 272 263 259 259 267 268 276 293 269
171 158 180 202 95 153 141 165 237 127 260 235 335 267 320 315 308 292 300 296 324 295 288 276 265 273 288 289 279 271 274 275 281 283 269 272 267 260 277 281 272 271 270 273 265 275 276
196 141 155 147 155 170 139 193 242 249 238 258 193 342 357 333 317 311 298 295 295 332 297 282 276 268 271 283 309 299 284 273 271 270 287 274 260 283 267 278 281 278 270 289 267 260 287
145 146 132 139 150 173 134 241 186 242 116 244 305 359 344 315 322 317 286 296 287 291 326 298 284 273 266 256 281 287 306 306 298 295 288 270 269 278 272 260 261 277 268 270 267 270 250
132 142 171 154 145 200 254 245 266 217 126 262 288 341 343 342 327 317 315 309 293 291 285 315 296 282 275 267 260 279 286 293 296 300 292 299 303 271 259 266 259 287 289 260 259 256 254
138 135 183 216 231 214 156 127 166 184 240 244 258 359 374 346 118 318 307 308 296 289 284 281 285 301 280 268 262 278 271 276 284 287 288 287 286 287 298 280 275 274 276 262 249 248 251
138 153 136 129 250 130 243 245 218 261 153 180 282 364 378 359 333 203 312 290 303 294 284 281 288 278 304 276 268 258 273 260 264 280 286 276 273 280 276 277 267 261 263 266 267 255 240
135 244 252 181 128 140 144 162 188 235 253 251 285 390 348 283 343 325 312 300 311 294 288 285 277 287 278 292 277 263 264 262 253 262 272 277 275 265 268 272 264 259 251 247 250 251 251
233 186 270 116 140 150 161 227 264 179 153 276 300 377 388 367 351 337 319 320 320 299 294 287 283 283 284 272 277 285 262 274 260 253 260 260 271 271 264 263 265 257 247 245 250 244 240
234 161 177 130 143 216 242 168 149 240 212 223 301 378 307 363 347 341 319 307 323 300 288 288 275 278 280 288 271 264 287 259 275 255 256 257 255 260 269 268 263 259 262 262 258 263 260

GFSGBSN_2pvu_pres_066.txt.gz
Presure
155 137 129 123 102 101 116 131 146 141 236 241 270 185 385 377 498 500 482 479 461 467 475 500 368 310 309 322 296 151 171 154 288 293 310 311 293 262 253 240 201 162 197 187 191 174 154
118 141 106 131 118 120 151 139 147 140 151 191 328 150 381 370 488 469 437 472 442 440 446 450 467 443 341 308 322 292 159 280 294 199 169 321 332 266 258 249 242 227 198 186 186 181 183
132 142 143 148 131 114 136 143 130 110 168 195 107 247 292 359 492 458 436 422 414 431 436 443 423 452 461 336 318 323 288 301 276 231 274 302 301 261 278 257 245 223 187 212 184 186 144
131 140 139 139 128 114 162 142 146 122 233 197 200 115 289 355 498 463 434 418 416 428 422 456 413 426 436 466 333 294 282 290 144 231 278 281 304 305 258 251 262 245 206 210 172 185 182
116 143 144 143 133 164 157 142 120 140 223 139 182 127 262 355 512 438 425 419 418 421 451 460 445 423 433 444 479 322 316 283 286 267 270 287 303 292 281 300 258 258 209 200 196 177 187
132 142 129 137 119 162 134 121 142 148 216 200 193 256 351 357 541 487 459 441 434 446 443 463 432 411 422 432 467 481 326 305 286 270 258 273 283 305 299 267 188 274 250 188 186 193 153
132 143 132 139 165 160 131 130 141 148 195 183 201 269 348 355 376 465 464 492 450 443 445 428 431 430 432 467 484 460 322 319 273 267 290 256 301 281 313 280 340 273 257 232 188 178 193
131 149 135 131 128 164 164 136 134 119 207 150 222 145 331 348 356 428 464 462 486 363 376 380 455 455 449 455 460 393 388 381 303 271 287 285 258 287 286 305 299 382 275 245 218 190 204
128 143 142 126 155 163 164 135 134 136 182 238 265 256 272 330 341 332 384 442 389 375 358 352 346 361 432 360 349 336 363 379 370 270 256 279 254 255 290 293 331 357 318 260 254 207 189
142 141 141 125 157 157 164 132 135 151 178 270 339 298 201 335 341 345 353 392 378 363 352 346 349 342 347 331 318 317 317 354 345 329 282 251 294 252 303 309 309 339 363 263 260 224 203
130 137 135 124 152 161 183 116 154 129 268 271 205 338 203 331 302 317 321 387 361 343 359 333 312 317 340 324 308 312 320 322 317 311 309 312 308 309 260 293 348 343 344 358 241 242 230
146 140 135 143 158 172 166 134 125 188 185 175 233 300 335 301 310 304 321 312 328 361 325 302 299 298 298 300 286 283 298 288 308 285 288 283 300 327 286 294 319 300 346 278 307 246 220
134 137 132 159 134 152 158 208 128 174 160 188 227 293 327 265 299 291 292 310 306 322 314 316 306 296 288 284 292 297 274 292 293 330 314 297 291 305 292 288 283 328 344 336 336 274 240
127 121 129 153 125 150 140 182 133 202 251 120 233 280 317 334 312 300 298 320 308 343 308 328 304 298 299 284 280 273 276 273 280 291 288 290 294 292 296 300 266 299 351 325 337 326 301
129 121 129 140 124 152 153 133 136 161 176 250 200 243 304 140 321 301 306 307 302 315 316 312 315 307 298 295 288 291 289 282 280 292 296 288 297 280 288 309 309 311 311 339 319 326 261
124 127 140 128 140 164 160 151 129 150 168 231 224 238 266 337 334 316 309 308 300 298 315 305 307 310 300 308 295 285 292 286 276 281 282 286 295 305 312 308 305 295 300 316 327 326 302
120 127 131 122 143 150 196 192 144 197 241 219 176 200 214 266 334 259 299 312 301 297 295 320 326 297 296 302 303 297 277 276 275 270 273 274 289 289 293 297 294 306 331 306 304 318 306
125 136 128 133 110 120 146 144 127 180 154 253 237 250 152 264 338 326 316 307 307 297 288 288 297 326 306 300 298 297 296 289 285 276 270 265 275 278 283 281 281 282 306 323 314 292 316
127 135 128 133 110 116 178 221 131 147 196 190 168 201 166 252 289 328 320 313 304 304 296 288 287 289 316 295 294 293 301 291 283 286 272 280 276 277 272 275 273 265 270 286 284 300 312
128 131 142 135 145 107 146 132 143 175 240 130 179 180 231 237 243 332 326 310 234 299 300 296 286 283 290 281 288 286 283 274 277 269 276 267 266 267 265 262 275 277 288 283 270 286 275
127 118 137 139 145 131 146 156 130 155 242 143 154 194 169 249 259 348 330 321 299 292 301 293 293 281 275 288 286 278 269 278 275 273 267 269 273 285 275 267 259 264 268 275 276 277 279
125 119 123 134 144 137 140 167 132 200 247 251 256 244 266 191 291 331 325 312 309 292 299 298 298 294 285 276 280 300 283 274 271 265 278 273 271 267 270 285 268 264 260 259 259 266 271
125 121 134 143 127 154 152 143 179 187 236 148 241 161 241 256 278 363 329 320 317 302 288 293 294 299 291 284 276 285 295 299 293 280 272 267 273 281 270 272 266 270 273 262 262 266 264
122 123 143 143 148 104 178 175 244 131 146 197 176 254 251 259 239 367 348 336 316 300 291 280 292 298 286 287 281 273 283 288 302 309 311 285 280 270 286 265 278 276 280 278 281 272 276
129 130 143 109 156 124 150 136 222 189 145 163 158 151 143 175 274 330 358 337 321 306 312 295 285 283 285 292 283 278 274 273 278 295 300 300 293 305 305 269 277 266 258 271 276 275 271
149 138 139 147 127 138 140 136 131 151 207 139 148 199 252 282 289 251 364 350 329 313 315 292 288 281 288 276 294 278 272 277 270 265 286 289 293 289 290 297 265 264 263 287 296 268 268
185 140 135 151 158 138 203 140 141 250 192 191 144 139 133 272 276 329 358 355 333 323 319 307 289 285 283 272 279 297 279 269 279 266 262 281 283 280 279 286 296 288 271 278 282 262 263
132 144 123 134 131 143 162 188 153 152 152 230 137 211 210 183 290 319 227 357 335 322 316 291 301 289 283 277 271 274 280 280 268 271 259 260 276 281 272 275 282 269 270 261 262 269 255
151 120 105 149 149 143 135 221 241 177 240 231 138 260 162 138 288 385 356 365 338 331 324 299 313 295 285 282 275 273 272 272 288 265 269 258 260 269 280 264 273 267 261 265 262 260 257

GFSGBSN_2pvu_pres_072.txt.gz
Presure
123 134 109 143 151 118 133 131 124 125 159 145 188 231 304 360 231 394 474 453 439 430 429 451 474 465 507 325 327 315 177 280 279 291 302 288 310 311 347 317 229 204 203 197 223 197 183
125 131 141 143 162 153 156 140 138 138 141 155 257 134 253 403 387 388 491 460 447 433 437 433 445 459 496 340 336 307 307 282 272 277 300 286 305 306 328 390 203 212 207 201 103 200 207
126 116 127 155 132 141 158 132 140 150 139 153 92 107 275 377 321 407 444 484 460 436 442 429 442 459 473 359 329 315 299 310 268 274 304 283 297 305 316 406 337 227 212 217 207 242 195
122 111 122 154 111 130 148 150 144 151 118 126 251 156 180 339 374 366 466 450 472 479 473 460 448 450 455 456 329 317 295 309 281 267 268 273 290 302 310 364 304 250 230 232 156 208 200
122 131 127 151 109 126 149 159 139 150 132 148 248 176 219 159 358 353 399 412 483 472 468 488 465 445 449 465 329 315 298 293 297 278 266 271 289 303 298 340 303 282 234 236 207 212 219
122 122 131 139 142 126 139 135 122 121 161 158 212 222 216 237 282 355 350 362 361 404 443 464 484 443 442 473 334 319 303 291 302 285 267 276 288 291 288 329 307 287 262 239 222 212 182
138 126 131 158 144 125 119 172 127 114 116 153 181 182 234 229 318 354 340 361 344 357 395 406 474 459 456 458 347 320 310 288 295 286 267 289 292 287 285 298 336 337 291 267 242 220 228
120 140 128 136 138 140 158 161 141 132 145 137 182 232 197 241 268 250 349 328 339 326 349 392 395 468 468 466 447 316 310 291 293 294 292 285 280 282 300 283 319 322 275 267 253 252 250
117 140 129 136 141 142 145 165 124 169 161 179 169 164 181 174 189 240 301 330 335 329 332 367 380 401 412 480 493 307 311 294 285 282 292 288 275 280 276 283 297 266 269 253 260 262 252
147 133 134 115 104 143 137 157 129 152 151 142 128 132 223 184 243 268 275 325 346 343 329 326 368 362 410 471 472 359 302 298 288 285 301 281 285 270 279 286 290 302 329 266 251 255 264
138 125 120 128 138 117 149 142 132 162 138 142 130 152 191 141 213 269 263 263 336 315 326 328 348 366 368 457 442 448 279 293 287 281 285 288 270 282 269 274 285 284 304 285 261 251 250
116 116 142 134 124 131 122 138 153 135 134 150 216 156 165 234 175 204 273 242 245 324 344 333 323 333 348 360 398 395 283 296 286 281 279 284 294 274 273 278 277 288 277 270 311 269 255
138 114 144 122 133 133 137 143 138 143 108 137 157 155 129 133 217 159 231 245 288 330 325 317 327 327 354 335 343 358 373 274 286 286 287 278 281 284 274 276 285 288 289 283 270 324 263
145 119 144 151 133 143 135 114 128 148 135 111 145 161 211 160 153 188 190 270 320 334 317 319 319 315 328 306 340 347 273 289 272 270 280 283 275 263 286 282 278 284 283 291 289 267 314
136 147 141 131 140 130 132 139 135 153 167 146 145 148 152 156 169 230 215 149 236 161 324 309 311 324 330 306 329 336 342 365 275 278 279 282 282 277 268 266 286 280 278 281 293 304 305
137 132 150 128 144 150 115 135 99 162 142 150 148 142 147 209 165 141 224 179 229 266 322 314 305 325 318 331 304 324 330 342 345 286 284 294 289 289 278 273 280 276 281 278 296 291 283
128 134 128 128 150 160 113 123 133 150 137 144 146 214 143 155 234 143 251 184 197 303 242 323 308 303 310 315 313 299 300 300 337 338 338 313 295 286 290 296 295 310 273 260 253 259 285
119 119 132 128 116 125 116 130 146 145 130 127 216 110 150 159 147 155 157 96 141 158 251 328 311 303 300 314 304 300 302 310 307 302 311 314 312 305 298 285 291 284 308 307 307 302 301
124 122 143 133 119 134 127 132 134 146 169 124 158 145 188 157 175 156 152 155 142 157 207 339 321 305 301 293 306 308 311 304 278 284 283 291 293 291 288 288 287 285 284 290 301 308 309
154 112 136 127 180 136 117 130 138 128 149 137 136 156 166 133 193 163 153 165 143 222 198 353 331 314 299 293 287 301 296 288 298 275 291 279 278 282 290 280 292 282 297 291 281 289 300
185 148 137 142 135 128 121 109 134 141 147 128 158 121 151 168 154 152 210 253 230 237 148 175 341 322 305 297 291 281 295 289 287 287 274 276 277 276 274 265 269 271 268 275 274 285 294
114 148 134 137 168 137 123 130 114 125 145 150 202 133 162 161 144 199 255 261 132 263 259 320 346 326 308 293 296 290 283 278 293 283 278 279 275 270 273 267 267 271 275 262 263 267 279
145 147 146 137 116 108 121 131 135 137 153 106 178 140 146 242 225 164 251 186 183 272 273 124 355 332 315 301 290 289 286 279 281 298 288 279 281 282 275 268 268 270 269 266 268 274 268
162 131 141 134 124 123 125 111 136 126 127 137 151 168 157 204 156 228 252 235 233 260 354 374 280 337 286 306 291 287 292 279 278 270 297 293 288 282 275 281 268 268 264 268 277 268 271
150 145 164 113 126 105 122 135 129 156 184 146 122 141 226 247 184 199 215 148 256 281 344 385 199 345 300 307 295 283 281 286 281 275 270 291 302 306 298 281 276 280 272 274 276 260 277
128 128 138 123 118 130 155 102 179 166 135 210 126 180 174 133 139 148 181 262 267 137 349 420 150 297 330 311 303 287 282 296 287 280 275 267 282 296 300 309 307 281 275 287 270 274 288
145 143 136 111 131 124 143 149 145 134 191 206 196 144 148 158 208 174 259 258 165 178 447 406 367 310 332 309 305 295 286 285 287 287 278 269 270 272 291 302 295 296 304 304 283 281 268
142 144 118 121 123 129 134 174 135 121 130 142 121 222 138 204 236 238 257 260 185 210 489 242 377 124 226 325 303 297 286 280 283 285 292 276 271 269 263 287 288 287 287 292 307 273 269
143 135 131 141 134 176 141 142 138 97 185 230 240 156 243 170 153 131 247 251 238 177 135 406 369 354 344 330 312 299 286 280 280 274 278 295 272 266 271 262 273 281 277 282 298 291 272

GFSGBSN_2pvu_pres_078.txt.gz
Presure
100 106 121 131 141 120 118 126 117 116 165 127 177 146 148 123 212 222 273 359 377 363 433 518 488 461 497 494 452 332 330 338 321 288 301 294 286 268 252 233 220 207 187 181 139 181 183
117 105 129 107 143 152 140 130 131 144 173 154 145 146 145 147 135 152 210 326 360 377 396 523 508 466 479 480 500 350 326 323 329 308 278 297 291 279 260 244 228 214 197 187 155 193 184
133 119 126 137 135 161 128 159 127 163 108 125 130 135 138 142 124 164 176 324 331 379 369 464 489 487 472 479 499 404 324 320 325 318 299 284 292 289 272 255 237 221 213 197 132 201 191
97 126 134 155 150 154 133 108 104 137 141 145 144 183 130 147 203 164 263 176 306 363 353 400 472 470 477 485 476 473 340 310 315 329 312 235 288 285 283 271 245 231 223 198 196 194 191
101 112 139 121 122 132 137 127 116 120 99 152 151 135 138 128 137 130 208 164 316 279 366 377 475 472 474 499 476 459 346 320 317 323 317 322 273 288 280 279 265 235 227 223 206 195 195
110 156 169 135 136 164 111 129 159 116 131 116 159 167 123 118 139 153 172 255 192 317 369 365 493 472 473 493 461 441 336 319 313 316 318 361 275 280 282 274 278 250 229 222 223 202 197
169 124 124 120 136 156 135 104 117 137 139 151 134 142 141 197 146 135 193 279 281 317 334 365 405 485 485 484 462 385 337 318 304 314 312 305 339 259 275 271 265 271 261 235 225 222 207
150 131 128 136 151 147 115 134 149 113 118 157 125 150 181 128 142 170 136 183 241 285 318 368 371 499 505 486 431 367 336 319 311 313 313 330 323 270 265 275 277 269 260 252 254 232 229
163 127 161 125 133 159 125 152 147 132 117 139 129 148 175 142 182 157 162 182 256 216 303 331 365 479 509 455 405 349 328 309 301 307 328 324 321 280 263 266 297 285 269 261 262 268 258
121 158 157 141 158 149 135 139 103 154 136 124 131 137 157 143 131 147 123 229 237 203 306 309 357 388 505 471 365 341 319 309 310 302 316 299 317 314 265 279 267 272 263 260 258 261 257
139 154 131 148 154 133 141 113 130 146 127 115 92 126 138 159 168 202 231 178 261 186 181 148 319 357 519 421 331 301 317 299 300 306 308 301 309 301 287 286 275 258 302 263 286 301 292
97 114 124 144 151 125 148 127 136 146 140 132 117 133 150 123 122 166 223 168 222 170 209 235 320 345 469 403 345 306 316 308 312 330 319 316 313 297 290 275 270 258 305 292 302 307 280
151 132 117 146 148 155 124 124 145 150 124 140 124 123 139 161 122 153 169 162 169 205 257 230 270 324 331 489 337 317 309 303 324 311 303 298 304 307 290 290 252 284 294 309 288 297 316
150 145 138 151 114 155 131 126 160 170 137 129 141 152 144 158 187 139 179 184 154 178 240 154 280 303 343 370 346 316 310 301 296 304 313 302 308 305 293 278 275 270 280 299 295 281 294
145 142 143 131 203 147 134 163 137 150 139 143 163 135 162 131 162 158 236 167 163 125 261 157 269 293 312 333 401 332 314 305 296 296 300 309 306 295 292 288 285 285 290 281 290 294 285
132 136 141 128 153 140 138 139 156 143 145 142 129 116 147 146 161 157 203 204 212 172 181 177 226 276 326 340 327 393 325 305 303 294 285 286 291 300 292 287 284 286 281 282 287 292 283
144 123 129 123 117 139 129 136 131 161 144 149 151 133 117 146 162 163 183 164 191 233 177 240 160 257 268 342 333 313 332 354 301 297 290 276 287 287 290 289 280 278 282 284 281 273 287
192 123 109 137 146 134 127 153 127 154 160 135 127 140 123 131 140 148 145 207 153 166 231 191 185 250 164 369 343 322 304 317 349 311 292 293 283 279 287 284 283 290 284 277 165 279 291
130 126 149 132 137 111 126 149 152 126 130 146 141 150 142 143 162 145 150 231 225 184 150 228 260 251 288 288 293 335 314 299 311 313 331 316 286 287 286 268 288 279 263 268 283 287 281
141 134 119 118 132 117 121 149 152 114 140 146 141 142 136 152 168 163 185 205 137 205 145 229 186 172 260 281 315 322 329 301 301 305 299 312 331 316 296 286 282 277 277 281 281 290 284
140 121 115 137 120 125 127 135 146 132 150 127 135 121 119 147 156 168 148 215 168 150 207 178 225 223 157 202 182 360 336 315 291 295 302 295 299 311 308 314 310 313 313 306 284 270 277
218 207 136 140 139 121 122 156 157 151 150 148 139 126 114 157 128 138 141 165 218 163 186 197 171 221 210 152 144 373 356 324 299 285 305 297 287 286 289 286 295 296 303 305 297 293 293
229 135 131 144 142 125 127 162 144 151 126 146 144 130 110 156 138 128 159 171 209 193 154 168 193 270 273 141 216 369 356 331 305 285 285 303 296 285 285 274 283 284 288 287 289 284 289
178 131 125 180 142 155 131 145 112 108 135 140 136 127 110 142 154 134 120 142 192 189 150 222 250 257 261 314 158 381 363 342 311 291 283 282 294 300 286 283 288 275 279 278 283 285 282
111 133 140 144 139 154 133 145 143 142 149 143 114 106 133 143 124 159 164 205 147 173 234 239 229 246 248 324 429 360 355 348 315 295 289 284 284 279 297 296 287 276 280 282 271 269 283
138 125 126 143 133 152 143 155 146 148 115 129 101 131 132 120 155 167 130 139 187 230 160 170 168 236 279 538 430 411 380 347 318 295 292 291 285 279 280 297 296 283 284 289 289 273 277
125 129 135 143 140 172 142 140 135 146 125 123 126 118 125 151 193 145 112 146 201 177 210 164 206 262 328 274 478 138 298 348 328 298 291 293 292 284 278 270 270 293 296 290 284 284 280
133 197 185 198 149 202 150 146 146 151 118 116 123 116 125 152 183 110 150 199 225 142 191 170 171 199 299 172 446 421 295 264 330 304 291 291 293 289 283 277 271 281 273 286 301 307 290
218 214 179 144 227 139 169 137 147 118 121 118 156 144 147 231 131 211 135 192 205 218 164 229 284 280 284 154 173 177 361 343 336 306 296 287 282 288 292 283 278 276 274 270 291 304 310

GFSGBSN_2pvu_pres_081.txt.gz
Presure
101 112 132 123 138 161 160 163 125 111 118 179 158 171 135 146 145 128 121 284 283 339 356 385 521 506 470 484 440 403 345 335 339 310 303 303 307 289 272 258 228 218 251 195 185 186 186
110 117 121 127 139 153 90 156 145 127 99 110 135 131 131 128 144 168 120 183 211 331 358 380 485 499 489 498 438 415 360 327 325 323 304 294 305 293 285 267 248 223 248 206 190 188 164
112 119 127 122 112 126 140 160 120 164 124 159 103 111 124 124 145 139 150 190 158 264 370 373 419 479 489 494 464 424 380 331 325 329 314 297 303 297 288 273 257 230 226 234 195 184 191
112 124 120 108 155 115 139 123 150 133 145 167 127 169 148 128 184 141 174 177 156 193 352 369 384 473 482 496 505 431 427 335 320 327 355 306 285 299 290 278 262 244 228 230 215 192 108
114 123 135 140 126 128 126 138 124 160 131 119 115 121 147 124 139 184 171 161 170 165 329 367 382 477 495 493 495 451 429 335 316 317 332 316 284 288 301 283 267 255 235 229 236 204 187
121 111 130 137 119 142 136 158 143 125 117 118 133 108 107 176 118 134 212 168 155 162 310 370 390 490 494 470 452 493 384 336 314 312 324 343 313 278 297 297 225 253 245 235 232 238 197
121 125 124 173 109 151 140 135 132 149 143 174 110 103 145 178 162 142 166 142 128 290 282 335 384 503 483 464 465 523 370 336 320 316 312 348 336 289 276 290 284 267 249 237 232 234 205
119 119 129 161 147 143 132 161 142 118 119 149 134 145 170 123 109 125 123 186 136 171 297 257 363 502 497 471 468 440 371 344 328 301 315 342 322 324 274 280 280 278 260 248 238 236 235
118 117 130 126 138 155 147 143 134 129 144 111 127 114 134 144 130 121 154 156 196 174 266 234 307 488 471 468 453 406 369 343 323 304 303 319 318 308 293 272 284 276 274 261 250 238 241
140 120 116 125 146 144 150 149 152 135 131 147 143 119 112 110 171 135 157 133 127 156 201 196 182 388 450 453 411 385 336 324 310 305 301 312 322 341 343 273 273 279 274 273 265 245 240
155 115 98 117 95 136 181 170 157 123 145 96 124 110 120 102 122 145 184 145 153 175 212 176 127 292 379 371 376 344 324 315 310 315 322 313 311 347 294 276 264 279 276 272 273 260 244
139 126 125 126 151 133 141 146 149 143 149 119 145 125 148 156 122 144 141 197 164 188 194 273 241 273 290 356 357 340 333 322 315 313 315 325 336 320 314 310 268 264 272 272 267 264 263
126 169 135 173 140 127 147 136 145 140 151 123 120 152 160 133 142 132 137 175 170 199 159 237 182 179 205 293 359 344 332 323 314 312 305 309 329 317 314 312 273 261 259 264 272 311 262
144 126 119 144 144 138 143 144 137 135 137 135 153 123 125 154 140 123 160 148 160 194 241 200 213 168 245 265 291 352 336 325 315 316 327 326 313 308 311 304 304 264 256 260 260 256 304
194 132 200 149 139 140 139 125 135 151 152 156 137 131 141 119 167 109 132 146 149 206 188 213 164 244 270 273 283 274 359 341 322 320 337 325 313 317 301 295 282 285 282 250 281 257 307
149 122 119 142 150 120 130 146 151 138 149 122 131 160 124 149 153 140 114 174 171 220 169 162 204 172 289 268 275 304 278 341 330 319 302 299 295 313 308 297 293 278 280 287 251 294 261
140 132 140 127 180 141 130 126 144 135 144 155 115 140 132 136 155 162 136 177 175 154 176 237 183 149 225 196 261 270 299 337 326 324 312 302 298 298 297 286 295 291 285 281 277 270 280
204 198 163 133 147 133 150 134 125 139 145 106 221 154 141 151 157 161 138 135 157 160 193 224 241 251 164 266 149 299 289 341 330 309 321 311 302 292 308 295 296 284 284 284 282 279 275
195 145 201 113 126 131 124 108 124 175 130 145 156 125 135 150 126 134 150 170 157 149 163 151 162 190 199 205 273 260 198 346 331 315 308 326 306 296 292 294 292 294 296 284 279 281 283
200 209 137 156 157 127 127 126 134 134 180 143 119 144 143 151 141 143 167 133 139 171 195 221 220 161 235 256 260 163 221 357 337 317 303 302 346 316 302 291 292 283 279 289 294 292 286
128 186 143 190 193 189 136 133 129 126 152 136 126 142 121 139 129 147 120 160 142 202 217 179 168 214 225 174 269 272 423 374 345 319 304 295 301 316 330 319 314 307 280 280 276 273 281
235 143 139 145 190 230 136 125 144 140 151 142 151 154 150 110 151 152 151 142 210 117 151 150 205 212 245 197 264 322 266 400 365 328 303 298 295 302 302 323 330 321 315 314 312 312 282
139 150 222 218 198 171 136 147 140 141 151 143 151 152 148 139 139 157 122 124 163 176 205 134 198 163 197 241 288 316 437 398 367 337 310 297 288 295 297 295 295 304 291 302 311 313 317
182 132 241 130 136 173 127 139 139 142 150 143 148 143 116 137 126 113 141 125 151 164 230 178 216 210 170 178 251 370 452 140 358 329 322 296 287 289 298 292 294 286 286 282 293 294 307
225 145 143 137 126 211 127 131 144 142 150 144 149 130 128 132 130 126 152 160 148 184 138 226 142 220 198 291 291 318 426 177 251 213 326 301 290 284 288 294 289 284 282 280 283 285 291
209 154 231 145 229 209 132 134 149 143 202 141 146 152 94 136 109 150 134 102 125 151 186 199 219 206 179 228 312 458 437 175 182 373 202 301 294 289 285 294 292 281 283 280 283 283 281
237 225 165 165 143 217 129 138 149 144 223 142 152 135 122 130 134 136 117 115 151 193 163 220 173 205 229 223 249 322 140 174 364 372 339 306 293 288 278 281 276 282 291 288 290 277 276
248 131 238 228 226 176 156 149 222 160 223 143 156 149 145 146 100 132 109 152 159 181 134 222 182 198 207 203 227 154 150 143 150 160 341 321 301 291 286 279 269 271 279 291 301 288 284
251 243 231 133 142 226 142 217 214 171 168 145 163 146 157 137 140 143 109 204 147 227 144 192 158 181 241 199 215 148 163 413 147 153 345 321 303 297 293 288 278 277 269 276 272 279 290

GFSGBSN_2pvu_pres_084.txt.gz
Presure
122 101 119 121 135 130 129 140 163 130 152 147 135 127 115 122 132 150 137 141 143 334 154 284 502 499 480 467 459 407 374 351 336 340 304 306 298 300 334 268 228 219 218 188 182 199 212
113 126 109 119 117 107 150 140 157 155 177 162 105 120 102 158 121 124 129 177 193 182 249 402 502 491 500 480 443 405 379 360 335 329 317 308 287 297 324 293 230 204 206 184 188 225 219
112 122 116 116 134 103 122 104 169 119 144 131 120 132 114 120 128 137 133 159 133 124 278 414 501 491 498 500 459 422 399 372 326 318 325 303 299 271 329 301 278 215 197 220 194 189 229
121 113 117 95 126 136 158 158 128 150 133 147 105 124 109 129 111 113 125 137 140 223 152 211 510 499 509 509 507 419 411 364 325 315 323 314 301 277 312 307 282 268 215 201 204 203 230
119 113 127 127 112 125 144 157 148 137 163 139 129 144 104 124 120 140 143 123 144 131 148 245 523 435 506 515 423 420 400 356 324 315 319 333 302 290 275 307 289 277 267 238 211 204 211
123 124 126 119 145 133 137 158 121 155 128 136 162 137 160 147 151 120 175 148 160 168 310 181 384 474 478 512 424 408 419 346 322 309 324 322 301 296 275 302 294 128 273 253 227 220 207
121 125 118 126 128 132 132 154 154 134 157 151 140 154 123 151 123 114 150 206 167 155 242 297 193 370 488 489 433 426 429 346 320 307 315 340 333 300 283 279 301 290 278 259 239 226 215
120 124 126 122 136 132 134 149 157 145 134 127 154 157 152 139 124 154 125 109 174 113 150 264 309 296 487 513 477 422 430 354 323 307 319 331 333 339 287 281 292 288 278 264 250 237 230
117 116 125 125 113 131 130 111 130 135 154 145 141 143 138 102 134 129 109 141 135 181 173 199 288 287 299 527 507 464 394 347 323 314 314 336 338 333 290 287 290 313 277 272 261 248 233
117 117 126 117 138 131 125 130 141 134 157 141 149 154 140 126 130 117 134 135 115 182 161 160 146 297 280 292 386 375 348 344 318 307 315 304 325 322 329 291 279 276 286 276 270 257 242
118 137 121 146 140 127 134 203 134 149 149 134 134 143 166 178 170 134 149 109 168 113 156 168 283 224 294 278 299 348 348 337 321 314 306 295 311 341 336 323 282 270 277 292 272 264 251
124 117 122 126 145 195 128 144 136 149 133 160 144 122 128 164 168 160 171 159 141 181 167 199 174 274 247 277 270 270 314 355 321 307 325 318 305 323 330 312 296 278 278 276 280 269 260
171 238 126 118 131 147 147 200 158 136 126 148 138 146 148 131 214 153 135 168 152 167 201 181 208 249 185 263 270 283 290 360 339 331 313 315 315 311 322 314 308 295 271 278 278 280 272
131 106 156 122 139 151 140 159 130 136 176 176 133 190 154 135 152 135 162 140 139 159 177 219 175 223 237 264 266 264 298 296 352 329 326 303 299 307 304 338 335 321 277 266 272 276 268
142 214 183 127 153 159 175 142 148 117 142 149 127 140 150 159 156 151 124 101 148 152 213 167 176 246 241 182 255 236 272 307 335 341 332 324 328 335 317 309 306 328 306 267 258 266 269
205 158 181 158 132 165 176 149 156 161 147 145 136 144 150 163 156 124 149 172 140 183 165 147 187 173 160 162 232 262 224 266 358 349 341 323 315 303 317 294 302 308 310 282 260 261 264
140 133 169 132 199 212 146 207 191 112 137 143 152 144 123 157 131 136 162 124 156 153 172 152 176 207 208 184 229 181 142 168 309 339 340 324 309 309 300 299 298 296 291 293 279 255 252
258 136 185 142 224 129 179 124 146 130 135 129 134 163 135 144 102 164 161 137 160 160 146 180 179 180 225 132 256 258 141 133 315 349 331 331 317 303 302 304 305 294 289 282 280 273 257
215 134 229 167 144 225 123 143 116 146 141 125 148 138 145 143 139 159 132 111 144 156 176 129 162 191 175 230 220 205 171 201 333 357 332 319 310 312 300 298 293 297 295 283 278 278 273
173 248 143 247 230 140 177 170 154 136 122 231 143 147 143 150 155 150 119 124 142 149 170 143 169 186 172 232 239 221 271 386 395 358 339 315 310 312 307 298 294 292 291 302 297 286 274
148 244 158 196 224 135 143 140 130 166 134 140 149 147 155 149 155 144 128 133 152 146 160 140 163 198 159 225 182 195 214 456 422 372 342 327 307 300 320 311 301 285 292 296 290 281 280
199 116 241 240 136 142 177 140 191 160 140 141 139 147 151 154 145 143 137 117 114 166 151 118 134 202 186 232 160 176 198 320 445 137 158 320 309 300 297 328 315 314 275 294 295 289 290
194 205 247 209 133 230 134 140 223 232 140 138 232 151 153 111 152 146 129 154 129 163 173 184 169 134 182 224 176 234 281 325 421 425 373 308 314 302 295 299 309 338 327 316 299 286 287
196 167 188 167 236 132 164 182 136 196 144 137 153 150 147 167 155 160 147 117 131 108 135 177 154 196 209 158 224 218 257 454 298 310 162 274 317 306 297 291 307 290 308 328 326 314 320
179 162 245 238 227 243 139 154 144 149 222 137 143 175 146 157 111 98 131 90 158 116 143 131 185 168 166 157 184 198 201 523 251 454 186 184 330 304 298 291 288 287 290 302 299 297 312
194 207 186 237 228 240 135 140 147 138 128 138 139 179 148 155 138 151 146 101 149 119 165 204 225 167 150 159 215 249 182 418 282 156 146 199 330 319 302 288 280 286 288 288 290 294 285
190 206 249 179 226 213 222 140 226 229 142 144 142 142 144 152 146 125 156 149 114 133 155 170 200 138 192 195 197 179 217 295 154 157 142 147 153 314 303 291 282 286 286 294 288 281 276
191 200 250 242 237 226 227 227 220 176 227 174 222 188 176 159 159 135 145 148 132 144 165 145 152 149 159 224 188 213 242 326 149 154 375 144 255 327 302 294 280 287 271 294 287 284 283
192 198 218 254 249 235 232 147 132 135 224 210 202 189 175 162 167 147 137 170 136 140 114 116 135 195 173 194 164 170 246 340 426 404 402 148 371 328 312 295 283 287 291 281 289 291 288

GFSGBSN_2pvu_pres_090.txt.gz
Presure
170 119 112 115 114 116 117 109 131 116 134 144 111 155 136 115 145 120 181 100 158 131 151 160 127 241 143 480 434 453 438 403 349 330 326 318 340 314 318 293 271 252 248 244 203 194 186
119 115 111 111 111 114 114 119 122 123 125 133 113 138 168 151 147 139 168 133 235 132 121 128 157 138 495 486 457 454 409 386 346 328 324 320 315 328 317 291 281 273 246 248 211 189 175
122 112 170 116 115 117 117 115 125 107 113 148 142 190 155 151 157 138 120 134 141 152 166 176 128 153 549 444 476 437 405 380 348 327 324 325 339 315 307 299 293 278 288 249 225 207 180
121 114 120 134 125 128 138 121 119 128 124 158 147 150 145 121 147 156 188 155 159 151 131 149 202 303 344 474 476 414 400 378 361 324 322 331 332 307 294 307 282 281 276 273 219 222 176
120 125 126 228 132 174 129 126 114 130 126 131 138 101 151 151 128 163 163 202 149 161 148 127 189 138 328 383 445 437 402 384 373 309 325 324 328 342 289 288 278 280 277 274 249 247 207
191 226 123 153 209 138 128 123 123 129 127 140 124 136 142 149 137 152 182 172 159 133 161 165 164 244 308 307 423 371 404 400 387 330 328 320 327 329 291 278 280 273 281 276 278 241 255
116 118 124 181 195 132 127 127 124 130 123 121 126 147 169 146 149 126 176 170 177 120 146 119 150 137 274 303 304 317 421 441 367 336 324 322 328 330 319 287 281 279 280 284 284 283 248
118 196 126 126 169 136 126 127 129 130 114 126 132 171 145 135 139 144 168 203 131 151 173 133 142 171 255 208 298 303 304 405 381 343 335 335 328 333 325 287 286 282 276 277 284 291 290
199 117 164 125 213 132 130 125 132 134 123 132 112 187 173 131 143 146 153 169 129 139 140 182 132 144 177 251 285 287 315 353 338 361 353 337 337 333 327 328 273 274 271 271 276 272 275
172 174 118 128 128 133 127 124 131 133 115 136 123 141 151 131 148 148 194 134 154 165 122 172 132 172 178 179 181 190 281 288 370 330 317 340 342 332 319 314 358 270 270 269 271 267 276
180 174 181 119 128 132 133 128 135 126 130 213 217 148 198 200 199 134 150 115 176 132 124 130 163 177 185 164 238 216 274 176 279 361 329 334 336 328 322 298 329 281 271 268 269 271 302
170 211 156 180 123 131 130 133 131 125 137 139 197 202 141 194 137 121 182 152 139 135 178 159 130 150 164 144 245 259 264 268 238 144 356 327 313 322 331 311 289 308 286 264 284 279 298
184 171 181 122 123 132 139 133 138 123 149 126 144 170 161 130 192 144 154 128 191 142 121 137 125 174 162 160 179 151 209 250 271 301 141 349 320 308 312 355 339 287 284 301 270 272 275
173 194 183 147 176 132 135 125 131 134 131 131 136 223 140 158 201 123 134 137 226 176 146 120 180 145 156 158 142 235 264 199 273 304 368 355 337 318 301 315 321 323 323 316 289 271 258
177 199 199 184 131 187 131 145 131 121 139 128 142 143 139 154 203 132 150 149 163 177 178 130 182 133 137 168 180 218 251 181 265 309 329 363 340 323 313 298 309 315 290 322 293 313 274
182 189 171 213 122 201 142 138 199 200 176 190 148 189 126 167 213 136 150 157 161 128 134 130 151 151 175 159 168 169 243 196 234 279 358 371 344 326 318 313 299 297 304 315 323 317 279
178 239 189 217 185 159 215 127 180 149 179 195 150 181 217 148 144 136 149 157 151 164 138 146 147 142 140 153 200 217 258 171 262 284 421 391 364 329 318 310 302 296 292 310 315 307 314
180 235 191 200 197 198 177 193 134 180 125 151 151 158 220 123 151 146 138 160 153 189 157 173 152 154 117 154 179 162 239 252 211 249 349 404 147 301 325 311 310 298 295 292 302 322 323
178 192 218 194 186 200 192 150 159 150 133 137 148 214 151 122 147 176 147 159 209 146 142 109 177 130 141 119 144 154 192 239 245 230 296 364 380 351 200 315 306 313 293 289 302 293 315
186 203 190 195 127 193 146 193 196 151 169 222 149 224 191 221 134 147 156 131 181 157 145 106 142 138 138 140 160 199 196 215 251 178 239 363 406 200 172 308 306 315 303 297 294 294 295
182 184 185 196 205 200 176 191 144 140 143 139 176 150 138 204 154 152 224 151 150 175 151 148 129 121 145 157 167 159 156 194 255 156 299 302 393 379 152 159 262 302 296 289 287 285 285
184 193 193 187 126 182 193 149 192 250 237 224 153 184 196 146 158 223 139 150 204 177 174 133 170 120 149 113 122 167 173 158 252 182 287 472 385 139 149 156 310 303 296 291 287 283 284
213 212 192 182 142 198 193 140 194 213 160 203 236 193 169 202 194 174 169 144 150 141 107 151 165 137 113 139 127 131 144 191 249 274 190 464 411 354 284 142 178 149 301 297 292 290 281
194 234 184 196 194 184 178 187 203 225 143 149 226 172 150 225 147 138 178 148 149 150 148 175 148 136 155 152 145 149 169 130 192 154 157 374 436 359 342 204 252 317 236 295 289 293 291
193 126 188 205 196 175 138 191 128 206 140 124 231 171 144 226 131 224 178 154 151 165 170 173 128 159 131 125 107 171 146 147 250 205 172 356 434 357 348 342 146 164 181 301 289 287 293
170 193 185 196 194 135 165 195 195 207 237 146 205 189 202 132 147 224 228 142 149 175 185 102 165 163 156 119 131 157 153 125 183 210 277 289 433 362 353 347 275 148 314 312 300 289 291
195 189 189 189 192 191 190 196 166 164 199 229 231 192 154 198 226 190 203 206 154 189 131 176 157 152 133 160 104 117 139 164 166 227 197 262 393 398 360 222 343 370 315 314 298 290 302
162 189 169 193 190 191 192 194 199 189 247 236 229 165 192 224 194 228 190 152 195 185 184 140 162 137 158 156 145 116 128 157 205 242 163 181 299 413 423 368 359 354 326 315 299 293 284
171 186 192 182 189 194 194 193 207 172 235 229 143 230 219 221 135 229 165 195 189 188 179 170 158 153 159 136 97 156 145 126 214 137 217 180 287 426 386 363 353 174 372 320 299 293 292

GFSGBSN_2pvu_pres_093.txt.gz
Presure
126 162 140 119 114 118 113 117 119 122 121 119 122 124 118 132 135 151 158 134 143 134 137 155 154 153 159 490 452 478 453 410 361 342 333 357 340 334 319 305 293 295 252 233 268 143 197
122 141 168 140 119 119 120 122 123 118 123 121 134 116 139 149 148 158 161 147 158 200 136 167 156 154 152 293 486 458 454 380 348 335 338 319 337 321 327 308 296 291 289 246 232 257 248
190 148 123 199 125 128 120 118 119 120 116 129 129 132 133 131 158 128 170 119 163 219 130 92 158 167 149 181 490 425 445 378 349 330 318 321 301 389 336 311 290 291 252 263 241 237 255
117 171 131 122 127 124 118 116 122 121 168 155 113 136 126 123 153 121 153 148 152 176 169 125 183 152 242 156 263 423 439 369 349 333 331 333 310 360 326 315 294 281 287 279 243 256 243
115 163 123 124 114 125 142 122 127 195 140 128 131 137 131 147 135 165 134 188 112 199 132 160 168 137 135 167 325 433 444 374 336 332 322 327 326 333 383 302 293 287 278 294 266 249 248
204 169 164 124 133 120 124 110 129 134 156 134 126 132 131 129 125 163 127 131 136 137 149 137 172 163 147 247 240 323 430 352 323 339 334 333 330 338 427 319 304 291 278 281 268 251 249
285 194 124 125 194 126 147 123 114 192 192 132 127 137 135 124 146 133 126 160 127 152 153 132 151 135 139 233 154 306 310 331 354 331 341 336 337 328 319 314 301 282 282 277 283 280 252
207 175 171 158 125 124 114 128 178 148 137 135 136 138 119 140 187 155 164 135 159 166 138 152 165 147 128 141 201 280 295 318 368 359 352 326 347 345 314 336 317 293 290 227 278 281 264
217 229 275 174 168 131 165 133 126 177 139 134 133 139 118 138 142 139 199 192 141 185 234 186 137 139 164 143 224 155 244 292 336 209 332 342 335 342 349 326 316 278 281 287 298 284 276
180 244 223 210 163 194 168 125 131 134 165 136 141 125 129 145 128 150 155 135 178 161 222 163 150 125 133 153 188 232 268 282 283 328 181 326 321 335 337 342 303 273 277 290 283 287 304
233 217 173 177 174 245 154 148 138 134 192 139 137 132 119 129 138 150 220 140 157 130 175 176 150 144 129 132 206 218 137 186 285 293 362 194 314 309 326 336 341 281 274 282 289 297 296
292 219 258 172 266 182 156 128 143 127 143 137 119 128 142 125 178 160 128 151 184 161 168 152 150 171 140 148 153 148 200 244 266 285 386 279 353 324 326 332 327 339 274 286 276 274 294
241 254 173 199 267 184 205 191 131 133 134 136 142 122 127 132 138 152 129 191 152 165 241 172 176 142 126 134 138 163 236 195 267 278 298 380 375 339 324 320 324 319 330 265 264 283 291
224 200 172 194 278 203 150 140 191 195 137 142 140 175 137 139 136 155 126 132 142 152 164 179 171 132 142 126 137 142 232 250 255 235 297 350 379 361 334 318 318 313 306 313 268 275 269
347 229 213 174 180 197 240 191 191 161 124 135 142 113 138 137 149 183 199 142 161 139 161 171 146 179 129 129 153 184 166 232 239 268 281 332 382 362 347 323 309 319 338 335 349 309 303
254 250 289 164 178 258 194 193 189 194 133 170 133 137 131 152 229 127 203 150 160 159 157 167 174 169 119 137 148 156 159 159 151 182 231 328 385 363 265 340 318 302 320 326 338 334 318
317 235 317 269 175 181 191 191 149 196 156 141 150 193 201 149 197 126 172 196 142 148 155 188 149 132 165 157 142 159 156 200 240 230 203 338 392 380 280 257 322 310 296 312 302 302 320
293 241 235 169 173 181 220 197 196 199 179 143 115 171 133 157 129 192 131 207 145 229 177 161 160 136 111 143 124 197 157 156 172 254 272 303 443 389 377 340 318 309 309 296 318 311 304
274 251 331 279 172 180 220 189 197 203 206 134 197 161 189 144 134 226 147 205 158 147 155 146 149 142 135 125 153 124 129 181 140 246 269 293 376 414 389 180 171 314 304 303 301 296 314
358 278 311 266 264 177 200 197 203 192 169 199 174 127 178 217 159 169 157 196 141 194 133 157 151 151 159 146 138 143 154 135 165 228 144 229 408 376 371 286 155 173 247 301 294 299 293
256 252 295 263 265 178 208 198 201 180 140 204 204 141 226 172 223 206 194 207 227 194 136 198 157 128 175 177 142 140 144 166 173 233 139 168 368 383 365 126 233 152 313 305 302 292 289
348 337 269 268 198 187 126 197 206 203 197 194 137 186 140 231 144 160 173 158 141 231 133 140 176 138 120 159 171 117 131 141 147 199 136 275 316 425 372 375 152 169 170 149 160 311 299
253 254 272 264 231 187 202 158 206 169 199 200 214 187 179 232 142 205 219 141 134 208 143 194 154 137 177 146 167 158 117 126 137 163 129 196 174 456 372 358 354 333 147 306 154 311 304
258 276 267 193 206 184 167 211 201 196 187 195 244 134 238 208 238 194 213 143 137 166 150 142 181 169 164 166 161 113 133 131 152 128 256 211 225 345 361 354 339 346 141 251 155 296 302
239 273 240 242 178 196 158 160 202 147 195 200 240 206 139 158 211 142 124 230 149 208 152 184 132 178 162 168 130 170 128 156 129 144 184 187 149 284 307 350 336 340 170 325 314 305 296
245 266 198 190 130 200 155 142 189 180 187 197 231 136 238 138 216 133 233 127 230 219 192 146 183 178 174 160 165 175 133 113 157 177 133 109 175 286 369 373 356 139 152 336 333 310 303
265 243 220 144 187 191 203 208 203 184 197 202 228 239 235 136 213 236 226 228 167 216 197 162 159 178 146 165 159 138 153 151 135 164 184 151 233 218 324 363 364 350 227 361 149 330 310
255 162 162 125 186 211 202 193 117 195 193 201 222 242 224 140 223 231 223 169 220 152 193 203 188 177 168 159 172 158 166 131 126 155 159 242 252 194 286 401 373 139 344 133 330 349 322
162 172 175 167 176 201 206 201 125 198 205 205 242 167 233 226 230 215 226 228 137 197 191 193 180 175 173 139 168 156 167 171 138 164 119 165 206 267 249 403 433 417 137 327 351 335 317

GFSGBSN_2pvu_pres_096.txt.gz
Presure
190 158 183 124 121 187 183 121 121 119 119 122 120 125 119 120 133 135 127 117 160 158 107 221 115 86 149 201 168 497 449 388 367 351 364 392 355 332 296 283 312 271 276 266 255 126 262
157 180 143 183 124 152 143 162 125 119 122 125 128 116 115 143 128 133 132 131 158 129 141 219 163 156 141 165 160 477 407 383 361 350 373 388 368 324 306 291 270 318 268 271 260 244 149
238 166 245 164 181 135 200 126 175 126 123 126 130 129 113 150 133 141 126 125 131 231 143 93 126 150 158 156 153 296 388 360 345 360 342 378 376 351 332 294 287 277 283 277 244 255 243
254 153 199 222 269 128 152 185 128 198 131 129 124 128 121 167 137 146 136 134 132 177 194 155 146 154 175 135 202 308 171 366 337 341 333 359 364 343 326 298 288 309 265 260 260 235 246
211 208 246 244 227 118 119 149 156 114 153 121 126 126 156 174 149 143 127 128 149 146 145 147 156 161 142 173 150 177 357 369 346 321 325 339 348 344 334 307 290 281 308 270 293 235 223
246 232 198 228 229 262 144 118 141 136 111 130 128 128 144 141 135 137 133 119 169 190 127 173 153 163 177 133 148 181 305 341 354 350 336 341 342 383 340 323 290 283 301 278 270 252 242
240 239 239 162 170 207 124 119 256 140 133 118 120 130 141 208 140 148 132 125 143 193 126 183 159 169 167 149 126 170 154 169 353 375 355 341 340 320 421 355 310 289 287 301 286 274 253
269 230 241 246 219 186 195 244 121 133 130 143 130 141 142 150 143 137 136 106 152 147 167 165 174 160 161 150 177 165 121 285 297 362 343 364 342 239 293 358 367 309 298 291 291 283 277
259 258 265 226 263 229 170 252 183 125 130 122 121 134 139 149 139 134 137 146 154 149 163 118 211 159 149 148 135 136 142 278 282 300 362 310 333 349 350 326 353 314 291 306 294 232 289
269 267 258 247 230 254 249 183 273 165 218 134 126 135 134 147 147 124 136 132 158 179 152 139 168 149 153 142 136 134 141 247 170 254 322 369 351 334 340 292 347 297 292 286 286 297 296
469 296 526 340 224 243 196 190 277 168 206 136 134 124 136 160 190 122 143 146 150 176 135 153 197 157 146 134 163 141 141 238 269 264 278 318 354 344 335 338 307 294 294 282 284 286 285
375 396 488 365 232 227 259 175 181 184 225 139 133 155 158 164 125 131 136 134 155 193 133 156 204 164 136 155 136 127 176 144 231 166 278 317 344 357 340 333 336 331 303 301 283 283 283
367 357 333 522 380 233 248 184 269 268 246 191 183 136 202 135 140 125 128 144 159 143 132 144 170 149 200 137 123 148 145 186 141 237 168 294 408 385 354 330 327 307 316 338 278 281 295
372 242 427 464 238 234 243 172 254 209 184 215 193 135 133 129 141 141 142 132 127 225 129 155 168 214 147 163 141 142 159 162 220 255 159 284 325 404 376 342 326 327 327 288 279 292 285
389 416 465 481 224 226 212 170 263 175 212 191 150 135 135 142 112 125 135 235 216 223 165 147 165 213 163 150 133 150 160 161 140 192 222 213 336 387 383 196 331 322 324 330 349 275 274
418 529 570 623 245 241 247 259 260 253 182 192 196 128 135 134 124 128 149 237 116 184 120 156 236 194 178 187 148 139 124 117 174 187 272 249 315 395 389 239 227 325 304 322 325 310 293
501 529 578 590 255 240 293 182 253 180 184 191 198 157 170 127 138 201 153 154 169 166 135 148 153 162 172 190 184 155 150 168 162 185 209 268 317 363 398 371 345 329 315 301 312 315 335
517 532 560 461 335 234 243 266 255 183 189 191 202 196 205 114 154 126 214 230 211 141 199 148 203 199 153 173 154 136 125 146 131 137 188 145 153 437 439 387 361 324 324 310 301 327 316
524 564 571 303 323 310 270 269 171 178 195 184 205 208 123 216 141 130 221 214 158 210 152 165 211 199 157 169 168 143 140 146 159 180 223 206 294 416 412 392 382 171 159 296 305 291 322
554 554 358 284 260 241 264 272 211 176 206 173 202 146 141 207 196 169 239 141 192 212 137 159 151 167 173 141 178 142 167 153 145 160 193 123 204 393 416 378 388 212 155 235 235 305 281
537 570 280 268 302 285 264 268 231 170 184 157 206 209 216 204 131 218 192 141 148 187 147 142 162 165 155 195 178 190 168 142 144 136 122 133 229 336 353 372 363 341 156 143 144 149 300
539 509 264 257 268 269 268 265 234 142 191 183 208 171 149 200 134 236 152 148 144 153 139 140 209 154 128 180 202 155 151 166 147 136 146 133 135 178 176 388 352 370 329 330 142 150 158
524 283 272 266 255 251 254 264 205 187 199 211 209 212 161 202 198 238 173 232 154 211 139 227 169 151 151 187 141 169 176 169 143 151 160 182 121 138 116 394 379 357 353 334 237 307 143
342 263 331 295 249 268 249 191 202 178 210 123 184 210 201 245 241 189 196 231 220 142 140 225 186 172 164 139 183 180 181 127 124 152 163 171 168 186 302 142 374 374 364 343 246 320 321
348 303 250 262 269 256 220 201 202 179 197 214 205 201 197 241 230 244 223 169 131 133 149 223 201 183 154 181 153 185 180 176 112 155 134 132 243 276 156 292 301 385 370 361 146 310 313
264 317 268 267 270 226 225 121 200 168 206 212 204 134 232 234 231 184 125 135 234 142 214 224 196 194 183 209 177 163 178 182 142 153 153 172 190 118 118 143 301 395 363 373 142 330 134
254 252 254 266 263 241 123 198 179 187 127 203 202 199 241 145 227 137 214 126 230 231 223 210 202 143 183 170 190 185 166 169 177 142 159 141 247 203 225 269 277 377 369 345 187 150 163
295 272 257 266 221 217 205 205 186 178 200 203 176 157 248 228 195 224 218 232 229 225 225 205 194 194 202 184 171 169 141 141 181 131 210 181 217 180 244 224 275 386 366 367 216 259 329
265 255 269 257 228 215 209 127 200 192 162 193 192 213 234 236 223 231 158 218 225 226 223 141 190 199 182 182 168 173 147 159 159 99 146 190 135 245 139 254 284 323 397 277 128 151 174

GFSGBSN_2pvu_pres_099.txt.gz
Presure
176 187 263 152 182 204 165 168 157 163 187 124 154 126 186 130 136 123 120 129 152 130 135 125 137 128 174 193 149 148 154 165 392 404 389 408 386 321 297 290 273 288 273 262 292 62 218
237 255 230 260 153 165 227 180 249 119 132 183 208 126 126 130 130 122 124 132 149 136 116 131 149 120 171 136 164 160 165 198 324 416 458 392 329 305 292 275 268 275 269 274 264 268 217
249 248 251 244 163 245 192 239 242 227 191 278 148 138 136 122 130 135 125 132 152 130 132 118 153 135 159 169 168 128 169 197 366 412 380 323 319 305 286 270 269 253 295 266 270 271 266
255 221 238 247 234 262 286 248 249 205 241 127 139 159 190 134 134 136 124 139 140 132 119 131 144 177 131 169 155 215 152 384 372 422 349 321 312 300 285 293 271 260 249 275 285 281 264
205 259 228 227 272 252 202 270 258 219 238 115 151 159 136 130 132 129 127 142 144 130 147 131 206 129 207 146 161 155 133 157 366 371 329 333 314 299 307 287 294 267 256 253 284 280 254
256 222 272 235 204 244 253 232 180 253 164 155 131 130 154 125 140 136 133 141 142 135 128 136 216 142 166 172 148 124 141 134 376 167 353 309 321 310 290 283 281 300 271 269 265 296 291
240 229 260 264 283 217 258 213 293 245 233 194 294 209 143 168 136 134 131 150 194 144 112 149 151 142 161 179 171 178 143 182 301 345 383 304 315 308 298 283 309 280 274 264 275 286 285
197 261 205 271 207 247 261 267 238 230 173 268 293 131 135 182 139 133 144 154 133 142 118 159 182 144 141 178 158 152 162 169 146 177 370 395 361 334 254 282 282 324 304 281 269 267 312
254 251 269 260 221 230 218 250 243 234 172 240 223 175 126 142 126 137 141 214 117 141 142 139 184 144 214 154 153 130 152 198 152 266 230 409 329 330 333 289 291 283 290 278 284 272 270
276 260 272 276 361 425 256 372 233 238 291 240 193 254 135 134 138 133 139 162 142 128 136 135 136 129 173 223 160 154 144 168 161 279 272 262 388 378 353 378 293 297 293 280 277 290 299
262 280 305 287 448 209 262 483 256 241 250 215 180 221 250 133 126 135 156 214 121 110 125 150 203 136 179 219 127 150 159 193 166 237 270 167 262 376 372 323 342 303 286 288 295 286 281
283 304 285 488 376 378 398 197 254 236 274 186 251 258 196 236 136 144 135 107 127 121 134 146 160 133 182 201 166 168 136 143 152 159 258 269 243 337 373 361 322 339 303 292 288 285 279
262 350 376 371 364 357 382 321 230 257 285 281 182 242 229 130 167 156 142 109 130 147 142 138 151 144 162 197 183 151 168 155 146 140 142 270 280 255 388 377 352 322 361 302 296 295 293
365 384 374 392 369 378 390 248 264 214 237 163 185 250 238 134 176 134 140 117 142 129 143 168 197 146 228 167 206 167 128 147 142 149 200 225 312 334 369 391 164 333 313 355 307 295 292
392 365 392 412 405 412 411 301 265 239 249 270 179 226 224 203 151 141 145 137 127 139 144 230 193 149 115 208 205 158 162 148 167 128 139 149 242 268 332 386 378 345 326 308 346 303 302
376 395 401 425 440 530 441 326 255 236 267 268 184 215 205 209 200 184 135 130 143 134 146 226 137 153 183 144 205 192 157 164 142 160 138 219 237 230 225 404 394 358 334 310 304 314 328
375 396 417 448 497 524 575 259 253 283 243 267 171 185 160 195 148 155 195 133 132 199 127 165 134 157 152 180 208 174 158 148 165 141 120 193 180 285 360 431 395 377 341 324 315 308 307
375 412 457 490 514 533 286 323 246 242 255 252 143 185 217 194 198 126 136 144 131 238 232 164 139 119 165 199 170 194 191 123 134 151 194 151 150 132 510 441 388 385 350 329 313 310 310
399 471 515 478 509 562 262 269 232 274 252 253 178 188 210 191 189 133 218 130 140 235 228 154 146 180 196 200 156 183 202 160 157 165 134 144 184 139 137 423 380 387 360 326 162 165 304
427 528 519 524 557 497 274 320 193 216 249 256 209 205 206 194 163 169 128 132 137 233 175 209 140 225 141 152 151 174 199 184 149 157 159 164 191 132 142 139 402 391 375 351 183 143 143
538 561 529 541 547 335 261 251 253 243 254 254 231 185 155 191 204 209 209 131 168 230 148 159 136 142 190 149 191 173 210 165 165 202 131 149 173 127 158 127 398 380 393 361 335 155 144
540 498 471 484 270 339 264 251 276 203 257 242 219 160 185 198 130 162 203 136 235 186 207 215 148 143 140 147 151 175 193 135 166 129 147 143 185 210 136 262 260 343 396 374 332 329 282
545 518 478 366 268 278 252 275 241 259 251 242 215 175 180 218 199 208 192 216 224 161 149 149 206 141 155 200 161 203 138 180 173 179 150 132 165 202 133 212 237 202 314 356 347 329 341
551 540 404 322 307 267 259 232 166 255 223 235 198 182 181 225 214 204 158 237 231 206 223 138 142 139 174 210 152 168 170 162 175 178 126 130 184 196 125 207 139 373 143 376 347 334 332
555 541 351 329 288 264 249 245 254 243 233 217 191 194 201 216 211 208 225 239 161 230 220 227 145 155 148 191 188 175 187 189 166 163 149 155 173 164 240 195 151 161 376 311 376 339 175
572 363 332 263 267 265 252 251 242 125 229 200 175 201 220 124 205 241 215 235 234 220 215 224 132 139 198 185 142 181 180 186 176 189 145 122 155 210 205 181 212 164 384 383 166 376 332
394 309 259 262 276 258 259 251 237 227 214 152 173 210 212 205 214 245 239 199 223 225 197 230 185 206 198 138 185 190 180 180 149 189 126 137 175 172 166 125 259 288 222 140 273 153 329
359 267 269 276 257 255 247 241 229 198 205 128 143 215 204 201 237 233 193 142 126 130 230 196 223 205 195 194 183 180 182 184 163 173 144 143 166 189 224 227 249 152 132 140 388 367 346
307 319 275 239 278 255 167 239 226 215 166 179 185 169 204 200 216 232 159 226 205 235 224 223 191 139 192 190 182 182 182 181 184 149 97 144 148 140 177 220 174 272 250 403 358 378 355

GFSGBSN_2pvu_pres_102.txt.gz
Presure
225 224 223 238 231 250 271 183 254 189 143 189 190 271 193 195 139 150 122 180 134 130 138 127 162 133 142 157 135 174 101 162 152 158 406 408 401 433 347 322 306 289 273 287 289 262 283
228 245 232 225 228 267 218 247 276 254 234 233 237 274 259 132 165 264 142 147 144 135 133 126 146 116 138 182 147 139 192 163 147 349 188 406 385 322 304 296 287 301 305 253 187 295 265
229 185 257 276 273 241 255 252 245 280 269 224 299 129 237 139 148 149 146 129 142 139 128 138 108 119 143 127 172 126 178 145 144 342 435 394 338 320 298 299 280 303 284 272 266 256 288
229 186 228 252 309 276 257 271 230 270 266 251 174 185 123 236 238 139 143 219 130 135 133 137 108 126 145 164 133 145 96 137 145 425 373 333 312 304 310 300 293 274 278 269 263 263 281
198 224 227 252 277 245 274 247 228 253 258 254 244 242 254 125 135 133 136 134 174 130 129 175 127 122 122 186 182 125 160 165 133 225 227 324 307 256 304 283 272 270 262 274 261 263 253
229 218 226 255 269 275 237 240 277 247 258 242 242 215 261 241 169 132 137 203 134 134 140 205 143 126 120 175 123 150 148 135 152 191 295 319 303 309 298 288 279 301 262 252 265 268 274
169 215 256 258 245 272 278 332 197 239 255 237 276 236 213 242 247 193 134 130 152 139 143 208 143 130 114 136 142 156 174 172 167 166 334 319 289 313 309 287 283 276 293 262 252 250 269
232 233 242 242 248 246 269 263 232 265 268 224 159 261 249 251 184 161 124 139 171 138 148 129 134 137 158 152 129 159 152 155 153 189 157 342 248 299 317 306 288 276 275 288 258 273 300
228 235 240 267 239 321 363 244 230 261 257 346 252 253 234 237 254 224 125 139 132 141 149 126 135 137 149 140 142 131 177 137 156 152 273 302 312 328 302 303 270 275 220 276 263 271 272
234 242 237 255 274 356 359 354 421 259 282 209 256 228 250 259 254 246 134 135 131 134 156 154 136 126 129 203 138 158 148 168 154 144 148 237 275 339 317 311 296 298 289 284 268 267 262
222 245 283 252 368 383 389 391 512 376 269 250 202 251 255 257 252 191 161 226 138 137 130 127 126 137 122 146 119 146 174 159 148 135 156 242 261 290 350 321 301 304 284 289 236 265 274
242 325 272 267 403 371 368 379 377 385 255 256 256 217 253 222 260 162 231 164 138 138 127 129 138 121 154 152 159 152 128 138 149 133 157 143 261 276 324 367 327 309 296 295 291 278 278
242 281 277 379 382 368 400 394 372 381 342 268 257 254 259 260 250 223 237 178 131 111 130 131 139 137 148 145 144 173 163 136 160 166 197 162 172 273 251 325 378 327 309 301 290 280 275
294 276 277 399 363 378 382 427 389 386 370 242 297 268 255 263 127 186 223 229 154 129 134 137 141 194 159 165 143 213 171 165 130 156 139 150 143 259 149 396 382 352 317 170 304 291 289
317 302 344 378 365 375 383 411 406 393 369 247 248 262 246 249 256 183 199 141 193 180 128 137 139 197 157 147 172 221 149 205 143 160 153 152 196 143 302 323 391 418 361 358 185 302 302
287 272 396 371 382 398 425 452 428 406 278 288 272 251 257 259 190 215 177 209 203 138 127 139 138 230 192 154 137 146 215 173 159 165 149 148 157 222 165 346 146 395 396 331 350 339 312
325 285 382 383 407 491 502 480 440 418 262 284 267 285 256 254 245 194 194 138 199 132 136 141 138 205 125 141 164 153 148 170 159 145 149 152 172 138 135 147 143 148 389 369 324 343 307
341 395 385 412 513 458 463 470 513 281 256 287 282 268 261 244 219 193 202 208 181 134 130 199 225 156 178 137 175 178 138 149 123 167 160 184 150 168 158 257 154 449 152 383 273 320 327
285 397 400 544 494 458 480 472 524 270 276 224 267 242 245 245 197 178 202 147 134 139 182 148 229 181 155 145 138 177 163 195 153 175 120 164 158 165 148 204 361 363 341 383 360 346 152
282 391 412 504 499 535 515 506 398 283 273 283 264 260 241 241 231 138 205 134 139 157 134 157 228 135 158 189 147 168 152 165 203 133 187 143 173 148 148 178 300 311 415 383 371 353 338
277 387 414 486 467 471 572 606 312 293 260 261 265 243 244 215 151 220 186 189 139 137 137 209 209 189 167 141 167 194 163 159 151 172 168 161 172 137 150 281 324 110 124 155 376 362 353
282 396 430 496 455 455 504 310 308 278 254 266 247 245 244 176 206 163 153 122 133 134 142 226 150 152 148 216 148 161 151 195 139 187 170 179 151 151 126 110 275 134 207 143 236 385 364
408 405 486 511 457 523 302 282 274 249 251 248 240 250 238 236 207 187 171 213 176 198 163 225 186 228 145 212 171 143 151 150 148 191 152 141 140 144 148 243 170 334 172 184 142 391 370
395 413 503 502 490 326 278 295 225 261 254 246 238 210 233 226 196 192 149 210 215 214 226 224 188 233 185 147 136 155 190 184 191 190 190 144 141 172 197 155 125 224 282 193 386 257 354
403 420 522 491 343 252 275 270 269 227 246 244 241 179 228 216 178 130 202 206 243 229 149 144 222 234 219 132 145 169 146 151 193 191 197 184 155 156 186 183 128 264 301 142 244 136 345
405 427 535 498 296 279 238 275 225 254 178 252 174 230 216 179 178 219 210 195 161 226 228 228 223 234 141 142 165 192 194 186 187 193 193 195 180 111 147 212 162 264 168 289 160 380 170
406 441 541 345 322 281 243 253 234 246 246 241 147 197 172 178 172 210 207 230 148 229 234 227 228 211 135 201 194 192 190 184 186 188 190 180 161 159 215 177 180 226 281 161 284 239 237
418 455 357 335 313 285 219 257 240 216 230 239 229 214 164 177 189 155 175 235 237 230 234 164 143 171 210 204 193 188 189 185 188 170 171 172 155 143 154 156 169 140 233 289 207 401 392
429 380 323 268 279 256 234 206 264 154 193 236 218 181 149 136 206 240 234 236 231 239 217 231 140 194 197 192 188 189 190 186 186 142 191 181 146 143 153 138 158 191 150 195 297 294 355

GFSGBSN_2pvu_pres_108.txt.gz
Presure
166 210 212 220 213 201 234 236 212 255 251 263 277 294 241 260 233 296 274 159 256 148 204 131 194 111 124 135 130 131 178 141 136 84 128 286 124 147 151 142 144 360 345 346 230 295 140
202 192 204 212 219 245 220 232 253 247 255 255 296 271 246 257 275 267 180 249 143 247 146 118 262 167 133 193 132 137 150 137 127 98 140 184 285 172 413 205 395 368 327 315 302 302 298
202 207 205 212 215 239 228 256 250 255 272 286 328 303 236 234 265 235 288 230 263 250 224 242 223 203 247 141 139 152 149 95 159 137 130 219 150 141 383 306 367 319 308 303 313 307 285
185 211 214 215 221 216 230 249 266 267 291 328 275 253 262 233 282 276 249 258 250 263 268 145 225 133 124 145 132 123 168 122 133 170 155 196 158 156 370 217 338 308 310 299 291 285 293
194 187 200 212 224 211 229 243 266 297 300 267 330 333 278 275 278 325 249 191 275 241 230 245 123 207 133 147 163 174 129 157 99 172 175 174 154 342 325 323 322 296 281 279 286 283 291
185 190 210 210 224 236 231 259 281 313 320 288 376 374 382 357 295 272 259 270 255 249 157 226 177 131 135 149 190 167 102 162 142 131 170 209 157 325 307 297 312 273 286 286 294 286 288
203 189 212 210 227 226 246 271 295 326 352 326 384 382 377 365 385 256 264 134 260 247 133 141 126 141 230 148 192 134 164 171 134 142 176 154 167 166 331 291 342 303 292 291 279 264 268
182 215 222 219 244 234 255 297 315 293 334 399 407 395 417 337 365 272 245 263 244 199 251 135 239 138 150 193 146 214 167 161 132 171 211 154 160 170 310 305 294 296 297 295 284 270 279
196 214 213 219 228 246 270 318 333 303 329 405 390 384 389 416 308 282 266 249 175 240 249 134 166 135 150 198 142 149 157 162 121 178 180 166 150 231 276 308 301 295 279 279 307 282 282
202 204 227 232 230 260 269 348 312 333 405 382 376 386 414 406 319 281 255 252 222 174 162 240 139 138 203 148 147 152 139 166 133 160 184 154 150 157 162 268 312 302 282 307 278 282 290
203 216 215 230 242 264 269 342 308 390 370 367 373 385 415 397 215 278 266 255 239 244 156 236 133 148 148 139 142 111 160 167 131 178 186 189 149 139 182 165 149 160 295 284 297 267 298
189 207 214 246 237 282 289 345 373 380 397 428 392 397 398 318 289 264 265 229 228 190 241 148 147 176 142 135 142 153 137 164 162 133 174 184 164 165 155 149 151 159 164 288 291 275 271
218 206 218 243 251 274 308 335 391 423 470 432 401 403 314 296 276 263 255 243 244 251 249 148 144 204 145 141 147 152 132 165 122 157 186 182 156 141 137 142 308 182 155 311 299 284 275
206 216 223 245 253 296 359 396 566 504 466 429 392 396 368 296 273 264 268 249 242 180 243 139 205 205 144 141 143 146 216 157 136 158 185 172 174 152 142 228 372 139 148 185 307 301 284
214 205 225 235 263 286 377 430 517 485 454 405 405 314 289 268 229 273 259 251 251 246 218 139 216 145 139 140 147 149 215 157 169 151 122 161 185 173 169 158 142 165 146 262 295 194 298
223 225 242 250 245 268 382 463 498 476 444 406 393 300 286 248 261 235 254 250 240 225 156 136 204 142 137 142 146 146 220 149 151 170 177 163 174 171 129 137 218 300 330 227 266 366 315
237 205 235 265 257 287 380 471 477 454 452 403 370 383 260 267 259 259 251 244 239 188 141 141 175 140 144 142 135 178 146 159 159 176 114 158 137 168 178 171 160 140 165 162 231 358 330
200 213 224 263 244 298 388 469 493 481 432 410 377 310 260 208 261 249 248 247 244 237 136 140 149 142 147 139 139 158 210 162 145 148 196 185 137 135 185 214 162 148 177 146 401 376 158
230 219 241 253 285 393 465 488 479 490 431 399 320 288 253 273 248 252 238 246 233 186 208 150 145 143 159 216 140 175 160 202 149 154 156 147 175 163 124 162 141 195 166 142 299 396 378
252 251 267 263 257 425 477 473 481 475 426 374 289 273 284 269 255 239 224 249 232 171 217 145 143 140 146 218 149 200 188 155 151 143 177 147 164 157 147 174 189 176 164 146 157 284 249
254 244 263 268 332 485 497 482 493 550 411 280 254 265 245 249 253 245 180 237 224 189 194 147 142 142 142 232 170 181 156 146 188 203 147 180 151 170 137 189 120 187 150 370 182 319 151
243 237 249 291 352 503 534 500 551 443 331 253 272 270 265 258 257 254 244 237 140 148 147 148 141 227 149 232 218 140 212 150 143 185 202 193 192 189 199 223 181 249 145 152 122 411 339
225 244 258 259 264 541 554 546 562 282 272 278 259 270 273 231 251 251 236 181 133 174 157 144 189 140 146 226 160 158 159 140 174 202 164 195 208 170 172 164 200 169 160 162 258 189 446
173 210 258 270 310 582 548 570 421 266 282 269 263 278 256 225 259 245 236 227 193 168 192 149 143 200 152 224 173 146 181 182 133 139 202 198 188 181 201 113 185 227 176 142 146 215 208
231 219 256 256 470 525 522 354 227 253 262 264 264 268 250 256 256 230 211 227 142 199 220 144 227 133 140 226 216 150 205 203 200 178 199 197 195 189 181 186 155 139 173 208 208 152 138
236 254 240 327 473 343 346 305 269 209 260 264 266 260 245 252 236 241 216 195 184 145 223 139 143 147 228 212 191 204 199 158 154 199 197 193 139 180 174 194 161 156 147 136 165 115 140
245 180 228 252 475 368 272 262 257 253 265 268 221 257 254 240 235 225 207 183 191 208 230 178 141 226 228 219 149 208 204 140 196 194 197 196 198 185 198 181 186 147 133 148 135 243 257
254 250 251 264 231 294 298 243 272 267 242 246 267 252 247 239 231 206 209 145 192 148 237 181 229 143 232 150 211 198 165 195 196 194 195 189 190 169 179 178 164 180 159 158 129 131 159
238 261 241 265 320 294 311 237 238 269 253 120 276 195 236 231 194 219 189 189 195 220 231 222 233 168 167 166 206 158 145 195 195 195 190 188 180 165 178 192 152 153 146 132 220 132 129

GFSGBSN_2pvu_pres_111.txt.gz
Presure
200 182 187 194 194 217 213 218 220 235 242 241 254 272 285 301 297 342 274 269 274 301 190 208 126 133 124 129 127 133 126 133 141 106 127 233 102 139 157 166 151 179 171 174 199 119 175
189 180 184 201 192 206 221 213 228 229 239 246 264 292 320 336 271 345 288 267 287 284 233 251 219 269 171 139 140 109 128 133 135 151 141 139 134 130 119 201 169 163 285 118 270 157 148
188 188 193 188 194 207 221 222 213 236 244 255 280 344 323 360 269 289 275 274 168 226 251 242 141 189 147 137 204 142 134 140 135 178 144 135 111 161 138 160 309 177 174 322 214 312 313
176 195 200 201 196 200 215 223 217 236 247 265 299 349 301 346 309 335 268 244 306 257 265 247 149 133 134 152 202 118 136 140 196 136 165 101 149 182 164 247 342 147 169 325 316 300 307
200 159 201 195 225 195 215 223 220 236 259 284 311 338 330 307 396 385 275 296 291 197 240 209 245 193 236 195 219 132 140 134 151 142 134 124 134 210 155 209 336 326 321 301 292 289 311
215 200 176 215 212 201 227 234 226 238 267 306 316 337 350 390 392 401 278 321 280 267 256 244 248 134 214 153 118 149 130 136 89 135 153 137 196 135 147 295 321 291 311 297 290 297 288
209 197 224 198 208 229 201 232 220 247 269 338 328 375 390 395 389 418 304 293 267 202 249 237 209 235 243 247 117 141 123 131 137 117 153 160 166 162 193 133 302 302 291 309 298 289 300
199 202 221 211 228 224 238 245 228 274 231 321 351 365 375 386 400 434 278 285 262 233 250 235 207 235 156 146 134 147 138 223 130 148 147 171 196 162 186 249 294 303 293 277 268 289 286
218 212 228 228 225 242 248 267 314 233 318 370 363 367 376 379 388 418 299 261 277 229 245 200 236 163 229 134 143 143 159 161 159 146 166 156 139 154 168 297 257 297 288 298 275 269 294
186 223 222 237 225 244 253 271 297 291 372 385 381 376 369 385 359 413 289 267 273 243 238 160 209 183 234 133 135 199 241 147 153 162 160 145 175 139 182 167 300 166 204 282 284 274 288
196 185 201 215 236 242 260 276 327 403 403 466 442 375 382 379 392 360 242 271 209 246 246 154 155 203 139 136 201 243 159 158 151 169 158 185 178 150 129 151 142 164 199 303 285 282 276
163 206 196 229 237 247 260 290 301 410 548 498 490 379 391 380 393 296 257 284 243 246 245 235 151 137 134 163 173 175 157 155 152 169 148 132 213 126 153 151 153 150 190 216 293 288 290
163 184 210 232 240 260 273 313 407 537 495 461 437 396 392 396 391 238 264 260 200 241 142 230 199 231 132 173 156 155 143 155 210 194 146 172 173 198 140 144 194 160 284 271 332 313 287
188 176 213 231 243 247 306 298 475 502 465 431 405 394 388 399 297 260 263 262 262 238 165 139 232 148 138 160 234 146 151 145 215 160 147 123 188 178 186 149 148 146 141 192 165 321 303
167 192 205 228 231 282 291 425 472 485 438 404 389 387 399 400 273 255 266 261 256 242 142 236 195 136 151 194 149 149 151 158 155 180 133 162 150 115 209 152 131 150 148 308 205 338 302
179 170 202 231 253 270 305 486 472 474 415 391 393 397 332 305 269 269 250 188 253 244 236 232 145 159 199 193 147 146 151 157 158 154 162 116 121 136 184 179 172 133 152 164 272 326 325
204 178 214 198 239 311 393 491 484 477 400 400 394 380 287 262 264 268 237 256 237 225 232 169 145 165 156 149 145 150 148 186 159 160 152 200 124 106 119 174 177 145 141 453 147 404 356
192 205 198 227 252 329 487 488 478 432 408 395 382 313 285 267 263 261 258 248 250 247 230 136 141 153 160 146 146 145 139 208 159 160 156 162 158 162 146 255 153 149 148 176 151 358 340
185 196 195 223 252 380 474 501 485 425 407 397 301 295 261 256 271 258 256 243 242 232 235 142 165 191 151 144 147 138 120 146 185 210 168 149 159 155 135 160 258 124 148 155 173 123 357
192 206 214 216 234 322 535 514 489 425 409 369 316 273 280 274 233 253 249 247 237 232 227 138 140 180 152 144 197 185 131 218 169 152 176 189 195 156 153 165 150 176 217 141 187 167 160
201 191 208 208 229 536 540 541 505 430 411 296 306 248 261 272 239 252 247 243 226 239 190 136 200 143 148 138 166 216 147 208 154 183 165 152 194 197 157 218 174 209 248 152 152 137 412
195 201 194 206 193 513 404 564 466 425 316 242 286 282 275 231 249 246 241 238 230 216 216 211 149 150 146 138 216 163 211 147 159 166 144 146 151 207 179 185 172 149 266 177 168 174 375
192 197 206 192 217 535 429 584 456 253 261 275 263 261 246 250 248 239 247 166 226 192 137 188 143 148 192 167 150 201 212 215 210 147 141 141 152 218 190 192 162 164 178 178 160 192 253
187 205 216 209 199 243 409 255 339 219 225 251 274 260 252 256 248 237 236 179 188 215 144 142 166 148 142 136 178 210 160 143 148 144 206 206 145 202 174 202 185 165 187 143 174 149 146
189 188 197 172 195 233 367 308 250 293 274 243 274 269 244 258 241 241 193 219 222 135 169 147 194 141 139 204 146 193 209 147 185 189 199 147 200 199 188 209 174 176 222 162 140 225 143
203 192 184 216 177 210 313 302 270 232 282 272 282 243 243 246 249 233 218 215 206 147 187 143 148 175 141 203 143 148 208 206 176 201 198 200 198 199 195 193 193 176 176 183 151 151 233
166 182 190 204 201 205 277 286 296 192 291 278 255 261 240 249 234 208 229 214 213 199 217 228 158 224 130 144 204 143 186 202 170 147 196 196 193 197 209 199 200 190 163 182 149 192 140
182 203 190 190 204 181 251 268 316 272 240 276 254 262 240 244 234 223 225 183 182 185 184 137 150 166 138 227 197 188 151 205 175 192 197 194 186 191 189 195 185 195 182 160 150 148 133
189 189 198 212 189 203 211 239 291 281 274 248 271 253 229 250 236 223 195 181 186 189 188 134 135 228 211 220 223 188 203 204 122 192 198 194 186 181 183 194 143 177 229 175 162 130 145

GFSGBSN_2pvu_pres_114.txt.gz
Presure
181 179 187 191 197 213 222 224 225 217 223 238 240 245 267 262 274 282 308 330 360 341 314 297 310 291 289 234 126 137 160 115 131 122 131 144 114 140 142 141 128 124 145 166 145 164 150
179 148 191 184 204 202 213 230 215 228 225 237 271 270 287 262 267 331 332 321 369 354 311 277 303 274 260 258 126 139 126 129 111 118 134 134 103 141 128 141 146 151 140 150 122 158 152
170 152 182 194 232 226 216 227 219 217 231 242 272 280 269 271 296 346 342 321 268 297 277 150 292 270 266 259 189 135 141 129 148 120 147 126 133 136 151 123 93 93 138 140 179 189 180
157 159 168 185 192 217 222 235 234 221 231 250 256 293 265 288 286 312 343 342 272 286 268 288 270 255 259 131 172 142 137 164 142 145 136 128 127 143 106 153 152 160 197 324 199 200 174
182 164 169 171 204 210 233 228 237 244 243 262 266 269 290 302 338 354 368 412 292 279 294 268 249 254 204 183 123 156 141 139 175 130 152 135 139 155 96 139 139 182 169 238 325 307 328
184 179 176 187 191 212 235 234 247 246 250 272 277 291 338 361 384 362 378 403 292 268 237 262 226 250 203 233 140 140 231 169 190 122 134 124 128 107 182 190 178 266 142 199 315 299 303
176 167 179 192 188 197 245 230 244 251 265 285 308 349 380 358 359 364 377 409 278 273 266 250 249 128 243 233 135 129 136 159 187 119 134 165 148 159 180 250 151 143 175 279 282 295 307
179 190 187 172 192 200 243 252 262 263 288 323 371 326 373 364 366 369 387 413 277 279 268 255 248 246 178 152 142 146 233 220 212 98 122 162 138 156 191 138 194 301 305 291 263 269 293
201 186 182 192 183 202 230 269 264 287 326 399 431 437 411 373 373 370 387 353 259 275 261 252 193 221 232 158 137 202 150 225 132 135 132 141 139 173 183 151 186 185 175 240 287 305 270
176 188 184 200 213 198 233 277 281 325 418 470 488 471 475 400 364 371 388 305 279 265 258 129 240 233 236 218 220 197 153 148 141 146 149 150 128 192 145 155 159 150 135 312 297 293 289
167 194 182 181 208 216 282 284 322 444 480 500 475 464 424 373 371 371 304 274 267 266 245 149 236 198 233 226 225 186 233 143 143 156 127 134 145 182 143 149 168 156 133 186 244 283 290
177 195 186 198 205 218 230 309 446 486 484 463 451 416 381 368 368 353 292 276 262 252 242 236 232 159 224 228 154 217 144 131 184 142 152 160 187 137 148 146 154 138 153 181 180 310 294
192 192 193 188 201 216 216 453 497 488 459 439 417 376 379 366 384 294 271 262 249 257 238 233 234 203 229 156 196 148 128 142 150 148 163 156 195 176 130 121 166 191 144 195 138 273 304
177 200 190 184 211 228 227 483 505 464 427 423 382 374 379 373 322 285 274 252 258 246 243 230 229 219 149 204 149 143 140 160 134 152 186 170 163 232 211 117 138 478 188 173 164 319 314
186 211 197 203 212 220 252 514 508 425 407 404 389 401 381 388 303 266 256 265 242 255 161 234 222 175 157 157 173 226 153 140 140 206 167 193 165 198 179 155 129 148 229 146 156 177 176
188 199 200 204 210 215 389 514 484 421 407 393 388 385 393 314 275 262 256 239 252 204 237 229 201 219 154 191 168 135 157 133 150 169 144 169 138 179 171 195 149 142 146 142 175 126 185
171 192 214 211 206 217 237 510 451 421 399 392 394 400 312 270 247 268 235 255 247 236 188 224 216 162 151 147 144 204 148 137 154 219 199 151 173 179 146 134 189 220 194 180 142 159 155
173 203 215 202 209 205 233 523 445 419 409 406 403 433 311 239 272 253 257 253 241 238 230 217 221 151 145 222 178 184 139 142 196 175 166 176 179 159 155 132 227 202 185 143 152 183 155
205 196 207 200 218 189 212 421 275 434 418 411 410 310 240 265 264 243 253 238 239 238 161 211 201 135 177 149 209 148 147 142 135 210 189 159 204 188 192 146 172 175 219 196 239 340 164
205 193 205 194 219 197 197 219 377 408 417 430 308 292 281 251 263 226 251 244 243 170 206 178 149 129 140 136 176 139 144 147 141 211 209 160 149 197 152 150 196 150 178 205 250 136 172
202 205 194 198 204 224 185 180 238 232 297 292 283 265 236 258 254 238 242 247 229 232 206 196 223 133 216 134 162 142 190 217 160 210 155 170 148 185 182 173 156 166 242 213 159 183 166
192 201 207 191 204 215 215 182 220 213 320 203 283 282 274 263 241 248 239 230 226 230 210 227 192 134 133 150 145 137 150 151 211 173 160 152 144 142 149 154 220 194 139 160 193 170 167
176 206 202 201 203 207 189 197 210 229 280 292 257 268 254 229 249 235 240 220 228 195 223 206 185 145 161 144 142 129 208 214 209 206 209 146 182 211 149 190 183 172 199 203 169 156 167
182 202 182 192 198 182 218 194 218 204 263 296 251 275 231 207 243 238 235 219 205 211 215 192 195 140 210 143 133 141 212 213 207 148 150 178 171 205 148 213 179 184 193 192 196 194 171
182 195 172 198 202 173 205 171 206 205 206 282 295 267 262 238 236 230 229 220 156 157 207 190 177 215 143 145 132 163 149 163 205 149 149 153 206 182 205 201 205 198 184 171 258 167 203
188 167 195 180 197 202 199 181 196 213 202 261 269 282 260 253 228 235 220 169 176 191 188 196 198 217 143 152 136 137 217 148 209 204 207 197 201 197 206 201 173 156 182 170 231 169 154
186 175 197 190 179 186 181 191 205 205 197 194 242 262 271 259 191 229 220 188 189 197 188 181 192 198 136 136 174 149 170 145 167 162 203 169 166 196 203 203 201 186 209 170 182 165 223
179 179 184 183 165 189 179 199 184 207 213 188 228 265 271 264 244 233 224 221 198 182 192 168 166 228 135 143 215 135 146 214 210 149 205 129 199 194 186 185 191 189 198 194 188 137 188
163 164 180 185 186 192 195 188 201 205 220 196 293 281 253 265 228 250 225 169 192 183 212 191 195 212 128 205 185 225 214 207 140 203 207 196 197 193 194 189 188 197 196 188 156 182 143

GFSGBSN_2pvu_pres_117.txt.gz
Presure
144 169 185 177 193 181 187 187 198 208 230 234 228 224 230 234 246 250 252 263 270 281 302 328 377 347 320 297 291 295 144 239 130 194 133 133 119 120 97 120 143 137 127 133 137 161 192
182 176 167 177 181 190 186 194 240 233 226 236 242 232 241 241 249 259 266 292 306 321 363 342 370 339 297 295 258 271 256 145 190 125 148 117 111 161 135 148 137 141 147 131 147 160 146
185 149 179 178 162 193 185 181 231 240 228 234 230 245 243 249 257 267 279 298 326 327 335 347 324 293 291 278 275 240 260 130 201 134 156 137 124 135 131 128 143 148 136 129 141 166 151
162 164 174 172 179 202 197 207 248 244 238 243 246 252 255 267 275 284 305 326 346 353 337 340 297 266 277 260 262 254 254 161 126 147 109 101 141 136 141 149 138 132 143 148 124 150 145
188 168 178 182 198 186 200 204 251 257 262 257 262 240 296 339 338 333 325 338 355 370 315 293 257 275 259 252 249 244 246 227 138 190 250 132 148 145 198 144 138 122 151 164 98 136 126
194 181 166 181 188 197 203 207 265 259 267 285 315 372 381 375 368 352 354 372 363 380 293 265 274 264 249 249 245 186 246 130 136 141 152 135 151 124 118 140 124 94 153 155 157 300 177
195 188 187 179 187 200 214 207 282 280 304 396 438 434 417 401 382 376 371 370 371 305 274 277 273 250 244 239 243 243 141 149 197 148 150 132 147 148 154 95 149 133 149 316 252 157 273
193 188 188 208 187 213 217 235 297 313 467 490 475 469 446 456 419 379 369 369 379 275 274 271 250 248 239 235 221 221 135 189 159 132 149 135 232 144 135 138 154 181 160 183 180 148 303
172 185 178 208 183 217 229 276 299 471 479 470 458 466 437 440 418 375 370 377 282 265 272 260 254 245 236 189 230 218 141 222 206 180 130 193 139 124 140 147 151 157 159 164 234 166 289
154 189 175 197 199 221 232 311 483 482 464 439 445 453 441 421 391 376 380 391 274 254 274 263 247 238 235 233 219 185 225 218 141 149 138 148 158 125 137 146 133 175 147 169 168 279 305
190 191 173 181 206 214 231 256 493 476 453 453 439 432 419 386 377 378 394 283 275 261 259 250 243 241 233 221 232 156 164 225 225 163 161 147 121 143 159 189 191 121 139 150 153 145 287
183 188 192 180 217 214 237 488 493 451 439 420 407 392 377 375 378 386 386 268 271 254 250 248 236 231 221 142 224 196 222 140 175 154 150 129 153 143 164 203 327 155 134 172 148 145 306
185 197 192 181 207 217 239 460 443 443 419 388 379 373 371 375 377 298 273 273 265 258 252 238 210 226 220 184 212 171 174 205 144 140 138 188 147 157 180 169 184 153 142 146 167 172 257
204 202 179 191 191 211 228 427 435 427 388 387 375 370 381 397 297 271 276 259 264 252 238 232 227 220 223 219 222 209 206 143 157 125 145 141 163 194 123 181 272 260 180 157 159 176 144
176 194 210 182 200 214 208 250 436 422 396 386 374 381 393 296 287 282 275 263 248 236 232 227 224 225 151 205 221 188 153 151 129 157 148 156 167 151 170 179 176 178 167 177 174 148 177
191 200 210 179 181 206 197 234 434 430 423 413 393 405 307 292 287 285 267 244 221 234 228 182 223 204 230 225 143 151 147 144 159 140 171 163 176 168 174 203 176 176 415 189 165 141 211
194 188 199 177 192 184 213 194 250 436 426 423 425 313 295 291 264 274 247 240 234 163 212 225 216 200 219 179 138 149 125 151 140 131 176 163 177 172 148 166 206 289 189 320 274 185 180
191 192 197 209 193 190 213 196 225 454 499 470 318 300 298 291 277 251 248 237 234 223 222 225 226 204 151 225 141 149 149 153 134 140 200 160 190 244 171 186 145 165 138 173 336 395 167
184 207 202 182 215 191 176 153 165 292 324 342 286 269 234 260 254 241 225 237 228 219 126 226 205 204 188 139 148 148 214 138 139 177 199 214 168 161 198 160 194 255 243 283 237 343 182
166 201 199 182 200 207 208 204 206 206 228 320 275 239 306 251 258 236 234 234 226 217 219 126 197 190 191 140 136 152 184 137 138 136 130 169 157 204 212 184 147 224 187 261 188 167 156
201 198 204 189 205 215 197 200 172 193 206 220 222 239 214 265 219 239 236 230 213 210 205 197 192 209 129 137 146 148 149 143 138 155 204 182 171 163 151 153 146 272 247 180 177 262 170
172 188 201 214 194 195 204 203 204 183 188 201 222 267 247 233 244 241 232 225 214 199 201 222 204 168 137 137 170 146 142 136 214 197 215 219 177 148 230 187 216 260 149 162 244 174 277
166 192 183 193 207 190 181 185 213 208 197 174 188 207 233 186 249 247 228 218 187 178 218 210 174 196 153 136 140 180 128 140 215 215 211 215 172 160 205 171 200 191 222 212 217 236 265
192 195 178 203 205 201 195 174 193 200 204 197 196 200 288 279 247 242 223 225 215 190 178 184 185 217 213 214 141 137 133 141 204 208 144 150 151 189 212 217 203 213 210 173 173 204 256
184 176 174 186 200 198 203 170 183 173 199 199 198 181 207 270 277 253 238 230 201 206 195 174 189 208 214 210 220 139 140 133 147 204 208 148 148 204 201 205 196 202 184 194 165 219 168
188 179 177 166 183 193 190 207 191 174 195 195 192 185 189 220 257 254 248 217 205 183 187 185 191 205 218 143 223 147 135 130 169 150 204 143 174 153 131 204 193 203 217 172 193 196 205
182 175 184 197 177 196 181 194 179 189 185 193 179 203 203 203 232 263 243 245 207 155 154 194 184 186 197 223 162 131 174 130 174 149 145 159 139 183 152 203 196 186 197 208 212 173 172
173 172 191 193 162 199 179 190 214 194 189 181 199 188 202 188 280 222 252 246 237 185 187 176 190 217 225 193 223 143 137 168 166 214 213 196 205 199 203 196 201 193 198 191 211 186 161
182 192 177 188 188 162 200 194 187 194 205 203 176 209 186 202 222 276 261 251 245 231 208 179 198 201 130 139 219 217 143 136 177 212 209 149 181 203 197 199 193 199 192 175 198 206 170

GFSGBSN_2pvu_pres_120.txt.gz
Presure
165 177 194 165 192 180 177 207 200 210 266 247 253 257 246 240 241 257 251 247 237 246 259 269 277 299 335 340 380 330 317 303 244 196 118 127 132 130 141 144 117 116 131 138 124 131 136
176 170 159 166 207 170 199 175 213 232 271 226 260 243 240 264 263 266 265 262 255 261 275 285 301 353 331 372 340 320 279 282 203 289 293 130 126 133 125 121 118 157 117 149 137 140 134
154 169 208 184 208 176 179 205 216 274 274 285 305 323 312 300 289 285 283 282 281 289 295 335 357 332 369 367 305 298 280 256 269 152 149 140 134 123 126 111 116 135 141 132 144 128 146
162 177 161 178 190 203 214 213 232 287 325 372 362 359 349 332 330 318 307 312 306 315 340 340 325 365 322 299 285 277 268 256 258 260 149 133 138 138 130 129 144 139 125 138 131 148 140
189 167 176 168 202 187 221 229 302 340 438 437 428 415 397 383 371 349 328 325 324 338 341 337 335 322 297 273 260 249 259 252 253 256 140 172 114 116 158 131 139 159 146 128 140 117 140
189 176 197 187 194 211 216 252 324 481 489 469 456 453 447 427 410 384 379 359 341 341 344 349 286 279 260 245 251 249 254 239 244 186 121 146 146 144 161 145 136 165 140 134 145 141 96
170 177 172 166 190 217 237 487 502 484 456 439 410 435 432 420 444 408 391 343 344 339 302 270 266 250 246 251 236 237 245 241 236 120 242 139 141 156 140 118 143 155 156 97 139 141 124
179 176 178 200 189 236 243 338 439 457 440 434 421 438 438 414 439 405 370 368 369 277 277 267 253 249 249 236 239 212 231 244 201 223 267 140 148 152 151 142 179 149 136 139 144 140 157
165 178 168 176 203 235 250 397 371 451 435 435 438 442 435 426 436 386 381 383 283 275 263 258 249 247 236 240 231 231 232 184 192 144 259 140 177 193 141 148 118 118 141 138 129 147 213
178 163 173 201 196 229 259 438 440 424 430 425 434 427 428 438 399 369 364 285 279 270 260 248 239 242 228 226 233 231 237 234 225 247 156 202 151 138 139 147 149 115 124 156 144 178 175
167 181 191 175 205 223 269 430 406 402 402 398 405 409 394 386 382 311 287 287 277 263 250 241 241 225 227 230 227 221 222 188 142 225 148 146 148 139 96 152 148 138 159 186 115 140 169
183 169 182 203 209 224 252 306 409 395 390 385 382 382 384 390 305 290 295 278 263 257 240 248 222 229 233 202 220 221 213 202 151 207 134 139 172 137 118 156 148 144 207 163 178 167 149
156 154 164 181 195 212 218 239 303 407 397 386 385 385 361 306 293 296 280 261 258 242 238 223 227 197 224 213 214 216 176 191 223 123 214 215 147 140 142 148 250 160 196 244 175 171 159
193 151 173 198 179 189 214 152 255 411 342 409 415 328 301 299 278 279 266 258 245 230 154 146 227 230 222 218 218 165 158 164 121 258 152 148 128 159 146 173 184 270 183 171 171 165 166
180 187 182 175 200 199 202 199 156 245 238 368 310 304 296 290 281 261 254 239 229 226 208 224 231 186 218 128 152 211 141 210 117 221 155 131 189 149 207 239 378 203 160 410 308 178 171
185 151 178 181 176 184 182 189 148 182 201 193 258 216 276 265 261 249 239 231 223 225 222 229 169 211 208 197 209 145 208 187 147 132 136 149 146 162 191 173 144 388 207 235 180 317 181
171 171 198 181 196 195 172 194 195 178 260 183 191 268 212 253 243 239 234 225 223 219 227 218 215 205 214 215 192 170 207 135 136 153 143 133 157 152 244 161 297 208 262 248 297 136 192
175 181 162 166 202 188 189 203 142 194 201 228 226 236 202 187 236 235 226 217 216 220 222 224 210 216 218 137 177 217 144 130 147 138 130 158 157 146 191 288 145 179 205 283 195 421 406
195 181 185 193 208 195 192 194 173 198 202 199 240 230 218 236 235 226 214 217 218 222 199 194 210 212 129 212 142 139 144 146 144 134 128 191 196 193 160 204 253 206 317 313 225 360 174
191 189 193 152 170 200 182 191 208 164 187 174 202 206 229 252 220 215 217 218 218 213 205 164 221 214 214 134 194 137 153 155 132 138 142 131 197 212 168 162 179 149 197 195 158 213 204
136 191 174 199 174 192 187 208 171 198 181 203 190 199 193 224 258 240 220 216 214 218 163 133 180 212 214 135 168 147 152 132 141 134 135 201 165 200 158 153 155 134 192 263 187 142 174
190 179 183 191 210 194 181 189 180 192 180 173 191 176 196 202 199 256 223 205 215 178 197 212 221 203 219 126 138 141 143 136 142 138 225 219 225 212 192 233 209 158 190 235 191 187 186
190 190 190 194 199 181 173 195 204 181 187 196 197 201 182 216 207 194 259 229 197 149 216 204 211 212 221 124 132 134 210 132 138 214 213 215 215 222 153 201 222 216 158 205 211 191 174
182 211 192 177 170 191 178 190 199 189 185 184 185 176 199 198 185 205 241 271 219 197 180 196 163 169 222 180 190 135 134 129 137 140 210 209 174 153 157 205 210 172 194 181 195 211 173
172 194 192 158 179 192 176 167 211 166 202 205 187 179 173 193 201 195 206 281 265 250 206 153 184 183 194 215 225 178 135 129 130 133 137 209 210 209 142 202 204 196 213 201 173 175 172
158 181 175 194 195 172 202 166 174 192 191 180 174 186 200 173 190 206 208 210 286 266 250 223 153 132 193 223 216 225 139 218 130 127 201 146 204 201 150 205 195 198 206 195 209 220 183
177 191 187 180 195 199 181 190 206 186 193 185 189 206 191 192 202 185 206 207 218 286 267 244 230 175 191 207 217 166 222 215 169 145 136 158 208 149 142 195 161 202 202 189 202 177 177
187 180 191 175 193 182 189 154 198 190 200 183 204 191 188 169 204 205 187 210 214 204 282 262 187 201 143 208 206 221 224 206 170 161 191 140 213 209 205 204 201 200 197 192 191 198 211
158 188 188 186 194 174 167 191 208 198 183 201 204 174 209 173 186 208 217 206 197 224 289 205 258 204 227 177 211 134 206 223 183 132 135 172 213 215 144 212 175 203 200 187 199 194 190

GFSGBSN_2pvu_pres_123.txt.gz
Presure
173 156 178 172 169 204 183 203 252 289 294 376 367 350 331 322 299 294 278 280 246 235 251 241 258 261 256 262 271 289 315 357 362 339 329 155 255 148 154 127 124 121 149 148 159 134 166
183 181 190 185 191 213 215 228 281 418 448 445 431 411 379 353 338 300 293 280 263 249 260 254 258 269 259 279 302 394 389 346 329 315 299 184 139 226 139 135 136 151 149 130 112 137 134
159 201 199 163 204 226 237 262 524 508 489 464 439 413 386 381 354 327 314 298 294 272 264 264 270 280 284 304 406 388 336 306 296 188 172 246 132 140 152 136 141 143 153 145 125 118 131
179 180 170 167 184 237 263 246 501 489 453 441 438 451 429 380 367 354 314 301 290 284 278 283 297 299 363 365 360 304 284 267 267 269 262 247 135 133 136 139 149 135 121 115 154 138 129
184 174 178 171 181 246 241 270 440 448 426 457 423 408 423 449 374 360 338 305 291 292 293 301 322 369 362 301 277 262 258 252 244 248 253 152 122 127 140 143 129 125 121 105 144 142 146
174 190 208 188 223 224 252 266 430 429 434 419 411 403 412 434 436 363 351 320 311 308 321 349 383 310 282 265 256 232 251 249 252 254 227 252 266 151 144 156 117 125 99 135 145 153 156
189 194 172 192 228 244 221 291 406 417 431 427 435 441 418 422 435 367 359 334 344 344 355 371 271 269 250 249 249 243 239 243 238 255 255 260 200 147 123 121 139 146 129 164 133 132 138
172 187 180 175 184 241 254 331 404 406 422 437 442 439 434 428 443 387 375 344 358 357 273 265 258 244 245 234 226 235 230 242 249 253 249 279 195 256 281 105 146 143 140 156 135 165 116
174 172 171 191 207 230 164 173 404 405 424 451 438 431 436 439 403 383 399 385 276 266 261 248 246 232 230 238 231 232 239 244 241 241 242 256 144 217 264 131 129 142 158 135 145 139 210
124 176 175 192 173 223 215 181 221 408 418 448 448 422 408 374 363 328 282 276 268 260 249 232 233 229 233 227 232 225 234 232 235 196 236 148 175 109 164 155 161 152 157 147 219 143 148
161 198 163 184 193 205 189 257 205 228 414 393 396 392 387 320 287 283 274 265 254 242 236 230 225 226 225 230 223 231 229 134 183 215 139 275 188 226 147 143 128 132 145 157 142 149 157
153 184 176 198 177 185 209 157 203 220 391 328 322 307 294 289 283 269 255 246 233 238 226 225 230 226 222 219 218 222 217 221 139 215 226 225 154 142 141 133 143 157 161 139 150 132 156
185 147 192 177 163 208 158 211 166 311 294 306 294 288 280 266 251 242 234 224 228 226 226 222 223 217 139 214 215 214 212 246 210 160 164 148 159 126 137 206 143 161 149 148 156 359 197
164 172 183 163 151 194 210 206 206 215 250 184 224 265 248 242 235 226 216 230 228 221 219 215 213 209 218 217 210 184 205 209 138 145 221 276 232 306 100 151 152 148 131 169 196 337 332
187 170 178 159 197 175 198 194 202 202 212 223 243 239 234 228 226 225 223 231 220 208 215 212 203 177 208 210 215 201 146 157 205 198 161 214 174 137 143 159 143 159 155 203 236 384 320
195 161 177 172 169 175 194 188 182 187 199 207 207 218 209 174 225 233 230 215 213 213 215 210 213 201 202 191 200 149 220 153 210 210 135 150 138 148 174 177 156 407 384 235 207 304 174
198 186 173 204 164 188 195 187 180 168 199 192 207 201 233 201 220 225 227 210 212 209 198 208 208 202 199 202 202 165 204 206 185 134 187 148 145 148 155 207 179 394 177 188 152 145 165
183 184 193 179 171 170 183 177 208 173 164 203 189 190 198 208 240 228 220 218 212 204 207 216 178 201 203 205 212 216 193 138 137 145 147 133 142 195 153 214 316 154 157 255 148 450 192
175 176 191 193 204 183 171 166 180 177 188 204 203 188 185 200 261 239 208 195 205 203 201 178 205 220 213 208 191 205 207 131 132 151 138 137 138 131 153 152 173 187 289 148 214 190 399
161 181 191 197 151 156 163 171 188 203 196 196 184 195 199 191 201 215 261 242 200 163 191 210 203 207 190 202 141 176 142 141 151 143 134 140 133 184 159 194 210 195 166 213 155 228 191
174 164 189 160 150 181 181 181 162 173 173 209 200 202 178 188 189 204 206 219 254 233 193 199 214 212 133 203 140 212 146 145 152 133 132 135 142 202 161 158 143 138 210 198 216 190 197
187 177 163 178 158 206 180 192 175 162 188 186 201 169 217 204 184 205 195 206 207 210 151 216 166 196 214 211 127 161 143 211 144 135 140 158 183 214 201 196 158 213 230 211 222 190 214
178 164 188 155 168 179 195 185 191 180 165 170 182 191 199 196 176 198 216 197 200 198 171 249 196 193 225 218 132 175 142 141 136 134 141 210 211 214 218 188 159 212 210 213 210 192 186
130 184 161 185 181 163 194 214 186 207 165 204 181 185 198 193 203 204 190 210 196 190 208 213 207 169 200 207 125 137 140 217 153 133 139 140 167 206 198 199 191 217 134 171 215 193 193
144 145 170 118 182 182 180 191 193 189 181 208 166 194 188 185 211 188 213 204 216 199 176 202 272 161 127 216 123 218 139 136 170 135 136 135 210 200 210 204 201 199 144 143 218 177 172
174 181 171 176 180 201 189 190 164 161 157 192 206 168 199 179 205 200 195 224 202 219 201 208 213 232 169 186 179 194 221 223 185 220 133 134 138 190 212 154 149 151 131 208 207 187 181
172 142 174 166 192 182 189 196 190 191 200 188 190 191 178 209 195 176 191 208 200 203 195 188 211 207 284 153 166 192 208 212 227 232 224 132 130 164 215 212 211 205 212 201 210 189 212
150 175 142 170 179 139 182 179 184 192 200 183 192 205 171 199 178 178 206 218 200 210 206 210 190 209 210 282 271 174 231 220 136 225 230 149 131 189 141 187 215 202 145 180 214 201 193
179 182 185 170 170 180 151 201 186 176 193 198 166 194 168 175 192 181 189 198 220 191 215 199 205 214 215 219 274 255 251 223 139 184 127 167 184 139 214 217 225 233 233 167 211 204 197

GFSGBSN_2pvu_pres_126.txt.gz
Presure
185 164 166 170 196 192 143 191 378 423 447 478 458 420 391 402 343 306 290 295 259 255 275 250 227 248 253 249 242 238 249 263 267 275 288 337 383 367 356 297 144 144 139 138 149 147 130
161 180 191 201 217 196 245 275 405 407 435 422 427 431 401 378 387 337 306 280 283 266 252 267 249 241 258 255 257 259 270 286 296 300 381 358 339 332 228 331 213 145 123 127 139 144 155
164 190 191 203 216 255 303 403 290 407 417 430 439 426 412 398 392 359 331 293 281 274 263 264 256 251 249 271 273 259 287 295 411 354 328 316 316 308 309 291 203 157 141 136 127 139 139
170 193 164 183 192 267 236 162 409 428 421 442 416 426 414 398 390 386 342 313 285 290 281 264 281 269 267 277 283 294 423 354 302 270 278 280 276 282 288 280 147 142 117 143 127 160 102
177 180 174 196 232 297 248 282 323 445 425 420 428 410 405 454 397 377 354 336 302 276 296 273 291 300 287 306 409 312 268 261 256 257 252 258 267 218 287 145 153 149 120 150 174 177 114
173 172 171 173 185 148 189 398 451 458 438 450 455 411 424 411 364 354 349 338 309 299 294 288 279 320 332 271 252 247 247 250 255 251 262 263 169 234 162 256 143 148 157 151 162 131 129
189 194 160 158 153 243 156 206 436 479 455 445 439 436 433 451 364 362 324 336 329 335 331 334 277 248 245 242 229 235 227 228 252 264 260 270 158 254 135 146 145 133 150 128 131 123 111
177 202 167 170 174 218 169 175 229 435 436 458 456 453 400 373 350 351 336 333 354 304 263 251 240 242 230 237 237 234 247 257 255 251 252 246 281 158 132 140 146 138 143 128 125 137 149
169 193 200 160 207 214 159 199 236 304 416 434 429 404 372 353 353 328 297 269 258 245 238 236 230 232 225 232 238 243 247 238 251 248 257 178 308 141 185 199 154 121 137 104 149 140 134
171 172 171 163 201 204 208 156 232 237 253 292 299 300 295 281 274 264 253 245 239 231 227 224 226 231 236 234 230 225 229 244 253 301 297 405 296 155 141 136 159 138 115 135 176 143 155
164 170 181 173 189 202 199 212 170 237 205 235 249 252 250 246 238 234 235 227 229 235 231 226 229 225 223 227 222 228 260 285 301 217 215 226 179 149 144 217 176 105 146 139 177 158 156
177 167 151 172 177 195 169 205 185 219 244 208 204 227 233 226 228 227 229 226 221 225 221 217 218 219 222 212 223 215 244 213 283 226 217 220 227 118 176 198 190 152 134 149 168 140 152
171 166 155 194 154 198 170 192 199 198 208 254 214 228 222 220 218 217 217 213 211 211 214 213 207 201 239 206 204 157 225 267 166 234 298 135 267 258 212 131 133 189 152 160 150 180 154
179 182 175 187 184 161 170 174 207 191 197 204 273 236 214 204 206 209 210 209 204 204 207 199 210 222 211 202 226 209 206 220 169 227 217 209 146 132 162 132 202 148 157 144 152 157 129
188 161 163 168 166 153 161 182 183 200 165 201 197 196 254 227 136 168 206 200 204 199 197 203 203 192 200 134 205 204 212 212 180 221 189 210 252 147 208 98 196 154 146 156 162 179 351
175 190 170 155 161 151 155 173 199 168 196 169 194 196 195 218 222 223 127 181 196 171 199 198 188 177 131 201 198 202 171 134 164 206 218 189 182 140 149 150 150 162 153 224 199 194 180
156 181 177 167 197 160 162 165 174 170 186 187 189 197 201 201 175 140 212 181 195 195 197 184 180 194 207 202 184 153 220 202 208 221 206 141 155 147 148 152 161 169 197 192 166 150 185
150 169 168 178 182 192 167 146 152 184 181 201 219 182 183 209 193 153 216 225 266 227 174 199 207 207 186 196 147 176 198 165 130 135 145 158 142 145 144 160 143 153 172 265 166 146 166
153 166 169 169 170 185 173 195 179 178 186 164 210 124 199 176 196 174 199 209 220 267 190 207 196 183 189 188 193 206 213 134 140 141 202 117 141 145 174 164 191 182 157 289 233 186 155
141 155 149 176 172 181 187 173 203 184 163 168 204 178 194 200 207 190 210 204 161 186 212 276 250 223 198 204 206 206 163 132 133 145 147 128 140 142 135 202 213 217 222 155 192 141 273
157 126 144 153 159 174 178 178 181 158 194 197 177 231 205 187 195 188 201 216 201 185 181 195 273 261 197 229 203 158 203 139 147 160 134 131 128 126 157 155 171 201 153 161 143 185 196
155 155 134 155 178 161 173 176 186 168 169 134 204 178 175 197 184 188 162 208 191 206 209 169 176 226 187 255 187 223 146 146 144 149 136 134 126 142 199 157 154 152 192 135 126 227 200
140 139 155 140 175 179 176 187 180 186 170 192 165 194 158 195 181 189 196 198 193 231 205 207 219 201 168 201 256 136 220 229 150 213 132 138 143 143 215 212 196 199 158 184 190 193 230
153 148 156 166 136 135 180 171 165 186 184 175 161 199 168 180 198 182 205 226 197 211 185 207 200 185 225 177 178 129 213 212 165 138 138 134 141 140 217 182 199 202 195 186 182 172 186
158 164 152 156 171 158 172 163 139 179 195 175 147 190 179 190 171 191 211 183 197 192 202 214 210 213 174 186 230 202 134 142 223 218 223 137 141 141 145 218 173 202 209 207 193 185 187
141 141 184 155 139 155 183 162 144 161 196 194 166 186 195 225 219 174 209 179 216 190 200 190 215 208 188 233 214 233 159 129 145 144 216 133 139 140 138 144 182 220 225 211 207 218 205
165 149 145 177 160 156 175 173 160 136 182 172 193 178 184 200 184 177 199 170 195 178 195 176 220 194 219 233 218 243 214 217 179 177 142 181 161 139 138 142 139 140 234 229 207 167 209
160 174 150 160 169 171 169 166 187 152 138 156 183 174 180 169 202 193 175 204 173 167 186 177 196 238 199 232 219 245 274 273 189 259 140 238 135 188 139 135 157 235 143 235 233 243 233
163 172 165 169 158 186 155 173 141 163 142 136 183 186 205 181 175 195 178 198 213 193 176 229 219 180 228 236 237 230 268 253 300 204 259 246 189 144 199 142 137 152 163 148 241 240 242

GFSGBSN_2pvu_pres_132.txt.gz
Presure
174 161 172 151 234 262 264 463 456 430 405 436 437 405 391 404 410 386 377 306 254 269 275 257 231 240 242 224 243 248 240 261 252 239 255 246 253 243 256 251 133 245 250 268 271 212 279
152 177 164 181 196 255 235 264 473 468 471 430 408 397 400 396 364 380 368 350 341 270 241 251 274 219 280 269 264 255 260 258 252 250 251 239 252 252 239 252 260 228 203 289 282 275 142
186 179 176 175 182 229 268 249 260 465 407 374 371 386 397 355 353 349 341 311 313 308 284 292 230 242 262 260 257 252 241 262 246 252 254 258 250 246 266 270 278 287 146 291 300 305 380
169 175 169 188 145 200 212 264 245 261 376 367 355 368 342 350 326 324 309 293 289 286 277 278 237 265 253 261 222 240 231 260 258 266 278 276 277 285 284 301 274 301 185 306 355 358 325
166 182 182 180 176 184 212 237 258 234 242 319 367 309 292 245 318 305 298 290 276 283 294 207 225 234 277 277 269 252 281 260 275 285 311 320 320 328 332 329 327 327 324 184 331 330 337
162 144 169 179 173 186 184 232 263 245 222 228 231 308 322 321 299 276 290 263 275 312 281 296 295 276 295 251 245 228 235 229 233 237 248 250 259 262 282 294 302 310 305 250 319 218 257
175 164 160 143 177 180 174 188 277 239 235 234 219 227 217 272 262 261 262 254 250 240 233 225 226 225 214 214 216 223 215 216 254 232 275 295 256 276 262 272 280 169 284 299 315 309 156
143 177 157 165 176 191 171 194 185 190 240 229 213 212 207 208 220 233 215 203 208 204 217 208 233 238 255 242 241 276 265 284 271 219 433 287 353 282 263 273 281 286 276 290 222 165 162
165 144 164 163 158 165 176 164 178 206 197 249 211 210 200 193 227 214 211 214 203 210 211 197 223 212 243 263 269 266 243 293 277 212 223 288 428 428 342 436 271 292 290 183 286 152 205
140 152 144 159 164 152 178 176 169 197 175 205 252 212 211 197 194 189 195 209 201 185 218 186 186 190 193 191 195 248 256 246 289 304 210 225 258 260 282 444 458 321 172 223 187 148 156
179 151 162 155 170 182 182 150 164 177 201 171 182 226 185 198 208 189 187 183 183 192 183 184 184 219 190 187 188 197 224 240 231 292 209 216 225 215 396 226 471 299 165 156 157 151 156
148 162 154 155 152 172 173 179 165 163 174 180 172 192 182 228 234 197 194 189 195 207 180 179 187 179 185 200 184 188 224 221 202 267 293 166 258 183 333 165 240 221 143 142 142 137 148
150 167 150 152 152 151 178 148 205 181 184 181 164 164 177 167 189 237 245 212 218 202 188 195 195 190 179 199 181 186 223 204 198 203 268 288 269 432 304 251 134 126 129 145 138 145 148
135 141 158 157 152 150 164 168 114 173 185 176 173 170 167 188 170 186 195 252 244 206 202 200 201 190 186 209 189 182 210 222 181 179 201 250 233 311 244 301 125 380 139 176 134 124 124
162 134 140 173 139 157 146 163 164 171 186 186 173 172 139 168 194 218 175 239 242 263 269 282 222 214 215 221 220 192 191 189 198 211 229 230 258 234 148 301 143 149 151 175 150 153 130
167 148 133 155 147 163 156 154 159 158 174 175 182 143 193 197 135 181 186 195 193 204 231 247 256 281 218 240 222 203 206 207 183 193 211 220 220 216 194 150 198 135 290 249 144 130 154
145 147 156 136 164 147 160 154 162 163 170 176 174 184 189 159 193 126 185 211 172 186 212 206 175 209 252 277 274 243 214 220 201 188 221 163 199 172 135 196 112 153 156 141 156 129 151
148 156 138 154 131 135 153 159 166 160 163 154 170 186 179 178 197 192 162 143 164 179 199 172 205 216 173 245 199 130 227 249 160 196 193 213 139 151 147 141 139 147 157 164 170 344 166
135 167 157 137 155 133 131 143 159 144 168 163 153 171 160 183 189 198 178 201 189 194 191 181 185 197 202 187 243 169 269 246 169 250 259 212 164 161 141 148 157 220 196 163 175 282 247
144 144 150 147 149 157 171 134 126 170 153 152 162 163 168 183 164 193 189 204 205 186 179 176 187 182 212 199 168 139 202 265 254 206 174 206 151 141 138 140 148 151 221 198 203 199 210
159 166 148 162 124 162 147 165 142 132 164 163 157 175 150 170 179 188 171 189 195 202 219 165 191 184 195 200 192 197 204 272 277 133 135 149 145 124 138 141 137 149 168 208 200 157 153
147 165 151 142 162 124 170 143 155 159 141 153 164 141 166 168 168 181 187 195 177 199 177 199 172 205 177 163 185 191 207 246 179 142 132 139 142 136 140 136 145 149 206 181 132 161 161
146 140 156 161 164 163 144 159 146 154 162 157 171 167 149 167 159 171 177 188 189 209 185 202 193 204 219 190 183 183 206 201 230 192 127 133 143 151 132 133 136 141 148 184 203 210 207
153 156 154 147 147 167 161 162 158 147 163 162 168 160 168 139 174 177 179 152 183 158 198 195 187 202 185 228 196 208 196 197 211 135 141 132 146 148 149 140 139 135 142 199 184 179 203
142 170 155 159 137 139 153 156 163 157 149 145 140 153 161 170 177 178 177 175 178 173 205 167 196 175 196 183 194 186 201 217 192 196 245 140 230 242 172 278 130 139 143 141 142 245 230
168 148 163 162 152 140 149 161 145 138 167 151 155 131 160 160 170 159 139 163 177 174 168 210 192 181 190 196 188 206 210 210 223 213 215 205 254 153 146 250 157 144 133 141 146 145 140
161 152 160 135 158 162 160 141 149 146 158 167 166 154 149 162 172 169 171 179 163 154 187 152 214 189 197 179 209 186 230 213 211 217 246 196 191 237 262 133 134 134 227 169 134 141 138
158 170 159 135 140 139 165 162 173 160 143 170 174 161 158 176 175 137 181 160 176 179 179 205 176 195 220 190 184 191 237 223 194 234 218 186 180 214 249 235 280 139 151 224 265 146 191
173 169 163 164 169 154 161 136 176 172 171 146 174 170 168 163 176 184 167 175 160 190 190 197 150 194 220 209 181 187 229 201 222 180 227 220 221 195 242 244 256 285 177 285 267 155 235

GFSGBSN_2pvu_pres_138.txt.gz
Presure
170 181 178 201 213 226 230 210 222 306 347 363 332 316 268 186 286 376 327 295 280 302 232 213 222 222 248 220 225 219 215 214 218 207 212 216 200 199 208 248 189 248 245 218 240 241 258
165 174 181 197 196 198 224 227 223 216 232 282 304 335 335 351 320 315 317 322 312 240 247 231 223 229 226 238 239 235 235 237 228 230 237 236 247 241 252 240 229 249 257 254 263 205 244
162 164 174 185 189 204 204 201 225 246 219 228 235 306 320 321 309 316 321 200 311 261 271 229 264 268 232 233 263 252 259 262 244 242 246 236 259 262 270 256 264 282 276 270 278 274 262
137 155 164 182 162 194 192 214 188 225 230 226 221 211 219 216 274 284 297 326 321 303 281 274 293 294 251 252 231 271 252 255 262 268 277 302 297 285 265 291 292 291 293 290 303 288 271
165 157 155 168 181 171 192 191 206 191 187 189 213 220 197 194 205 206 210 245 216 278 280 271 314 287 288 318 265 297 307 246 247 252 219 257 325 311 304 314 311 302 286 298 299 295 234
157 156 159 176 172 176 175 167 188 203 195 199 205 222 191 225 208 205 198 202 189 201 199 190 223 203 218 207 236 239 247 256 296 425 455 326 459 414 392 317 306 290 295 314 309 302 303
160 153 168 162 155 173 161 154 177 198 173 212 186 194 184 258 220 228 181 189 187 188 176 199 201 187 193 183 205 214 221 244 259 306 199 421 436 410 411 417 437 437 290 309 294 307 138
154 158 153 168 164 105 168 163 174 181 187 176 194 184 210 193 180 180 284 229 210 206 169 181 196 180 176 182 194 206 220 230 223 268 232 204 340 277 424 441 427 420 417 398 285 298 178
146 155 149 154 164 164 178 173 167 162 178 177 185 178 191 180 180 189 180 198 180 282 292 167 193 193 176 178 191 197 201 219 231 251 236 334 363 281 250 453 416 445 436 328 300 295 285
152 151 146 159 165 173 154 157 176 153 171 177 183 170 180 172 207 202 197 213 191 195 196 207 212 250 287 235 184 193 198 208 228 231 259 280 205 210 412 473 484 470 465 303 311 292 281
164 156 145 145 142 166 165 152 166 176 174 170 162 179 188 183 184 176 179 208 198 208 202 196 197 222 208 296 253 254 195 194 199 215 240 262 281 339 214 234 466 506 340 476 309 291 289
157 148 162 161 144 151 165 157 143 159 173 163 159 182 179 186 180 190 181 189 186 205 187 198 204 211 218 235 225 296 196 201 228 199 218 243 263 288 220 205 229 235 323 296 297 280 261
157 148 161 151 151 153 158 156 163 156 157 167 174 173 172 182 198 178 180 179 187 191 200 209 199 206 194 222 244 232 199 221 192 216 248 201 232 249 285 342 273 210 216 221 289 268 279
146 150 158 161 128 152 157 158 163 164 169 138 177 168 172 173 168 190 185 178 177 195 192 200 187 193 204 189 218 195 229 227 240 188 256 233 203 216 243 269 318 387 361 213 212 215 225
135 155 160 145 163 131 165 160 152 162 162 165 174 171 173 149 177 187 189 190 184 181 183 186 193 213 189 196 197 202 177 215 246 198 147 259 136 141 208 219 231 253 154 145 157 159 155
159 163 151 138 157 145 151 147 136 169 173 150 165 172 171 159 170 173 178 176 181 171 190 184 204 194 197 175 203 203 217 211 227 222 300 252 225 257 214 199 220 189 133 125 133 139 144
152 144 160 153 142 124 162 153 148 148 147 160 146 163 166 173 176 162 174 180 185 188 183 194 186 188 208 185 220 207 203 227 222 203 171 157 145 275 263 258 225 181 139 201 139 137 142
131 142 128 148 120 148 167 154 138 156 160 140 161 158 162 168 168 152 177 177 160 177 188 179 188 179 191 202 190 216 203 199 242 188 140 176 267 291 288 269 254 200 196 193 191 132 221
162 161 140 136 115 153 154 151 158 143 157 159 144 166 177 147 155 169 169 172 167 166 186 183 178 180 188 198 179 186 207 208 202 204 242 216 186 183 137 134 136 237 139 138 137 143 157
108 132 159 155 153 134 148 126 144 160 157 157 157 175 176 161 167 142 171 175 178 180 169 181 176 171 175 196 196 192 210 141 198 233 199 194 207 212 202 251 222 135 148 144 141 138 159
148 106 165 144 146 173 147 162 143 171 134 167 154 175 166 166 166 156 167 142 164 176 178 162 173 181 192 170 194 189 210 189 216 161 232 188 235 216 165 230 144 146 140 146 151 157 250
148 143 145 162 137 163 167 142 172 162 169 139 171 168 162 162 126 146 169 179 160 154 176 174 172 165 178 189 193 210 199 202 210 215 169 227 212 141 244 199 146 220 149 134 134 140 145
171 143 142 161 179 162 164 169 169 161 162 163 146 139 172 165 145 160 124 174 152 174 158 148 177 185 166 181 172 182 198 203 171 217 169 217 205 199 230 231 198 234 229 156 137 135 133
143 145 149 175 164 161 167 161 160 170 155 165 167 156 158 149 148 169 176 158 173 171 155 150 168 167 196 167 176 179 177 187 185 199 181 214 214 222 219 205 226 150 138 142 179 292 147
143 137 140 150 166 169 153 158 163 168 166 154 133 173 173 181 170 159 138 170 180 144 164 167 176 154 163 155 175 176 179 200 161 205 212 195 209 205 183 217 227 191 209 207 171 144 150
149 169 170 164 162 156 163 161 176 159 166 162 172 167 143 127 175 175 161 185 135 170 163 195 188 186 154 185 171 185 167 207 206 201 206 196 187 207 206 197 230 192 150 219 256 149 241
168 167 165 154 173 170 169 161 159 158 164 168 150 179 167 158 169 161 167 185 185 162 155 182 193 168 193 160 140 162 185 207 212 204 210 197 198 212 210 194 232 198 230 215 239 264 199
171 176 171 168 157 151 171 170 144 168 174 161 177 163 163 168 169 184 183 172 169 183 170 167 187 178 186 147 183 191 142 199 169 201 201 213 202 197 210 205 228 228 234 227 233 213 253
164 159 160 165 171 162 149 151 180 181 175 176 169 171 176 179 183 180 179 178 171 177 181 188 186 177 188 176 162 192 195 141 203 212 209 203 202 194 164 220 211 230 226 229 227 226 248

GFSGBSN_2pvu_pres_144.txt.gz
Presure
159 166 182 185 192 198 214 204 200 243 225 241 301 297 262 291 314 336 346 238 215 206 214 215 235 259 251 238 220 195 199 199 200 215 200 201 214 200 171 234 214 225 220 200 245 186 205
162 166 173 171 181 207 194 206 176 204 218 200 220 244 303 231 295 235 265 273 226 185 194 223 212 205 225 254 251 252 227 232 224 222 224 189 200 217 225 206 212 207 224 239 261 257 213
174 167 158 174 194 168 211 187 212 169 203 216 205 188 206 205 206 243 263 239 223 210 211 205 215 233 245 265 275 266 250 241 248 262 239 270 281 279 269 265 229 264 264 272 255 251 273
145 158 147 180 180 190 159 208 177 199 196 164 205 190 220 222 230 214 193 199 193 187 226 210 219 239 236 249 246 252 242 266 276 236 223 229 297 402 199 220 403 246 220 279 290 263 232
154 151 172 178 185 166 183 180 180 192 191 190 183 193 170 194 189 206 210 173 243 236 174 180 190 202 191 195 199 199 201 204 208 211 213 253 405 431 447 440 431 403 443 454 406 300 286
166 161 148 170 178 183 165 179 175 173 190 191 177 173 175 189 193 193 194 164 203 225 226 232 232 192 255 198 214 200 193 198 205 211 223 171 291 247 237 463 458 453 291 429 434 450 376
133 147 162 142 172 161 183 165 176 187 165 183 206 182 184 200 168 179 204 172 200 189 197 217 167 210 177 196 334 228 283 273 195 209 226 238 188 405 200 251 302 300 307 489 434 430 445
131 139 157 162 144 166 171 177 169 166 183 179 168 194 193 172 172 179 159 168 177 195 192 164 179 213 252 164 234 191 176 175 258 256 224 231 203 214 197 260 310 322 383 504 477 446 434
162 153 148 170 142 129 157 161 163 183 164 182 189 179 165 177 200 196 193 218 183 169 177 192 189 193 217 241 204 172 255 251 229 205 268 258 235 189 313 206 231 298 296 317 422 484 313
149 153 168 148 164 162 164 169 163 162 170 184 168 177 187 186 175 183 199 190 207 214 195 200 219 199 193 225 232 213 231 181 253 204 213 233 303 238 188 289 321 276 274 267 279 320 309
151 168 151 166 161 129 163 167 168 163 169 151 173 177 190 186 186 188 183 180 202 193 205 207 194 198 219 177 191 224 234 242 181 243 254 199 240 259 233 238 250 307 320 287 277 274 300
127 168 148 145 134 165 162 158 154 154 146 173 177 166 183 181 186 193 180 172 187 195 192 184 206 200 197 198 190 220 188 219 227 238 251 253 234 201 258 309 238 239 250 280 364 331 286
160 148 129 134 157 166 170 151 162 163 174 174 176 178 175 184 176 186 190 187 191 176 185 188 191 184 206 207 201 204 219 204 189 195 218 247 210 246 196 246 262 225 226 235 243 262 286
146 136 149 151 150 125 169 152 161 161 154 173 157 154 175 158 178 174 165 194 182 188 185 174 182 199 171 174 206 210 196 202 218 226 235 229 214 255 249 196 204 272 284 258 217 233 245
162 157 166 148 117 137 167 131 158 160 179 165 174 170 141 181 176 179 176 166 167 171 179 187 193 166 198 201 187 170 187 206 204 218 214 225 239 233 234 236 248 250 220 301 299 221 220
147 163 129 160 159 162 128 172 170 127 160 161 157 145 164 152 152 173 164 178 182 164 176 183 176 189 188 178 172 173 196 204 193 210 220 213 177 190 215 229 250 256 272 240 247 311 210
167 163 158 152 162 161 162 139 163 152 146 131 171 159 167 135 172 155 146 176 177 186 162 175 175 171 177 186 168 176 187 198 207 189 213 216 180 231 198 149 222 236 233 249 144 191 174
159 162 137 148 157 163 160 170 167 173 148 158 166 147 128 169 183 134 172 173 158 143 184 185 161 187 187 197 196 195 171 183 163 195 198 193 216 225 230 171 147 196 234 241 140 128 124
145 148 143 144 149 148 169 135 168 143 170 119 143 165 179 155 176 181 162 141 171 155 179 188 171 188 188 194 181 192 172 186 181 204 182 202 207 171 225 223 224 205 223 198 219 182 237
153 164 154 157 160 166 172 171 164 157 158 163 158 145 153 175 152 132 164 158 160 176 183 182 180 166 181 193 187 191 186 193 178 191 168 153 158 207 216 186 216 225 225 187 140 143 231
151 159 130 162 170 173 168 158 157 163 165 156 163 156 157 177 169 169 165 169 169 158 164 183 178 185 170 182 183 182 181 188 197 190 190 199 185 220 219 196 191 220 167 192 155 140 154
162 100 112 157 154 154 163 163 158 160 164 168 135 165 165 135 183 166 164 174 165 178 156 179 177 180 143 182 178 184 168 162 190 176 193 201 198 212 212 214 207 127 208 215 226 135 186
165 120 164 163 159 161 146 169 168 146 166 164 168 156 162 167 165 173 170 182 165 163 136 146 175 137 168 172 179 138 188 175 169 169 193 191 184 201 201 190 213 218 211 213 223 169 153
161 170 171 166 163 160 163 170 171 167 165 160 156 170 175 160 177 166 163 141 170 151 146 178 168 169 180 141 163 179 157 185 189 186 171 197 191 198 203 207 207 199 217 209 209 222 211
163 161 105 166 165 171 175 174 161 161 164 163 164 167 142 163 166 158 154 156 167 145 136 163 176 174 184 186 175 184 190 184 190 185 190 194 200 215 199 199 210 205 203 202 216 210 223
168 164 160 163 160 161 130 154 178 179 154 161 173 179 169 176 151 154 177 131 184 155 170 170 156 176 179 182 186 156 188 186 174 191 176 189 204 210 196 210 192 215 201 202 214 214 200
156 157 159 137 161 173 178 163 167 165 170 180 174 170 162 163 159 162 167 168 173 173 174 169 179 179 174 185 188 185 192 175 196 200 200 188 205 191 207 185 193 208 196 207 205 221 226
170 171 169 169 165 165 161 171 163 177 166 161 164 168 167 171 174 164 171 173 170 171 175 181 183 180 187 189 186 195 201 189 190 195 180 192 203 187 186 186 200 199 200 197 199 228 225
166 168 168 167 164 170 175 168 169 171 168 173 173 174 177 167 178 181 175 178 179 180 178 171 181 190 183 177 193 200 197 190 184 209 198 210 195 195 173 202 201 202 198 207 225 223 225

GFSGBSN_2pvu_pres_147.txt.gz
Presure
168 163 185 184 196 192 213 197 187 249 262 243 233 262 234 298 235 284 195 202 224 246 200 214 220 219 215 224 212 201 188 176 201 198 188 190 172 206 218 218 222 218 179 216 223 204 233
156 190 172 169 192 179 184 201 200 210 235 224 253 244 232 173 193 231 197 200 219 230 248 232 191 188 190 194 229 219 220 230 229 222 216 226 190 181 248 253 253 242 253 260 245 212 221
172 178 168 190 161 191 188 175 200 203 187 209 234 203 199 253 216 203 201 203 204 206 206 219 225 223 228 205 215 237 256 242 207 247 256 260 260 236 238 238 266 286 319 320 310 296 255
142 166 181 182 167 170 175 154 173 169 177 194 181 206 234 247 193 221 243 195 219 219 217 218 209 237 225 231 241 239 234 247 236 275 242 215 213 214 266 333 310 307 206 230 392 461 327
164 143 164 164 182 164 169 195 180 162 192 178 201 186 181 195 218 246 231 266 220 185 195 191 190 190 193 195 193 197 195 198 199 202 208 205 187 236 324 287 216 211 225 299 373 413 447
164 144 153 167 155 183 170 171 187 177 160 174 174 165 200 187 182 186 170 251 259 258 238 255 246 171 227 180 191 218 175 189 258 200 205 210 196 256 325 263 200 236 308 326 371 469 360
163 159 155 167 164 160 172 184 169 196 167 158 191 204 188 173 172 177 174 172 172 199 224 207 218 222 221 222 255 225 256 261 270 173 188 219 227 241 187 322 206 280 228 313 319 528 514
152 148 161 136 168 170 166 161 179 167 186 191 169 157 187 187 174 179 197 174 190 163 181 187 168 197 216 232 204 201 171 224 258 261 281 191 276 236 260 261 197 232 320 306 334 342 305
168 150 149 163 144 162 161 171 167 181 172 165 189 177 174 173 182 200 195 187 187 172 182 177 192 202 200 216 226 226 236 244 183 239 166 227 193 233 306 244 267 266 280 369 309 315 334
127 128 146 158 162 164 167 148 168 169 172 176 172 174 181 188 185 188 182 197 187 199 201 181 195 209 203 216 190 196 227 232 236 237 222 243 253 230 223 228 282 243 253 260 295 352 294
168 148 123 149 165 154 148 167 172 145 175 152 181 182 158 180 182 166 177 171 192 200 185 195 205 192 189 190 202 205 217 219 232 211 243 218 249 250 231 204 234 270 301 238 250 265 287
129 147 144 125 137 140 158 163 163 165 157 160 158 152 184 168 165 185 195 189 187 171 186 192 192 184 191 210 200 210 198 216 215 214 226 240 196 242 245 246 226 208 230 235 246 235 246
137 161 165 148 118 153 147 163 179 138 163 146 142 172 150 183 187 166 166 184 175 165 178 188 187 191 197 181 187 209 195 203 204 213 225 218 237 222 223 201 233 235 232 265 252 253 287
161 168 139 167 165 111 156 141 136 178 149 161 167 149 155 172 155 183 161 159 183 179 175 179 191 191 196 187 196 189 206 202 211 198 207 212 158 236 223 241 234 223 233 201 198 273 276
120 166 165 124 161 165 162 147 169 132 139 175 169 138 177 158 175 160 144 176 161 168 195 185 169 180 194 196 189 153 202 191 185 209 207 194 203 231 212 231 214 242 254 250 244 261 264
125 162 159 160 167 133 160 161 131 176 154 159 130 147 164 160 169 178 159 155 165 178 172 193 187 178 161 163 185 190 197 184 199 200 208 205 210 181 202 221 233 210 241 231 236 241 252
152 126 141 120 148 145 135 152 135 172 176 162 148 155 157 128 173 164 151 164 170 171 172 163 152 186 186 187 179 177 190 189 197 196 197 206 193 205 196 205 224 219 225 207 213 214 213
125 151 155 152 155 159 129 159 170 157 177 167 132 150 177 160 158 171 182 184 169 175 156 154 182 186 151 187 189 185 188 185 189 171 198 190 205 199 193 205 212 224 217 193 231 151 215
135 157 154 160 167 157 164 133 171 152 156 156 160 163 165 123 174 164 178 156 151 143 172 182 166 180 178 171 176 179 186 173 190 190 188 185 204 193 161 191 220 214 222 166 189 206 230
169 165 164 164 163 157 167 168 152 153 159 161 154 161 169 162 164 172 160 181 175 170 175 174 165 178 188 173 190 180 188 172 173 180 190 180 208 209 183 187 141 184 224 203 179 189 146
122 172 123 141 154 169 167 169 169 162 165 170 164 154 175 165 170 154 168 169 147 175 186 178 160 190 159 180 178 178 176 149 164 177 160 188 179 200 215 199 203 198 142 168 189 215 172
125 151 157 159 102 156 160 148 169 121 168 162 167 171 160 162 168 174 168 176 142 177 184 159 186 171 170 184 174 144 184 187 186 182 189 198 188 175 180 206 195 188 205 180 143 206 192
132 165 168 151 172 175 180 176 155 163 157 163 177 176 177 156 147 152 138 174 174 151 159 173 153 159 181 162 179 176 173 185 164 194 161 187 199 202 171 191 204 199 216 204 203 217 155
147 125 141 138 148 142 158 159 158 164 172 167 160 168 171 169 143 154 163 174 170 163 160 154 167 179 175 178 174 163 152 173 162 164 187 161 197 185 199 192 165 185 204 208 199 209 212
167 161 165 161 162 164 167 157 154 167 162 163 162 160 167 178 161 175 175 162 161 168 135 169 169 144 149 147 184 184 187 186 186 188 185 187 193 195 167 196 178 161 195 193 209 201 218
170 176 130 168 172 170 169 152 165 164 165 168 170 169 168 161 152 158 157 158 169 167 175 178 146 156 182 172 159 186 185 173 188 187 189 186 193 192 200 205 201 179 205 199 204 210 206
169 169 173 179 168 164 166 165 165 172 171 174 173 169 165 167 164 162 170 168 172 171 169 168 175 179 147 167 188 187 151 176 199 191 192 191 194 205 203 196 193 187 195 214 203 198 210
173 173 175 164 167 174 179 175 169 171 172 170 171 170 168 167 164 165 168 168 168 167 169 176 172 176 184 187 191 175 181 199 183 187 190 188 194 209 186 183 195 195 202 188 210 210 212
180 173 170 164 172 182 179 170 176 178 174 171 170 166 178 178 175 172 175 170 173 179 165 172 174 182 188 178 185 185 197 181 192 194 189 183 197 201 190 187 199 209 186 200 220 225 213